<?xml version="1.0" encoding="UTF-8" standalone="no" ?>
<gpx xmlns="http://www.topografix.com/GPX/1/1" xmlns:xsi="http://www.w3.org/2001/XMLSchema-instance" xsi:schemaLocation="http://www.topografix.com/GPX/1/1 http://www.topografix.com/GPX/1/1/gpx.xsd" version="1.1" creator="VisuGPX - https://www.visugpx.com">
  <metadata>
    <name>Le Villaret - col du Sucquet</name>
    <desc><![CDATA[Variante de ma version du 25/08/2019 de la rando "Le Villaret- Dourbies" ; pas de passage par Dourbies à cause de la canicule : parcours des crêtes après le col du Sucquet pour éviter la remontée après Dourbies au soleil.Il faut revenir un peu en arrière pour démarrer la variante. Variante très agréable:on n'a des vues (très belles) que par endroits mais une grande partie est ombragée et il y a peu de montées.Parcours plus court et moins de dénivelé que la version par Dourbies.]]></desc>
  </metadata>
  <trk>
    <name><![CDATA[2022-08-07 16:22:19]]></name>
    <trkseg>
      <trkpt lat="44.07801" lon="3.39335">
        <ele>641.82</ele>
        <time>2022-08-07T07:07:38Z</time>
      </trkpt>
      <trkpt lat="44.07798" lon="3.39332">
        <ele>639.89</ele>
        <time>2022-08-07T07:08:06Z</time>
      </trkpt>
      <trkpt lat="44.078" lon="3.39335">
        <ele>641.34</ele>
        <time>2022-08-07T07:08:28Z</time>
      </trkpt>
      <trkpt lat="44.078" lon="3.39337">
        <ele>640.38</ele>
        <time>2022-08-07T07:08:48Z</time>
      </trkpt>
      <trkpt lat="44.078" lon="3.39336">
        <ele>640.38</ele>
        <time>2022-08-07T07:08:57Z</time>
      </trkpt>
      <trkpt lat="44.078" lon="3.39332">
        <ele>638.93</ele>
        <time>2022-08-07T07:09:13Z</time>
      </trkpt>
      <trkpt lat="44.078" lon="3.3933">
        <ele>637.97</ele>
        <time>2022-08-07T07:09:26Z</time>
      </trkpt>
      <trkpt lat="44.078" lon="3.3933">
        <ele>637.49</ele>
        <time>2022-08-07T07:09:40Z</time>
      </trkpt>
      <trkpt lat="44.07798" lon="3.39327">
        <ele>638.45</ele>
        <time>2022-08-07T07:09:56Z</time>
      </trkpt>
      <trkpt lat="44.07795" lon="3.39324">
        <ele>638.93</ele>
        <time>2022-08-07T07:10:10Z</time>
      </trkpt>
      <trkpt lat="44.07798" lon="3.39328">
        <ele>639.89</ele>
        <time>2022-08-07T07:10:31Z</time>
      </trkpt>
      <trkpt lat="44.07799" lon="3.39334">
        <ele>638.45</ele>
        <time>2022-08-07T07:10:45Z</time>
      </trkpt>
      <trkpt lat="44.07798" lon="3.39333">
        <ele>636.53</ele>
        <time>2022-08-07T07:11:03Z</time>
      </trkpt>
      <trkpt lat="44.07799" lon="3.39335">
        <ele>636.53</ele>
        <time>2022-08-07T07:11:20Z</time>
      </trkpt>
      <trkpt lat="44.078" lon="3.39337">
        <ele>637.01</ele>
        <time>2022-08-07T07:11:39Z</time>
      </trkpt>
      <trkpt lat="44.078" lon="3.39335">
        <ele>636.53</ele>
        <time>2022-08-07T07:11:56Z</time>
      </trkpt>
      <trkpt lat="44.07797" lon="3.39337">
        <ele>639.89</ele>
        <time>2022-08-07T07:12:08Z</time>
      </trkpt>
      <trkpt lat="44.07792" lon="3.39332">
        <ele>638.93</ele>
        <time>2022-08-07T07:12:24Z</time>
      </trkpt>
      <trkpt lat="44.07794" lon="3.39327">
        <ele>637.01</ele>
        <time>2022-08-07T07:12:36Z</time>
      </trkpt>
      <trkpt lat="44.078" lon="3.39322">
        <ele>636.05</ele>
        <time>2022-08-07T07:12:49Z</time>
      </trkpt>
      <trkpt lat="44.07807" lon="3.39321">
        <ele>634.61</ele>
        <time>2022-08-07T07:13:01Z</time>
      </trkpt>
      <trkpt lat="44.07811" lon="3.39332">
        <ele>632.68</ele>
        <time>2022-08-07T07:13:13Z</time>
      </trkpt>
      <trkpt lat="44.07811" lon="3.3935">
        <ele>633.65</ele>
        <time>2022-08-07T07:13:26Z</time>
      </trkpt>
      <trkpt lat="44.07807" lon="3.39366">
        <ele>632.2</ele>
        <time>2022-08-07T07:13:37Z</time>
      </trkpt>
      <trkpt lat="44.07807" lon="3.39377">
        <ele>630.28</ele>
        <time>2022-08-07T07:13:44Z</time>
      </trkpt>
      <trkpt lat="44.07808" lon="3.39395">
        <ele>627.88</ele>
        <time>2022-08-07T07:13:58Z</time>
      </trkpt>
      <trkpt lat="44.0781" lon="3.39401">
        <ele>626.44</ele>
        <time>2022-08-07T07:14:02Z</time>
      </trkpt>
      <trkpt lat="44.07812" lon="3.39403">
        <ele>625.96</ele>
        <time>2022-08-07T07:14:04Z</time>
      </trkpt>
      <trkpt lat="44.0782" lon="3.3942">
        <ele>625.47</ele>
        <time>2022-08-07T07:14:19Z</time>
      </trkpt>
      <trkpt lat="44.07824" lon="3.39431">
        <ele>625.47</ele>
        <time>2022-08-07T07:14:31Z</time>
      </trkpt>
      <trkpt lat="44.0783" lon="3.39446">
        <ele>624.51</ele>
        <time>2022-08-07T07:14:46Z</time>
      </trkpt>
      <trkpt lat="44.07832" lon="3.39459">
        <ele>627.4</ele>
        <time>2022-08-07T07:14:57Z</time>
      </trkpt>
      <trkpt lat="44.07835" lon="3.39472">
        <ele>625.96</ele>
        <time>2022-08-07T07:15:12Z</time>
      </trkpt>
      <trkpt lat="44.07842" lon="3.3949">
        <ele>622.59</ele>
        <time>2022-08-07T07:15:27Z</time>
      </trkpt>
      <trkpt lat="44.07844" lon="3.3951">
        <ele>626.44</ele>
        <time>2022-08-07T07:15:41Z</time>
      </trkpt>
      <trkpt lat="44.07845" lon="3.39526">
        <ele>635.57</ele>
        <time>2022-08-07T07:15:55Z</time>
      </trkpt>
      <trkpt lat="44.0785" lon="3.39538">
        <ele>636.53</ele>
        <time>2022-08-07T07:16:09Z</time>
      </trkpt>
      <trkpt lat="44.07857" lon="3.39548">
        <ele>636.53</ele>
        <time>2022-08-07T07:16:19Z</time>
      </trkpt>
      <trkpt lat="44.07864" lon="3.3956">
        <ele>636.53</ele>
        <time>2022-08-07T07:16:32Z</time>
      </trkpt>
      <trkpt lat="44.07872" lon="3.39571">
        <ele>636.05</ele>
        <time>2022-08-07T07:16:47Z</time>
      </trkpt>
      <trkpt lat="44.07881" lon="3.39575">
        <ele>643.26</ele>
        <time>2022-08-07T07:16:58Z</time>
      </trkpt>
      <trkpt lat="44.07891" lon="3.39578">
        <ele>646.62</ele>
        <time>2022-08-07T07:17:09Z</time>
      </trkpt>
      <trkpt lat="44.07899" lon="3.39581">
        <ele>650.95</ele>
        <time>2022-08-07T07:17:21Z</time>
      </trkpt>
      <trkpt lat="44.07903" lon="3.39586">
        <ele>652.87</ele>
        <time>2022-08-07T07:17:31Z</time>
      </trkpt>
      <trkpt lat="44.07911" lon="3.39596">
        <ele>651.91</ele>
        <time>2022-08-07T07:17:45Z</time>
      </trkpt>
      <trkpt lat="44.07906" lon="3.39603">
        <ele>652.39</ele>
        <time>2022-08-07T07:17:57Z</time>
      </trkpt>
      <trkpt lat="44.07902" lon="3.39609">
        <ele>658.64</ele>
        <time>2022-08-07T07:18:08Z</time>
      </trkpt>
      <trkpt lat="44.07901" lon="3.3961">
        <ele>664.41</ele>
        <time>2022-08-07T07:18:23Z</time>
      </trkpt>
      <trkpt lat="44.07895" lon="3.3962">
        <ele>666.33</ele>
        <time>2022-08-07T07:18:35Z</time>
      </trkpt>
      <trkpt lat="44.07891" lon="3.39622">
        <ele>670.18</ele>
        <time>2022-08-07T07:18:48Z</time>
      </trkpt>
      <trkpt lat="44.0789" lon="3.39625">
        <ele>671.62</ele>
        <time>2022-08-07T07:19:02Z</time>
      </trkpt>
      <trkpt lat="44.07893" lon="3.39632">
        <ele>674.5</ele>
        <time>2022-08-07T07:19:14Z</time>
      </trkpt>
      <trkpt lat="44.07892" lon="3.39638">
        <ele>679.79</ele>
        <time>2022-08-07T07:19:29Z</time>
      </trkpt>
      <trkpt lat="44.07883" lon="3.39641">
        <ele>683.15</ele>
        <time>2022-08-07T07:19:42Z</time>
      </trkpt>
      <trkpt lat="44.07886" lon="3.39647">
        <ele>686.52</ele>
        <time>2022-08-07T07:19:56Z</time>
      </trkpt>
      <trkpt lat="44.07894" lon="3.39662">
        <ele>687.48</ele>
        <time>2022-08-07T07:20:11Z</time>
      </trkpt>
      <trkpt lat="44.07903" lon="3.39678">
        <ele>687.48</ele>
        <time>2022-08-07T07:20:28Z</time>
      </trkpt>
      <trkpt lat="44.07909" lon="3.3969">
        <ele>685.08</ele>
        <time>2022-08-07T07:20:46Z</time>
      </trkpt>
      <trkpt lat="44.07914" lon="3.39704">
        <ele>686.52</ele>
        <time>2022-08-07T07:21:00Z</time>
      </trkpt>
      <trkpt lat="44.07909" lon="3.39706">
        <ele>693.73</ele>
        <time>2022-08-07T07:21:12Z</time>
      </trkpt>
      <trkpt lat="44.07902" lon="3.39703">
        <ele>699.5</ele>
        <time>2022-08-07T07:21:24Z</time>
      </trkpt>
      <trkpt lat="44.07895" lon="3.39699">
        <ele>702.38</ele>
        <time>2022-08-07T07:21:36Z</time>
      </trkpt>
      <trkpt lat="44.07886" lon="3.39694">
        <ele>704.78</ele>
        <time>2022-08-07T07:21:48Z</time>
      </trkpt>
      <trkpt lat="44.07887" lon="3.39701">
        <ele>703.82</ele>
        <time>2022-08-07T07:22:02Z</time>
      </trkpt>
      <trkpt lat="44.0788" lon="3.39706">
        <ele>705.75</ele>
        <time>2022-08-07T07:22:16Z</time>
      </trkpt>
      <trkpt lat="44.07869" lon="3.39703">
        <ele>707.67</ele>
        <time>2022-08-07T07:22:30Z</time>
      </trkpt>
      <trkpt lat="44.07871" lon="3.39711">
        <ele>709.11</ele>
        <time>2022-08-07T07:22:44Z</time>
      </trkpt>
      <trkpt lat="44.07877" lon="3.39725">
        <ele>708.15</ele>
        <time>2022-08-07T07:22:59Z</time>
      </trkpt>
      <trkpt lat="44.07883" lon="3.39733">
        <ele>711.03</ele>
        <time>2022-08-07T07:23:13Z</time>
      </trkpt>
      <trkpt lat="44.07875" lon="3.39729">
        <ele>716.32</ele>
        <time>2022-08-07T07:23:25Z</time>
      </trkpt>
      <trkpt lat="44.07867" lon="3.3973">
        <ele>720.16</ele>
        <time>2022-08-07T07:23:38Z</time>
      </trkpt>
      <trkpt lat="44.07872" lon="3.39737">
        <ele>721.61</ele>
        <time>2022-08-07T07:23:51Z</time>
      </trkpt>
      <trkpt lat="44.0788" lon="3.39748">
        <ele>724.01</ele>
        <time>2022-08-07T07:24:05Z</time>
      </trkpt>
      <trkpt lat="44.07887" lon="3.39762">
        <ele>728.82</ele>
        <time>2022-08-07T07:24:20Z</time>
      </trkpt>
      <trkpt lat="44.07879" lon="3.39757">
        <ele>734.58</ele>
        <time>2022-08-07T07:24:33Z</time>
      </trkpt>
      <trkpt lat="44.07879" lon="3.39766">
        <ele>736.99</ele>
        <time>2022-08-07T07:24:50Z</time>
      </trkpt>
      <trkpt lat="44.07882" lon="3.3978">
        <ele>736.51</ele>
        <time>2022-08-07T07:25:04Z</time>
      </trkpt>
      <trkpt lat="44.07889" lon="3.39792">
        <ele>737.47</ele>
        <time>2022-08-07T07:25:18Z</time>
      </trkpt>
      <trkpt lat="44.07892" lon="3.39801">
        <ele>735.55</ele>
        <time>2022-08-07T07:25:32Z</time>
      </trkpt>
      <trkpt lat="44.07897" lon="3.39814">
        <ele>738.91</ele>
        <time>2022-08-07T07:25:50Z</time>
      </trkpt>
      <trkpt lat="44.07895" lon="3.3982">
        <ele>739.87</ele>
        <time>2022-08-07T07:26:01Z</time>
      </trkpt>
      <trkpt lat="44.07896" lon="3.39832">
        <ele>741.79</ele>
        <time>2022-08-07T07:26:15Z</time>
      </trkpt>
      <trkpt lat="44.07894" lon="3.39835">
        <ele>751.89</ele>
        <time>2022-08-07T07:26:29Z</time>
      </trkpt>
      <trkpt lat="44.07887" lon="3.3983">
        <ele>756.69</ele>
        <time>2022-08-07T07:26:43Z</time>
      </trkpt>
      <trkpt lat="44.07888" lon="3.39839">
        <ele>756.69</ele>
        <time>2022-08-07T07:26:57Z</time>
      </trkpt>
      <trkpt lat="44.07891" lon="3.39852">
        <ele>755.73</ele>
        <time>2022-08-07T07:27:14Z</time>
      </trkpt>
      <trkpt lat="44.07895" lon="3.39864">
        <ele>755.73</ele>
        <time>2022-08-07T07:27:29Z</time>
      </trkpt>
      <trkpt lat="44.07901" lon="3.39878">
        <ele>754.29</ele>
        <time>2022-08-07T07:27:44Z</time>
      </trkpt>
      <trkpt lat="44.07906" lon="3.39888">
        <ele>751.41</ele>
        <time>2022-08-07T07:28:00Z</time>
      </trkpt>
      <trkpt lat="44.07907" lon="3.39905">
        <ele>757.66</ele>
        <time>2022-08-07T07:28:18Z</time>
      </trkpt>
      <trkpt lat="44.07902" lon="3.39913">
        <ele>764.39</ele>
        <time>2022-08-07T07:28:32Z</time>
      </trkpt>
      <trkpt lat="44.07898" lon="3.39911">
        <ele>767.27</ele>
        <time>2022-08-07T07:28:43Z</time>
      </trkpt>
      <trkpt lat="44.07891" lon="3.39907">
        <ele>770.63</ele>
        <time>2022-08-07T07:29:00Z</time>
      </trkpt>
      <trkpt lat="44.0789" lon="3.39907">
        <ele>776.88</ele>
        <time>2022-08-07T07:29:15Z</time>
      </trkpt>
      <trkpt lat="44.07895" lon="3.39922">
        <ele>784.57</ele>
        <time>2022-08-07T07:29:32Z</time>
      </trkpt>
      <trkpt lat="44.07902" lon="3.39934">
        <ele>789.38</ele>
        <time>2022-08-07T07:29:46Z</time>
      </trkpt>
      <trkpt lat="44.07898" lon="3.39936">
        <ele>789.86</ele>
        <time>2022-08-07T07:29:57Z</time>
      </trkpt>
      <trkpt lat="44.0789" lon="3.39931">
        <ele>792.26</ele>
        <time>2022-08-07T07:30:11Z</time>
      </trkpt>
      <trkpt lat="44.0788" lon="3.39922">
        <ele>796.59</ele>
        <time>2022-08-07T07:30:24Z</time>
      </trkpt>
      <trkpt lat="44.07876" lon="3.39922">
        <ele>798.99</ele>
        <time>2022-08-07T07:30:35Z</time>
      </trkpt>
      <trkpt lat="44.07881" lon="3.39931">
        <ele>801.88</ele>
        <time>2022-08-07T07:30:47Z</time>
      </trkpt>
      <trkpt lat="44.0789" lon="3.39947">
        <ele>803.8</ele>
        <time>2022-08-07T07:31:01Z</time>
      </trkpt>
      <trkpt lat="44.07896" lon="3.39961">
        <ele>804.28</ele>
        <time>2022-08-07T07:31:16Z</time>
      </trkpt>
      <trkpt lat="44.07897" lon="3.39971">
        <ele>803.32</ele>
        <time>2022-08-07T07:31:30Z</time>
      </trkpt>
      <trkpt lat="44.07899" lon="3.39982">
        <ele>801.4</ele>
        <time>2022-08-07T07:31:47Z</time>
      </trkpt>
      <trkpt lat="44.07902" lon="3.3999">
        <ele>802.36</ele>
        <time>2022-08-07T07:32:02Z</time>
      </trkpt>
      <trkpt lat="44.07911" lon="3.40001">
        <ele>805.72</ele>
        <time>2022-08-07T07:32:15Z</time>
      </trkpt>
      <trkpt lat="44.07917" lon="3.4001">
        <ele>806.68</ele>
        <time>2022-08-07T07:32:26Z</time>
      </trkpt>
      <trkpt lat="44.07932" lon="3.40019">
        <ele>807.64</ele>
        <time>2022-08-07T07:32:39Z</time>
      </trkpt>
      <trkpt lat="44.07945" lon="3.40026">
        <ele>813.41</ele>
        <time>2022-08-07T07:32:51Z</time>
      </trkpt>
      <trkpt lat="44.07947" lon="3.40032">
        <ele>815.34</ele>
        <time>2022-08-07T07:33:02Z</time>
      </trkpt>
      <trkpt lat="44.07935" lon="3.40036">
        <ele>819.66</ele>
        <time>2022-08-07T07:33:17Z</time>
      </trkpt>
      <trkpt lat="44.0793" lon="3.40035">
        <ele>824.47</ele>
        <time>2022-08-07T07:33:29Z</time>
      </trkpt>
      <trkpt lat="44.07931" lon="3.40045">
        <ele>826.39</ele>
        <time>2022-08-07T07:33:46Z</time>
      </trkpt>
      <trkpt lat="44.07928" lon="3.40054">
        <ele>828.31</ele>
        <time>2022-08-07T07:33:59Z</time>
      </trkpt>
      <trkpt lat="44.07931" lon="3.40057">
        <ele>833.6</ele>
        <time>2022-08-07T07:34:15Z</time>
      </trkpt>
      <trkpt lat="44.07933" lon="3.40056">
        <ele>836.48</ele>
        <time>2022-08-07T07:34:29Z</time>
      </trkpt>
      <trkpt lat="44.07934" lon="3.40059">
        <ele>836.48</ele>
        <time>2022-08-07T07:34:40Z</time>
      </trkpt>
      <trkpt lat="44.07939" lon="3.40066">
        <ele>836</ele>
        <time>2022-08-07T07:34:52Z</time>
      </trkpt>
      <trkpt lat="44.0793" lon="3.40065">
        <ele>840.33</ele>
        <time>2022-08-07T07:35:02Z</time>
      </trkpt>
      <trkpt lat="44.07925" lon="3.40073">
        <ele>841.29</ele>
        <time>2022-08-07T07:35:14Z</time>
      </trkpt>
      <trkpt lat="44.07926" lon="3.40076">
        <ele>842.73</ele>
        <time>2022-08-07T07:35:31Z</time>
      </trkpt>
      <trkpt lat="44.07927" lon="3.40078">
        <ele>845.14</ele>
        <time>2022-08-07T07:35:47Z</time>
      </trkpt>
      <trkpt lat="44.07927" lon="3.4007">
        <ele>845.62</ele>
        <time>2022-08-07T07:36:17Z</time>
      </trkpt>
      <trkpt lat="44.07932" lon="3.40077">
        <ele>848.02</ele>
        <time>2022-08-07T07:36:49Z</time>
      </trkpt>
      <trkpt lat="44.07936" lon="3.40081">
        <ele>845.14</ele>
        <time>2022-08-07T07:37:11Z</time>
      </trkpt>
      <trkpt lat="44.07938" lon="3.40081">
        <ele>850.42</ele>
        <time>2022-08-07T07:37:25Z</time>
      </trkpt>
      <trkpt lat="44.07941" lon="3.40076">
        <ele>849.94</ele>
        <time>2022-08-07T07:37:39Z</time>
      </trkpt>
      <trkpt lat="44.07942" lon="3.40073">
        <ele>850.9</ele>
        <time>2022-08-07T07:37:57Z</time>
      </trkpt>
      <trkpt lat="44.07936" lon="3.40067">
        <ele>854.75</ele>
        <time>2022-08-07T07:38:20Z</time>
      </trkpt>
      <trkpt lat="44.07939" lon="3.40071">
        <ele>848.5</ele>
        <time>2022-08-07T07:38:55Z</time>
      </trkpt>
      <trkpt lat="44.0794" lon="3.40075">
        <ele>848.5</ele>
        <time>2022-08-07T07:39:21Z</time>
      </trkpt>
      <trkpt lat="44.07941" lon="3.40066">
        <ele>849.94</ele>
        <time>2022-08-07T07:39:56Z</time>
      </trkpt>
      <trkpt lat="44.0795" lon="3.40073">
        <ele>852.83</ele>
        <time>2022-08-07T07:40:13Z</time>
      </trkpt>
      <trkpt lat="44.07958" lon="3.4007">
        <ele>853.79</ele>
        <time>2022-08-07T07:40:28Z</time>
      </trkpt>
      <trkpt lat="44.07966" lon="3.40062">
        <ele>852.83</ele>
        <time>2022-08-07T07:40:42Z</time>
      </trkpt>
      <trkpt lat="44.07973" lon="3.40055">
        <ele>853.31</ele>
        <time>2022-08-07T07:40:54Z</time>
      </trkpt>
      <trkpt lat="44.07982" lon="3.40041">
        <ele>854.75</ele>
        <time>2022-08-07T07:41:08Z</time>
      </trkpt>
      <trkpt lat="44.07984" lon="3.40036">
        <ele>853.79</ele>
        <time>2022-08-07T07:41:19Z</time>
      </trkpt>
      <trkpt lat="44.07983" lon="3.40035">
        <ele>854.75</ele>
        <time>2022-08-07T07:41:47Z</time>
      </trkpt>
      <trkpt lat="44.07984" lon="3.40036">
        <ele>855.71</ele>
        <time>2022-08-07T07:42:22Z</time>
      </trkpt>
      <trkpt lat="44.07982" lon="3.40038">
        <ele>855.71</ele>
        <time>2022-08-07T07:42:41Z</time>
      </trkpt>
      <trkpt lat="44.07977" lon="3.40045">
        <ele>852.83</ele>
        <time>2022-08-07T07:43:00Z</time>
      </trkpt>
      <trkpt lat="44.0799" lon="3.40052">
        <ele>853.31</ele>
        <time>2022-08-07T07:43:12Z</time>
      </trkpt>
      <trkpt lat="44.08001" lon="3.40052">
        <ele>853.31</ele>
        <time>2022-08-07T07:43:23Z</time>
      </trkpt>
      <trkpt lat="44.0801" lon="3.40053">
        <ele>852.83</ele>
        <time>2022-08-07T07:43:32Z</time>
      </trkpt>
      <trkpt lat="44.08022" lon="3.40053">
        <ele>852.35</ele>
        <time>2022-08-07T07:43:42Z</time>
      </trkpt>
      <trkpt lat="44.08035" lon="3.40062">
        <ele>852.35</ele>
        <time>2022-08-07T07:43:56Z</time>
      </trkpt>
      <trkpt lat="44.08045" lon="3.40071">
        <ele>849.94</ele>
        <time>2022-08-07T07:44:08Z</time>
      </trkpt>
      <trkpt lat="44.08055" lon="3.40082">
        <ele>847.06</ele>
        <time>2022-08-07T07:44:23Z</time>
      </trkpt>
      <trkpt lat="44.0806" lon="3.40086">
        <ele>847.06</ele>
        <time>2022-08-07T07:44:28Z</time>
      </trkpt>
      <trkpt lat="44.0807" lon="3.40096">
        <ele>847.54</ele>
        <time>2022-08-07T07:44:41Z</time>
      </trkpt>
      <trkpt lat="44.08076" lon="3.401">
        <ele>848.98</ele>
        <time>2022-08-07T07:44:55Z</time>
      </trkpt>
      <trkpt lat="44.08086" lon="3.40113">
        <ele>848.02</ele>
        <time>2022-08-07T07:45:08Z</time>
      </trkpt>
      <trkpt lat="44.08095" lon="3.40119">
        <ele>846.1</ele>
        <time>2022-08-07T07:45:20Z</time>
      </trkpt>
      <trkpt lat="44.08098" lon="3.40122">
        <ele>844.18</ele>
        <time>2022-08-07T07:45:23Z</time>
      </trkpt>
      <trkpt lat="44.08111" lon="3.40132">
        <ele>841.77</ele>
        <time>2022-08-07T07:45:36Z</time>
      </trkpt>
      <trkpt lat="44.08115" lon="3.40136">
        <ele>841.29</ele>
        <time>2022-08-07T07:45:41Z</time>
      </trkpt>
      <trkpt lat="44.08125" lon="3.40147">
        <ele>841.29</ele>
        <time>2022-08-07T07:45:52Z</time>
      </trkpt>
      <trkpt lat="44.08134" lon="3.4016">
        <ele>837.93</ele>
        <time>2022-08-07T07:46:06Z</time>
      </trkpt>
      <trkpt lat="44.08147" lon="3.40174">
        <ele>836.96</ele>
        <time>2022-08-07T07:46:21Z</time>
      </trkpt>
      <trkpt lat="44.08155" lon="3.40173">
        <ele>833.6</ele>
        <time>2022-08-07T07:46:34Z</time>
      </trkpt>
      <trkpt lat="44.08163" lon="3.40168">
        <ele>830.24</ele>
        <time>2022-08-07T07:46:50Z</time>
      </trkpt>
      <trkpt lat="44.08161" lon="3.40152">
        <ele>830.24</ele>
        <time>2022-08-07T07:47:04Z</time>
      </trkpt>
      <trkpt lat="44.08161" lon="3.40137">
        <ele>829.27</ele>
        <time>2022-08-07T07:47:19Z</time>
      </trkpt>
      <trkpt lat="44.08157" lon="3.4013">
        <ele>826.39</ele>
        <time>2022-08-07T07:47:32Z</time>
      </trkpt>
      <trkpt lat="44.08155" lon="3.40117">
        <ele>821.1</ele>
        <time>2022-08-07T07:47:47Z</time>
      </trkpt>
      <trkpt lat="44.08155" lon="3.40109">
        <ele>817.26</ele>
        <time>2022-08-07T07:48:00Z</time>
      </trkpt>
      <trkpt lat="44.08153" lon="3.40101">
        <ele>812.93</ele>
        <time>2022-08-07T07:48:15Z</time>
      </trkpt>
      <trkpt lat="44.08157" lon="3.40089">
        <ele>810.53</ele>
        <time>2022-08-07T07:48:29Z</time>
      </trkpt>
      <trkpt lat="44.08154" lon="3.40085">
        <ele>810.05</ele>
        <time>2022-08-07T07:48:39Z</time>
      </trkpt>
      <trkpt lat="44.08154" lon="3.40084">
        <ele>810.05</ele>
        <time>2022-08-07T07:48:51Z</time>
      </trkpt>
      <trkpt lat="44.08153" lon="3.40083">
        <ele>809.09</ele>
        <time>2022-08-07T07:49:17Z</time>
      </trkpt>
      <trkpt lat="44.08173" lon="3.4009">
        <ele>812.45</ele>
        <time>2022-08-07T07:49:43Z</time>
      </trkpt>
      <trkpt lat="44.08158" lon="3.40079">
        <ele>813.41</ele>
        <time>2022-08-07T07:50:12Z</time>
      </trkpt>
      <trkpt lat="44.08156" lon="3.40084">
        <ele>813.41</ele>
        <time>2022-08-07T07:50:40Z</time>
      </trkpt>
      <trkpt lat="44.08161" lon="3.40101">
        <ele>810.53</ele>
        <time>2022-08-07T07:50:55Z</time>
      </trkpt>
      <trkpt lat="44.08165" lon="3.40108">
        <ele>807.64</ele>
        <time>2022-08-07T07:51:08Z</time>
      </trkpt>
      <trkpt lat="44.08178" lon="3.40117">
        <ele>804.28</ele>
        <time>2022-08-07T07:51:26Z</time>
      </trkpt>
      <trkpt lat="44.08184" lon="3.40118">
        <ele>800.92</ele>
        <time>2022-08-07T07:51:40Z</time>
      </trkpt>
      <trkpt lat="44.08183" lon="3.40113">
        <ele>798.99</ele>
        <time>2022-08-07T07:51:54Z</time>
      </trkpt>
      <trkpt lat="44.08183" lon="3.40103">
        <ele>797.55</ele>
        <time>2022-08-07T07:52:06Z</time>
      </trkpt>
      <trkpt lat="44.08184" lon="3.40098">
        <ele>799.47</ele>
        <time>2022-08-07T07:52:17Z</time>
      </trkpt>
      <trkpt lat="44.08182" lon="3.40094">
        <ele>802.36</ele>
        <time>2022-08-07T07:52:29Z</time>
      </trkpt>
      <trkpt lat="44.08183" lon="3.40088">
        <ele>803.8</ele>
        <time>2022-08-07T07:52:36Z</time>
      </trkpt>
      <trkpt lat="44.08185" lon="3.40101">
        <ele>803.32</ele>
        <time>2022-08-07T07:52:50Z</time>
      </trkpt>
      <trkpt lat="44.08187" lon="3.40109">
        <ele>802.84</ele>
        <time>2022-08-07T07:52:59Z</time>
      </trkpt>
      <trkpt lat="44.08192" lon="3.4012">
        <ele>802.36</ele>
        <time>2022-08-07T07:53:12Z</time>
      </trkpt>
      <trkpt lat="44.08201" lon="3.4012">
        <ele>806.68</ele>
        <time>2022-08-07T07:53:25Z</time>
      </trkpt>
      <trkpt lat="44.08201" lon="3.40113">
        <ele>807.64</ele>
        <time>2022-08-07T07:53:37Z</time>
      </trkpt>
      <trkpt lat="44.08205" lon="3.4011">
        <ele>808.13</ele>
        <time>2022-08-07T07:53:50Z</time>
      </trkpt>
      <trkpt lat="44.08214" lon="3.40104">
        <ele>811.49</ele>
        <time>2022-08-07T07:54:04Z</time>
      </trkpt>
      <trkpt lat="44.08212" lon="3.40095">
        <ele>815.34</ele>
        <time>2022-08-07T07:54:17Z</time>
      </trkpt>
      <trkpt lat="44.08209" lon="3.40089">
        <ele>818.7</ele>
        <time>2022-08-07T07:54:32Z</time>
      </trkpt>
      <trkpt lat="44.08208" lon="3.40083">
        <ele>821.58</ele>
        <time>2022-08-07T07:54:40Z</time>
      </trkpt>
      <trkpt lat="44.08212" lon="3.40074">
        <ele>822.55</ele>
        <time>2022-08-07T07:54:52Z</time>
      </trkpt>
      <trkpt lat="44.08221" lon="3.40065">
        <ele>822.55</ele>
        <time>2022-08-07T07:55:05Z</time>
      </trkpt>
      <trkpt lat="44.08228" lon="3.40056">
        <ele>823.51</ele>
        <time>2022-08-07T07:55:17Z</time>
      </trkpt>
      <trkpt lat="44.08239" lon="3.40053">
        <ele>827.35</ele>
        <time>2022-08-07T07:55:29Z</time>
      </trkpt>
      <trkpt lat="44.08245" lon="3.40047">
        <ele>831.2</ele>
        <time>2022-08-07T07:55:40Z</time>
      </trkpt>
      <trkpt lat="44.08253" lon="3.40045">
        <ele>835.04</ele>
        <time>2022-08-07T07:55:55Z</time>
      </trkpt>
      <trkpt lat="44.08253" lon="3.4005">
        <ele>836.48</ele>
        <time>2022-08-07T07:56:01Z</time>
      </trkpt>
      <trkpt lat="44.08251" lon="3.40063">
        <ele>838.89</ele>
        <time>2022-08-07T07:56:16Z</time>
      </trkpt>
      <trkpt lat="44.08252" lon="3.40063">
        <ele>838.89</ele>
        <time>2022-08-07T07:56:28Z</time>
      </trkpt>
      <trkpt lat="44.08257" lon="3.40049">
        <ele>844.66</ele>
        <time>2022-08-07T07:56:58Z</time>
      </trkpt>
      <trkpt lat="44.08253" lon="3.40071">
        <ele>840.81</ele>
        <time>2022-08-07T07:57:15Z</time>
      </trkpt>
      <trkpt lat="44.08257" lon="3.40073">
        <ele>844.18</ele>
        <time>2022-08-07T07:57:27Z</time>
      </trkpt>
      <trkpt lat="44.08262" lon="3.40059">
        <ele>843.69</ele>
        <time>2022-08-07T07:57:40Z</time>
      </trkpt>
      <trkpt lat="44.0827" lon="3.40049">
        <ele>844.18</ele>
        <time>2022-08-07T07:57:54Z</time>
      </trkpt>
      <trkpt lat="44.08272" lon="3.40047">
        <ele>845.14</ele>
        <time>2022-08-07T07:57:57Z</time>
      </trkpt>
      <trkpt lat="44.08278" lon="3.4004">
        <ele>847.06</ele>
        <time>2022-08-07T07:58:10Z</time>
      </trkpt>
      <trkpt lat="44.08289" lon="3.40037">
        <ele>848.98</ele>
        <time>2022-08-07T07:58:23Z</time>
      </trkpt>
      <trkpt lat="44.08299" lon="3.4003">
        <ele>850.9</ele>
        <time>2022-08-07T07:58:37Z</time>
      </trkpt>
      <trkpt lat="44.08309" lon="3.40024">
        <ele>852.83</ele>
        <time>2022-08-07T07:58:51Z</time>
      </trkpt>
      <trkpt lat="44.0832" lon="3.40022">
        <ele>856.19</ele>
        <time>2022-08-07T07:59:02Z</time>
      </trkpt>
      <trkpt lat="44.08332" lon="3.40021">
        <ele>858.59</ele>
        <time>2022-08-07T07:59:14Z</time>
      </trkpt>
      <trkpt lat="44.08339" lon="3.40018">
        <ele>860.04</ele>
        <time>2022-08-07T07:59:22Z</time>
      </trkpt>
      <trkpt lat="44.08338" lon="3.40021">
        <ele>858.11</ele>
        <time>2022-08-07T07:59:34Z</time>
      </trkpt>
      <trkpt lat="44.08332" lon="3.40028">
        <ele>857.15</ele>
        <time>2022-08-07T07:59:41Z</time>
      </trkpt>
      <trkpt lat="44.08322" lon="3.40038">
        <ele>856.67</ele>
        <time>2022-08-07T07:59:56Z</time>
      </trkpt>
      <trkpt lat="44.08314" lon="3.4005">
        <ele>854.27</ele>
        <time>2022-08-07T08:00:09Z</time>
      </trkpt>
      <trkpt lat="44.08319" lon="3.40051">
        <ele>857.63</ele>
        <time>2022-08-07T08:00:19Z</time>
      </trkpt>
      <trkpt lat="44.08334" lon="3.4005">
        <ele>862.44</ele>
        <time>2022-08-07T08:00:32Z</time>
      </trkpt>
      <trkpt lat="44.08345" lon="3.40051">
        <ele>866.77</ele>
        <time>2022-08-07T08:00:45Z</time>
      </trkpt>
      <trkpt lat="44.08346" lon="3.40052">
        <ele>866.77</ele>
        <time>2022-08-07T08:00:46Z</time>
      </trkpt>
      <trkpt lat="44.08354" lon="3.40059">
        <ele>868.21</ele>
        <time>2022-08-07T08:01:00Z</time>
      </trkpt>
      <trkpt lat="44.08356" lon="3.40069">
        <ele>869.65</ele>
        <time>2022-08-07T08:01:13Z</time>
      </trkpt>
      <trkpt lat="44.08358" lon="3.40073">
        <ele>869.65</ele>
        <time>2022-08-07T08:01:17Z</time>
      </trkpt>
      <trkpt lat="44.08361" lon="3.40078">
        <ele>873.01</ele>
        <time>2022-08-07T08:01:28Z</time>
      </trkpt>
      <trkpt lat="44.08367" lon="3.40094">
        <ele>873.5</ele>
        <time>2022-08-07T08:01:41Z</time>
      </trkpt>
      <trkpt lat="44.0837" lon="3.40099">
        <ele>873.5</ele>
        <time>2022-08-07T08:01:46Z</time>
      </trkpt>
      <trkpt lat="44.08376" lon="3.40114">
        <ele>875.9</ele>
        <time>2022-08-07T08:01:59Z</time>
      </trkpt>
      <trkpt lat="44.08379" lon="3.4012">
        <ele>875.9</ele>
        <time>2022-08-07T08:02:04Z</time>
      </trkpt>
      <trkpt lat="44.08383" lon="3.40128">
        <ele>876.38</ele>
        <time>2022-08-07T08:02:15Z</time>
      </trkpt>
      <trkpt lat="44.08383" lon="3.40128">
        <ele>878.78</ele>
        <time>2022-08-07T08:02:28Z</time>
      </trkpt>
      <trkpt lat="44.08384" lon="3.40124">
        <ele>879.74</ele>
        <time>2022-08-07T08:02:40Z</time>
      </trkpt>
      <trkpt lat="44.08387" lon="3.40119">
        <ele>879.74</ele>
        <time>2022-08-07T08:02:43Z</time>
      </trkpt>
      <trkpt lat="44.08388" lon="3.40116">
        <ele>879.26</ele>
        <time>2022-08-07T08:02:47Z</time>
      </trkpt>
      <trkpt lat="44.08394" lon="3.40099">
        <ele>878.3</ele>
        <time>2022-08-07T08:03:01Z</time>
      </trkpt>
      <trkpt lat="44.084" lon="3.40087">
        <ele>877.82</ele>
        <time>2022-08-07T08:03:12Z</time>
      </trkpt>
      <trkpt lat="44.08404" lon="3.40077">
        <ele>876.86</ele>
        <time>2022-08-07T08:03:21Z</time>
      </trkpt>
      <trkpt lat="44.08412" lon="3.40061">
        <ele>877.82</ele>
        <time>2022-08-07T08:03:33Z</time>
      </trkpt>
      <trkpt lat="44.08415" lon="3.40057">
        <ele>878.3</ele>
        <time>2022-08-07T08:03:37Z</time>
      </trkpt>
      <trkpt lat="44.08424" lon="3.40044">
        <ele>879.26</ele>
        <time>2022-08-07T08:03:52Z</time>
      </trkpt>
      <trkpt lat="44.08437" lon="3.40036">
        <ele>878.3</ele>
        <time>2022-08-07T08:04:05Z</time>
      </trkpt>
      <trkpt lat="44.08446" lon="3.40039">
        <ele>878.78</ele>
        <time>2022-08-07T08:04:11Z</time>
      </trkpt>
      <trkpt lat="44.08458" lon="3.40048">
        <ele>876.38</ele>
        <time>2022-08-07T08:04:24Z</time>
      </trkpt>
      <trkpt lat="44.08463" lon="3.40055">
        <ele>874.94</ele>
        <time>2022-08-07T08:04:31Z</time>
      </trkpt>
      <trkpt lat="44.08472" lon="3.40074">
        <ele>874.94</ele>
        <time>2022-08-07T08:04:44Z</time>
      </trkpt>
      <trkpt lat="44.0848" lon="3.40086">
        <ele>873.01</ele>
        <time>2022-08-07T08:04:56Z</time>
      </trkpt>
      <trkpt lat="44.08486" lon="3.40101">
        <ele>871.09</ele>
        <time>2022-08-07T08:05:09Z</time>
      </trkpt>
      <trkpt lat="44.08491" lon="3.40112">
        <ele>867.25</ele>
        <time>2022-08-07T08:05:20Z</time>
      </trkpt>
      <trkpt lat="44.08494" lon="3.40121">
        <ele>862.44</ele>
        <time>2022-08-07T08:05:29Z</time>
      </trkpt>
      <trkpt lat="44.08499" lon="3.4013">
        <ele>857.15</ele>
        <time>2022-08-07T08:05:36Z</time>
      </trkpt>
      <trkpt lat="44.08509" lon="3.4015">
        <ele>856.19</ele>
        <time>2022-08-07T08:05:48Z</time>
      </trkpt>
      <trkpt lat="44.08517" lon="3.40164">
        <ele>854.27</ele>
        <time>2022-08-07T08:05:59Z</time>
      </trkpt>
      <trkpt lat="44.08519" lon="3.40168">
        <ele>854.27</ele>
        <time>2022-08-07T08:06:02Z</time>
      </trkpt>
      <trkpt lat="44.08523" lon="3.40173">
        <ele>854.75</ele>
        <time>2022-08-07T08:06:06Z</time>
      </trkpt>
      <trkpt lat="44.08529" lon="3.40184">
        <ele>854.75</ele>
        <time>2022-08-07T08:06:14Z</time>
      </trkpt>
      <trkpt lat="44.08536" lon="3.40199">
        <ele>856.67</ele>
        <time>2022-08-07T08:06:24Z</time>
      </trkpt>
      <trkpt lat="44.08544" lon="3.40217">
        <ele>857.15</ele>
        <time>2022-08-07T08:06:37Z</time>
      </trkpt>
      <trkpt lat="44.0855" lon="3.40234">
        <ele>854.75</ele>
        <time>2022-08-07T08:06:49Z</time>
      </trkpt>
      <trkpt lat="44.08556" lon="3.40247">
        <ele>850.9</ele>
        <time>2022-08-07T08:07:00Z</time>
      </trkpt>
      <trkpt lat="44.08564" lon="3.40259">
        <ele>849.46</ele>
        <time>2022-08-07T08:07:12Z</time>
      </trkpt>
      <trkpt lat="44.08569" lon="3.40262">
        <ele>848.98</ele>
        <time>2022-08-07T08:07:23Z</time>
      </trkpt>
      <trkpt lat="44.08577" lon="3.40272">
        <ele>847.06</ele>
        <time>2022-08-07T08:07:35Z</time>
      </trkpt>
      <trkpt lat="44.08586" lon="3.40288">
        <ele>843.21</ele>
        <time>2022-08-07T08:07:46Z</time>
      </trkpt>
      <trkpt lat="44.08591" lon="3.40297">
        <ele>841.29</ele>
        <time>2022-08-07T08:07:52Z</time>
      </trkpt>
      <trkpt lat="44.08594" lon="3.40313">
        <ele>840.81</ele>
        <time>2022-08-07T08:08:04Z</time>
      </trkpt>
      <trkpt lat="44.08603" lon="3.40318">
        <ele>843.69</ele>
        <time>2022-08-07T08:08:12Z</time>
      </trkpt>
      <trkpt lat="44.08613" lon="3.40304">
        <ele>842.73</ele>
        <time>2022-08-07T08:08:26Z</time>
      </trkpt>
      <trkpt lat="44.08614" lon="3.40301">
        <ele>842.73</ele>
        <time>2022-08-07T08:08:28Z</time>
      </trkpt>
      <trkpt lat="44.08619" lon="3.40286">
        <ele>842.25</ele>
        <time>2022-08-07T08:08:38Z</time>
      </trkpt>
      <trkpt lat="44.08621" lon="3.40271">
        <ele>842.73</ele>
        <time>2022-08-07T08:08:50Z</time>
      </trkpt>
      <trkpt lat="44.08622" lon="3.40264">
        <ele>844.18</ele>
        <time>2022-08-07T08:08:54Z</time>
      </trkpt>
      <trkpt lat="44.08627" lon="3.4024">
        <ele>845.62</ele>
        <time>2022-08-07T08:09:09Z</time>
      </trkpt>
      <trkpt lat="44.08633" lon="3.40217">
        <ele>841.77</ele>
        <time>2022-08-07T08:09:23Z</time>
      </trkpt>
      <trkpt lat="44.08639" lon="3.40196">
        <ele>837.45</ele>
        <time>2022-08-07T08:09:37Z</time>
      </trkpt>
      <trkpt lat="44.08642" lon="3.40188">
        <ele>835.52</ele>
        <time>2022-08-07T08:09:42Z</time>
      </trkpt>
      <trkpt lat="44.08646" lon="3.40181">
        <ele>834.56</ele>
        <time>2022-08-07T08:09:48Z</time>
      </trkpt>
      <trkpt lat="44.08658" lon="3.40166">
        <ele>836.48</ele>
        <time>2022-08-07T08:10:02Z</time>
      </trkpt>
      <trkpt lat="44.08667" lon="3.40155">
        <ele>834.56</ele>
        <time>2022-08-07T08:10:16Z</time>
      </trkpt>
      <trkpt lat="44.08673" lon="3.40146">
        <ele>831.2</ele>
        <time>2022-08-07T08:10:28Z</time>
      </trkpt>
      <trkpt lat="44.08682" lon="3.40142">
        <ele>826.87</ele>
        <time>2022-08-07T08:10:40Z</time>
      </trkpt>
      <trkpt lat="44.08698" lon="3.40151">
        <ele>822.06</ele>
        <time>2022-08-07T08:10:53Z</time>
      </trkpt>
      <trkpt lat="44.08704" lon="3.40164">
        <ele>817.74</ele>
        <time>2022-08-07T08:11:03Z</time>
      </trkpt>
      <trkpt lat="44.08704" lon="3.40182">
        <ele>812.45</ele>
        <time>2022-08-07T08:11:16Z</time>
      </trkpt>
      <trkpt lat="44.08705" lon="3.40202">
        <ele>810.53</ele>
        <time>2022-08-07T08:11:26Z</time>
      </trkpt>
      <trkpt lat="44.08707" lon="3.40206">
        <ele>809.57</ele>
        <time>2022-08-07T08:11:28Z</time>
      </trkpt>
      <trkpt lat="44.08709" lon="3.40223">
        <ele>806.68</ele>
        <time>2022-08-07T08:11:38Z</time>
      </trkpt>
      <trkpt lat="44.08712" lon="3.40234">
        <ele>810.05</ele>
        <time>2022-08-07T08:11:45Z</time>
      </trkpt>
      <trkpt lat="44.08716" lon="3.40253">
        <ele>811.97</ele>
        <time>2022-08-07T08:11:57Z</time>
      </trkpt>
      <trkpt lat="44.08717" lon="3.40255">
        <ele>812.45</ele>
        <time>2022-08-07T08:11:59Z</time>
      </trkpt>
      <trkpt lat="44.08718" lon="3.4026">
        <ele>813.89</ele>
        <time>2022-08-07T08:12:02Z</time>
      </trkpt>
      <trkpt lat="44.08721" lon="3.40268">
        <ele>815.82</ele>
        <time>2022-08-07T08:12:07Z</time>
      </trkpt>
      <trkpt lat="44.08726" lon="3.40286">
        <ele>817.74</ele>
        <time>2022-08-07T08:12:19Z</time>
      </trkpt>
      <trkpt lat="44.08732" lon="3.40296">
        <ele>816.3</ele>
        <time>2022-08-07T08:12:31Z</time>
      </trkpt>
      <trkpt lat="44.08735" lon="3.40313">
        <ele>813.41</ele>
        <time>2022-08-07T08:12:43Z</time>
      </trkpt>
      <trkpt lat="44.08738" lon="3.40319">
        <ele>813.89</ele>
        <time>2022-08-07T08:12:47Z</time>
      </trkpt>
      <trkpt lat="44.08745" lon="3.40341">
        <ele>815.34</ele>
        <time>2022-08-07T08:13:01Z</time>
      </trkpt>
      <trkpt lat="44.08752" lon="3.40357">
        <ele>813.89</ele>
        <time>2022-08-07T08:13:11Z</time>
      </trkpt>
      <trkpt lat="44.08753" lon="3.40361">
        <ele>813.89</ele>
        <time>2022-08-07T08:13:14Z</time>
      </trkpt>
      <trkpt lat="44.08757" lon="3.40378">
        <ele>813.41</ele>
        <time>2022-08-07T08:13:24Z</time>
      </trkpt>
      <trkpt lat="44.08768" lon="3.40397">
        <ele>813.89</ele>
        <time>2022-08-07T08:13:38Z</time>
      </trkpt>
      <trkpt lat="44.08771" lon="3.40409">
        <ele>813.41</ele>
        <time>2022-08-07T08:13:49Z</time>
      </trkpt>
      <trkpt lat="44.08772" lon="3.40423">
        <ele>811.01</ele>
        <time>2022-08-07T08:13:59Z</time>
      </trkpt>
      <trkpt lat="44.0877" lon="3.4044">
        <ele>810.05</ele>
        <time>2022-08-07T08:14:09Z</time>
      </trkpt>
      <trkpt lat="44.08772" lon="3.40455">
        <ele>810.53</ele>
        <time>2022-08-07T08:14:18Z</time>
      </trkpt>
      <trkpt lat="44.08773" lon="3.40471">
        <ele>810.05</ele>
        <time>2022-08-07T08:14:29Z</time>
      </trkpt>
      <trkpt lat="44.08778" lon="3.40484">
        <ele>811.01</ele>
        <time>2022-08-07T08:14:39Z</time>
      </trkpt>
      <trkpt lat="44.0878" lon="3.40488">
        <ele>811.49</ele>
        <time>2022-08-07T08:14:42Z</time>
      </trkpt>
      <trkpt lat="44.0879" lon="3.40504">
        <ele>811.97</ele>
        <time>2022-08-07T08:14:53Z</time>
      </trkpt>
      <trkpt lat="44.08799" lon="3.40522">
        <ele>810.05</ele>
        <time>2022-08-07T08:15:06Z</time>
      </trkpt>
      <trkpt lat="44.08799" lon="3.40523">
        <ele>809.09</ele>
        <time>2022-08-07T08:15:07Z</time>
      </trkpt>
      <trkpt lat="44.08809" lon="3.40536">
        <ele>804.28</ele>
        <time>2022-08-07T08:15:19Z</time>
      </trkpt>
      <trkpt lat="44.08818" lon="3.40547">
        <ele>800.92</ele>
        <time>2022-08-07T08:15:31Z</time>
      </trkpt>
      <trkpt lat="44.08822" lon="3.40552">
        <ele>800.92</ele>
        <time>2022-08-07T08:15:37Z</time>
      </trkpt>
      <trkpt lat="44.08831" lon="3.40561">
        <ele>800.92</ele>
        <time>2022-08-07T08:15:47Z</time>
      </trkpt>
      <trkpt lat="44.08839" lon="3.40569">
        <ele>798.99</ele>
        <time>2022-08-07T08:16:04Z</time>
      </trkpt>
      <trkpt lat="44.08847" lon="3.40583">
        <ele>798.03</ele>
        <time>2022-08-07T08:16:16Z</time>
      </trkpt>
      <trkpt lat="44.08851" lon="3.40588">
        <ele>798.03</ele>
        <time>2022-08-07T08:16:19Z</time>
      </trkpt>
      <trkpt lat="44.08856" lon="3.40597">
        <ele>798.03</ele>
        <time>2022-08-07T08:16:25Z</time>
      </trkpt>
      <trkpt lat="44.08868" lon="3.40611">
        <ele>800.44</ele>
        <time>2022-08-07T08:16:38Z</time>
      </trkpt>
      <trkpt lat="44.08879" lon="3.40624">
        <ele>800.92</ele>
        <time>2022-08-07T08:16:50Z</time>
      </trkpt>
      <trkpt lat="44.08891" lon="3.40638">
        <ele>800.44</ele>
        <time>2022-08-07T08:17:02Z</time>
      </trkpt>
      <trkpt lat="44.08899" lon="3.40649">
        <ele>801.4</ele>
        <time>2022-08-07T08:17:12Z</time>
      </trkpt>
      <trkpt lat="44.08913" lon="3.40664">
        <ele>801.4</ele>
        <time>2022-08-07T08:17:27Z</time>
      </trkpt>
      <trkpt lat="44.08917" lon="3.40666">
        <ele>800.92</ele>
        <time>2022-08-07T08:17:33Z</time>
      </trkpt>
      <trkpt lat="44.08932" lon="3.40673">
        <ele>801.4</ele>
        <time>2022-08-07T08:17:44Z</time>
      </trkpt>
      <trkpt lat="44.08939" lon="3.40689">
        <ele>798.51</ele>
        <time>2022-08-07T08:17:57Z</time>
      </trkpt>
      <trkpt lat="44.0894" lon="3.40691">
        <ele>798.03</ele>
        <time>2022-08-07T08:17:59Z</time>
      </trkpt>
      <trkpt lat="44.08944" lon="3.40695">
        <ele>797.55</ele>
        <time>2022-08-07T08:18:03Z</time>
      </trkpt>
      <trkpt lat="44.08941" lon="3.40711">
        <ele>795.63</ele>
        <time>2022-08-07T08:18:12Z</time>
      </trkpt>
      <trkpt lat="44.0894" lon="3.4072">
        <ele>795.63</ele>
        <time>2022-08-07T08:18:17Z</time>
      </trkpt>
      <trkpt lat="44.0894" lon="3.40727">
        <ele>795.15</ele>
        <time>2022-08-07T08:18:21Z</time>
      </trkpt>
      <trkpt lat="44.08943" lon="3.40745">
        <ele>793.22</ele>
        <time>2022-08-07T08:18:33Z</time>
      </trkpt>
      <trkpt lat="44.08943" lon="3.40762">
        <ele>789.86</ele>
        <time>2022-08-07T08:18:43Z</time>
      </trkpt>
      <trkpt lat="44.08943" lon="3.4078">
        <ele>783.61</ele>
        <time>2022-08-07T08:18:55Z</time>
      </trkpt>
      <trkpt lat="44.08945" lon="3.40798">
        <ele>779.77</ele>
        <time>2022-08-07T08:19:05Z</time>
      </trkpt>
      <trkpt lat="44.08945" lon="3.40816">
        <ele>776.4</ele>
        <time>2022-08-07T08:19:16Z</time>
      </trkpt>
      <trkpt lat="44.08942" lon="3.40831">
        <ele>771.6</ele>
        <time>2022-08-07T08:19:27Z</time>
      </trkpt>
      <trkpt lat="44.0894" lon="3.4085">
        <ele>766.31</ele>
        <time>2022-08-07T08:19:39Z</time>
      </trkpt>
      <trkpt lat="44.08938" lon="3.40864">
        <ele>767.27</ele>
        <time>2022-08-07T08:19:49Z</time>
      </trkpt>
      <trkpt lat="44.08939" lon="3.40887">
        <ele>771.11</ele>
        <time>2022-08-07T08:20:02Z</time>
      </trkpt>
      <trkpt lat="44.0894" lon="3.40904">
        <ele>775.92</ele>
        <time>2022-08-07T08:20:12Z</time>
      </trkpt>
      <trkpt lat="44.0894" lon="3.4093">
        <ele>781.21</ele>
        <time>2022-08-07T08:20:26Z</time>
      </trkpt>
      <trkpt lat="44.08941" lon="3.40946">
        <ele>780.25</ele>
        <time>2022-08-07T08:20:36Z</time>
      </trkpt>
      <trkpt lat="44.08939" lon="3.40967">
        <ele>780.73</ele>
        <time>2022-08-07T08:20:48Z</time>
      </trkpt>
      <trkpt lat="44.08938" lon="3.40987">
        <ele>781.69</ele>
        <time>2022-08-07T08:20:59Z</time>
      </trkpt>
      <trkpt lat="44.08932" lon="3.41004">
        <ele>777.36</ele>
        <time>2022-08-07T08:21:11Z</time>
      </trkpt>
      <trkpt lat="44.08925" lon="3.41014">
        <ele>775.92</ele>
        <time>2022-08-07T08:21:18Z</time>
      </trkpt>
      <trkpt lat="44.08922" lon="3.41033">
        <ele>774.96</ele>
        <time>2022-08-07T08:21:30Z</time>
      </trkpt>
      <trkpt lat="44.08921" lon="3.41048">
        <ele>769.19</ele>
        <time>2022-08-07T08:21:42Z</time>
      </trkpt>
      <trkpt lat="44.08922" lon="3.41062">
        <ele>766.31</ele>
        <time>2022-08-07T08:21:52Z</time>
      </trkpt>
      <trkpt lat="44.08924" lon="3.41076">
        <ele>762.94</ele>
        <time>2022-08-07T08:22:01Z</time>
      </trkpt>
      <trkpt lat="44.08925" lon="3.4109">
        <ele>766.31</ele>
        <time>2022-08-07T08:22:12Z</time>
      </trkpt>
      <trkpt lat="44.08927" lon="3.41108">
        <ele>767.27</ele>
        <time>2022-08-07T08:22:23Z</time>
      </trkpt>
      <trkpt lat="44.08927" lon="3.41112">
        <ele>766.31</ele>
        <time>2022-08-07T08:22:27Z</time>
      </trkpt>
      <trkpt lat="44.08927" lon="3.41127">
        <ele>763.42</ele>
        <time>2022-08-07T08:22:38Z</time>
      </trkpt>
      <trkpt lat="44.08926" lon="3.41147">
        <ele>762.94</ele>
        <time>2022-08-07T08:22:50Z</time>
      </trkpt>
      <trkpt lat="44.08924" lon="3.41157">
        <ele>759.58</ele>
        <time>2022-08-07T08:22:57Z</time>
      </trkpt>
      <trkpt lat="44.08918" lon="3.41167">
        <ele>758.14</ele>
        <time>2022-08-07T08:23:08Z</time>
      </trkpt>
      <trkpt lat="44.08917" lon="3.41177">
        <ele>758.62</ele>
        <time>2022-08-07T08:23:16Z</time>
      </trkpt>
      <trkpt lat="44.08919" lon="3.41188">
        <ele>763.42</ele>
        <time>2022-08-07T08:23:27Z</time>
      </trkpt>
      <trkpt lat="44.0892" lon="3.41191">
        <ele>768.71</ele>
        <time>2022-08-07T08:23:40Z</time>
      </trkpt>
      <trkpt lat="44.08924" lon="3.41191">
        <ele>770.15</ele>
        <time>2022-08-07T08:23:51Z</time>
      </trkpt>
      <trkpt lat="44.08923" lon="3.41183">
        <ele>771.6</ele>
        <time>2022-08-07T08:24:04Z</time>
      </trkpt>
      <trkpt lat="44.0892" lon="3.41185">
        <ele>773.04</ele>
        <time>2022-08-07T08:24:21Z</time>
      </trkpt>
      <trkpt lat="44.08921" lon="3.4119">
        <ele>774.96</ele>
        <time>2022-08-07T08:24:33Z</time>
      </trkpt>
      <trkpt lat="44.08925" lon="3.4119">
        <ele>775.44</ele>
        <time>2022-08-07T08:24:45Z</time>
      </trkpt>
      <trkpt lat="44.08923" lon="3.41184">
        <ele>774.48</ele>
        <time>2022-08-07T08:24:51Z</time>
      </trkpt>
      <trkpt lat="44.08925" lon="3.41173">
        <ele>769.67</ele>
        <time>2022-08-07T08:25:05Z</time>
      </trkpt>
      <trkpt lat="44.08932" lon="3.41168">
        <ele>768.23</ele>
        <time>2022-08-07T08:25:22Z</time>
      </trkpt>
      <trkpt lat="44.08936" lon="3.41166">
        <ele>768.71</ele>
        <time>2022-08-07T08:25:38Z</time>
      </trkpt>
      <trkpt lat="44.0894" lon="3.41161">
        <ele>766.31</ele>
        <time>2022-08-07T08:25:51Z</time>
      </trkpt>
      <trkpt lat="44.08942" lon="3.41156">
        <ele>768.23</ele>
        <time>2022-08-07T08:26:06Z</time>
      </trkpt>
      <trkpt lat="44.08946" lon="3.41156">
        <ele>771.6</ele>
        <time>2022-08-07T08:26:19Z</time>
      </trkpt>
      <trkpt lat="44.08947" lon="3.41149">
        <ele>774</ele>
        <time>2022-08-07T08:26:31Z</time>
      </trkpt>
      <trkpt lat="44.08952" lon="3.41146">
        <ele>775.92</ele>
        <time>2022-08-07T08:26:42Z</time>
      </trkpt>
      <trkpt lat="44.08953" lon="3.41135">
        <ele>779.77</ele>
        <time>2022-08-07T08:26:55Z</time>
      </trkpt>
      <trkpt lat="44.08953" lon="3.41125">
        <ele>783.13</ele>
        <time>2022-08-07T08:27:07Z</time>
      </trkpt>
      <trkpt lat="44.08955" lon="3.41125">
        <ele>785.05</ele>
        <time>2022-08-07T08:27:38Z</time>
      </trkpt>
      <trkpt lat="44.08961" lon="3.41114">
        <ele>787.94</ele>
        <time>2022-08-07T08:27:50Z</time>
      </trkpt>
      <trkpt lat="44.08963" lon="3.41113">
        <ele>787.46</ele>
        <time>2022-08-07T08:27:56Z</time>
      </trkpt>
      <trkpt lat="44.08971" lon="3.41107">
        <ele>789.86</ele>
        <time>2022-08-07T08:28:09Z</time>
      </trkpt>
      <trkpt lat="44.0898" lon="3.41098">
        <ele>787.94</ele>
        <time>2022-08-07T08:28:20Z</time>
      </trkpt>
      <trkpt lat="44.08988" lon="3.41096">
        <ele>786.98</ele>
        <time>2022-08-07T08:28:31Z</time>
      </trkpt>
      <trkpt lat="44.08997" lon="3.41092">
        <ele>788.42</ele>
        <time>2022-08-07T08:28:42Z</time>
      </trkpt>
      <trkpt lat="44.09009" lon="3.41087">
        <ele>791.78</ele>
        <time>2022-08-07T08:28:54Z</time>
      </trkpt>
      <trkpt lat="44.09015" lon="3.41077">
        <ele>794.19</ele>
        <time>2022-08-07T08:29:05Z</time>
      </trkpt>
      <trkpt lat="44.09017" lon="3.41073">
        <ele>794.19</ele>
        <time>2022-08-07T08:29:09Z</time>
      </trkpt>
      <trkpt lat="44.09025" lon="3.4106">
        <ele>793.22</ele>
        <time>2022-08-07T08:29:22Z</time>
      </trkpt>
      <trkpt lat="44.09036" lon="3.41046">
        <ele>794.19</ele>
        <time>2022-08-07T08:29:35Z</time>
      </trkpt>
      <trkpt lat="44.09047" lon="3.41035">
        <ele>795.63</ele>
        <time>2022-08-07T08:29:49Z</time>
      </trkpt>
      <trkpt lat="44.09047" lon="3.41034">
        <ele>795.63</ele>
        <time>2022-08-07T08:29:50Z</time>
      </trkpt>
      <trkpt lat="44.09058" lon="3.41025">
        <ele>798.99</ele>
        <time>2022-08-07T08:30:03Z</time>
      </trkpt>
      <trkpt lat="44.09068" lon="3.41016">
        <ele>798.99</ele>
        <time>2022-08-07T08:30:15Z</time>
      </trkpt>
      <trkpt lat="44.0908" lon="3.41007">
        <ele>798.51</ele>
        <time>2022-08-07T08:30:28Z</time>
      </trkpt>
      <trkpt lat="44.09092" lon="3.41">
        <ele>798.51</ele>
        <time>2022-08-07T08:30:41Z</time>
      </trkpt>
      <trkpt lat="44.09107" lon="3.40992">
        <ele>800.92</ele>
        <time>2022-08-07T08:30:54Z</time>
      </trkpt>
      <trkpt lat="44.09111" lon="3.40987">
        <ele>798.03</ele>
        <time>2022-08-07T08:31:03Z</time>
      </trkpt>
      <trkpt lat="44.09119" lon="3.40981">
        <ele>793.22</ele>
        <time>2022-08-07T08:31:15Z</time>
      </trkpt>
      <trkpt lat="44.0913" lon="3.40974">
        <ele>789.86</ele>
        <time>2022-08-07T08:31:27Z</time>
      </trkpt>
      <trkpt lat="44.09141" lon="3.40969">
        <ele>788.42</ele>
        <time>2022-08-07T08:31:37Z</time>
      </trkpt>
      <trkpt lat="44.09154" lon="3.40959">
        <ele>789.38</ele>
        <time>2022-08-07T08:31:46Z</time>
      </trkpt>
      <trkpt lat="44.09166" lon="3.40952">
        <ele>790.34</ele>
        <time>2022-08-07T08:31:59Z</time>
      </trkpt>
      <trkpt lat="44.09177" lon="3.40947">
        <ele>793.22</ele>
        <time>2022-08-07T08:32:11Z</time>
      </trkpt>
      <trkpt lat="44.09183" lon="3.40943">
        <ele>794.19</ele>
        <time>2022-08-07T08:32:18Z</time>
      </trkpt>
      <trkpt lat="44.09194" lon="3.40939">
        <ele>798.99</ele>
        <time>2022-08-07T08:32:32Z</time>
      </trkpt>
      <trkpt lat="44.09203" lon="3.40944">
        <ele>804.28</ele>
        <time>2022-08-07T08:32:43Z</time>
      </trkpt>
      <trkpt lat="44.09204" lon="3.40945">
        <ele>804.28</ele>
        <time>2022-08-07T08:32:45Z</time>
      </trkpt>
      <trkpt lat="44.0921" lon="3.40961">
        <ele>806.2</ele>
        <time>2022-08-07T08:32:58Z</time>
      </trkpt>
      <trkpt lat="44.09215" lon="3.40975">
        <ele>810.05</ele>
        <time>2022-08-07T08:33:10Z</time>
      </trkpt>
      <trkpt lat="44.0922" lon="3.40993">
        <ele>811.97</ele>
        <time>2022-08-07T08:33:23Z</time>
      </trkpt>
      <trkpt lat="44.09221" lon="3.4101">
        <ele>813.89</ele>
        <time>2022-08-07T08:33:35Z</time>
      </trkpt>
      <trkpt lat="44.09221" lon="3.41018">
        <ele>813.89</ele>
        <time>2022-08-07T08:33:44Z</time>
      </trkpt>
      <trkpt lat="44.0922" lon="3.4103">
        <ele>815.34</ele>
        <time>2022-08-07T08:33:54Z</time>
      </trkpt>
      <trkpt lat="44.09218" lon="3.41047">
        <ele>815.34</ele>
        <time>2022-08-07T08:34:06Z</time>
      </trkpt>
      <trkpt lat="44.09212" lon="3.41062">
        <ele>814.37</ele>
        <time>2022-08-07T08:34:16Z</time>
      </trkpt>
      <trkpt lat="44.09207" lon="3.41078">
        <ele>814.85</ele>
        <time>2022-08-07T08:34:25Z</time>
      </trkpt>
      <trkpt lat="44.09206" lon="3.41079">
        <ele>814.37</ele>
        <time>2022-08-07T08:34:37Z</time>
      </trkpt>
      <trkpt lat="44.09205" lon="3.41084">
        <ele>813.89</ele>
        <time>2022-08-07T08:34:52Z</time>
      </trkpt>
      <trkpt lat="44.09203" lon="3.41084">
        <ele>814.85</ele>
        <time>2022-08-07T08:35:06Z</time>
      </trkpt>
      <trkpt lat="44.09201" lon="3.41081">
        <ele>818.22</ele>
        <time>2022-08-07T08:35:18Z</time>
      </trkpt>
      <trkpt lat="44.09202" lon="3.41083">
        <ele>821.58</ele>
        <time>2022-08-07T08:35:32Z</time>
      </trkpt>
      <trkpt lat="44.09201" lon="3.41084">
        <ele>823.03</ele>
        <time>2022-08-07T08:35:46Z</time>
      </trkpt>
      <trkpt lat="44.09201" lon="3.41077">
        <ele>821.1</ele>
        <time>2022-08-07T08:36:14Z</time>
      </trkpt>
      <trkpt lat="44.09201" lon="3.4109">
        <ele>822.55</ele>
        <time>2022-08-07T08:36:28Z</time>
      </trkpt>
      <trkpt lat="44.092" lon="3.41094">
        <ele>821.58</ele>
        <time>2022-08-07T08:36:30Z</time>
      </trkpt>
      <trkpt lat="44.09198" lon="3.4111">
        <ele>819.66</ele>
        <time>2022-08-07T08:36:42Z</time>
      </trkpt>
      <trkpt lat="44.09194" lon="3.41133">
        <ele>822.06</ele>
        <time>2022-08-07T08:36:54Z</time>
      </trkpt>
      <trkpt lat="44.09192" lon="3.41149">
        <ele>820.62</ele>
        <time>2022-08-07T08:37:06Z</time>
      </trkpt>
      <trkpt lat="44.09192" lon="3.41156">
        <ele>819.18</ele>
        <time>2022-08-07T08:37:10Z</time>
      </trkpt>
      <trkpt lat="44.09189" lon="3.41173">
        <ele>819.18</ele>
        <time>2022-08-07T08:37:21Z</time>
      </trkpt>
      <trkpt lat="44.09182" lon="3.41188">
        <ele>819.18</ele>
        <time>2022-08-07T08:37:33Z</time>
      </trkpt>
      <trkpt lat="44.09178" lon="3.41205">
        <ele>819.66</ele>
        <time>2022-08-07T08:37:47Z</time>
      </trkpt>
      <trkpt lat="44.09176" lon="3.41225">
        <ele>822.06</ele>
        <time>2022-08-07T08:38:00Z</time>
      </trkpt>
      <trkpt lat="44.09176" lon="3.41241">
        <ele>821.58</ele>
        <time>2022-08-07T08:38:12Z</time>
      </trkpt>
      <trkpt lat="44.09173" lon="3.41254">
        <ele>821.1</ele>
        <time>2022-08-07T08:38:24Z</time>
      </trkpt>
      <trkpt lat="44.0917" lon="3.41273">
        <ele>822.06</ele>
        <time>2022-08-07T08:38:37Z</time>
      </trkpt>
      <trkpt lat="44.09167" lon="3.41283">
        <ele>821.58</ele>
        <time>2022-08-07T08:38:46Z</time>
      </trkpt>
      <trkpt lat="44.09171" lon="3.41297">
        <ele>823.99</ele>
        <time>2022-08-07T08:38:56Z</time>
      </trkpt>
      <trkpt lat="44.09171" lon="3.41317">
        <ele>823.03</ele>
        <time>2022-08-07T08:39:10Z</time>
      </trkpt>
      <trkpt lat="44.09173" lon="3.41337">
        <ele>828.31</ele>
        <time>2022-08-07T08:39:23Z</time>
      </trkpt>
      <trkpt lat="44.09174" lon="3.41351">
        <ele>834.08</ele>
        <time>2022-08-07T08:39:34Z</time>
      </trkpt>
      <trkpt lat="44.09177" lon="3.41367">
        <ele>835.52</ele>
        <time>2022-08-07T08:39:49Z</time>
      </trkpt>
      <trkpt lat="44.09183" lon="3.41367">
        <ele>837.93</ele>
        <time>2022-08-07T08:39:59Z</time>
      </trkpt>
      <trkpt lat="44.09195" lon="3.41358">
        <ele>837.93</ele>
        <time>2022-08-07T08:40:10Z</time>
      </trkpt>
      <trkpt lat="44.09199" lon="3.41344">
        <ele>840.81</ele>
        <time>2022-08-07T08:40:21Z</time>
      </trkpt>
      <trkpt lat="44.09208" lon="3.41329">
        <ele>841.77</ele>
        <time>2022-08-07T08:40:35Z</time>
      </trkpt>
      <trkpt lat="44.09208" lon="3.41327">
        <ele>841.77</ele>
        <time>2022-08-07T08:40:36Z</time>
      </trkpt>
      <trkpt lat="44.09212" lon="3.41311">
        <ele>842.25</ele>
        <time>2022-08-07T08:40:49Z</time>
      </trkpt>
      <trkpt lat="44.09215" lon="3.41306">
        <ele>842.73</ele>
        <time>2022-08-07T08:40:54Z</time>
      </trkpt>
      <trkpt lat="44.09224" lon="3.41294">
        <ele>843.21</ele>
        <time>2022-08-07T08:41:05Z</time>
      </trkpt>
      <trkpt lat="44.09232" lon="3.41285">
        <ele>843.69</ele>
        <time>2022-08-07T08:41:17Z</time>
      </trkpt>
      <trkpt lat="44.0924" lon="3.4128">
        <ele>843.69</ele>
        <time>2022-08-07T08:41:29Z</time>
      </trkpt>
      <trkpt lat="44.09252" lon="3.41278">
        <ele>843.21</ele>
        <time>2022-08-07T08:41:41Z</time>
      </trkpt>
      <trkpt lat="44.09264" lon="3.41277">
        <ele>844.18</ele>
        <time>2022-08-07T08:41:55Z</time>
      </trkpt>
      <trkpt lat="44.09277" lon="3.41279">
        <ele>846.58</ele>
        <time>2022-08-07T08:42:08Z</time>
      </trkpt>
      <trkpt lat="44.09288" lon="3.41282">
        <ele>845.62</ele>
        <time>2022-08-07T08:42:21Z</time>
      </trkpt>
      <trkpt lat="44.09298" lon="3.41286">
        <ele>845.62</ele>
        <time>2022-08-07T08:42:34Z</time>
      </trkpt>
      <trkpt lat="44.09314" lon="3.41294">
        <ele>843.21</ele>
        <time>2022-08-07T08:42:46Z</time>
      </trkpt>
      <trkpt lat="44.09327" lon="3.41303">
        <ele>842.73</ele>
        <time>2022-08-07T08:42:58Z</time>
      </trkpt>
      <trkpt lat="44.09335" lon="3.41305">
        <ele>840.81</ele>
        <time>2022-08-07T08:43:10Z</time>
      </trkpt>
      <trkpt lat="44.09351" lon="3.41314">
        <ele>839.85</ele>
        <time>2022-08-07T08:43:22Z</time>
      </trkpt>
      <trkpt lat="44.09361" lon="3.41319">
        <ele>842.73</ele>
        <time>2022-08-07T08:43:32Z</time>
      </trkpt>
      <trkpt lat="44.09364" lon="3.41319">
        <ele>843.21</ele>
        <time>2022-08-07T08:43:37Z</time>
      </trkpt>
      <trkpt lat="44.09376" lon="3.41321">
        <ele>842.73</ele>
        <time>2022-08-07T08:43:47Z</time>
      </trkpt>
      <trkpt lat="44.09392" lon="3.41323">
        <ele>844.66</ele>
        <time>2022-08-07T08:44:02Z</time>
      </trkpt>
      <trkpt lat="44.09398" lon="3.41329">
        <ele>846.58</ele>
        <time>2022-08-07T08:44:07Z</time>
      </trkpt>
      <trkpt lat="44.09413" lon="3.41337">
        <ele>851.87</ele>
        <time>2022-08-07T08:44:18Z</time>
      </trkpt>
      <trkpt lat="44.09427" lon="3.41344">
        <ele>854.27</ele>
        <time>2022-08-07T08:44:31Z</time>
      </trkpt>
      <trkpt lat="44.09442" lon="3.41349">
        <ele>859.08</ele>
        <time>2022-08-07T08:44:46Z</time>
      </trkpt>
      <trkpt lat="44.09455" lon="3.41356">
        <ele>862.92</ele>
        <time>2022-08-07T08:44:59Z</time>
      </trkpt>
      <trkpt lat="44.09461" lon="3.41358">
        <ele>863.88</ele>
        <time>2022-08-07T08:45:14Z</time>
      </trkpt>
      <trkpt lat="44.09467" lon="3.41363">
        <ele>863.4</ele>
        <time>2022-08-07T08:45:27Z</time>
      </trkpt>
      <trkpt lat="44.09474" lon="3.41366">
        <ele>864.84</ele>
        <time>2022-08-07T08:45:38Z</time>
      </trkpt>
      <trkpt lat="44.09474" lon="3.41362">
        <ele>864.84</ele>
        <time>2022-08-07T08:45:54Z</time>
      </trkpt>
      <trkpt lat="44.09476" lon="3.41359">
        <ele>866.77</ele>
        <time>2022-08-07T08:46:15Z</time>
      </trkpt>
      <trkpt lat="44.09479" lon="3.4136">
        <ele>870.61</ele>
        <time>2022-08-07T08:46:42Z</time>
      </trkpt>
      <trkpt lat="44.09476" lon="3.41354">
        <ele>871.09</ele>
        <time>2022-08-07T08:47:16Z</time>
      </trkpt>
      <trkpt lat="44.09475" lon="3.41356">
        <ele>873.5</ele>
        <time>2022-08-07T08:47:46Z</time>
      </trkpt>
      <trkpt lat="44.09483" lon="3.41355">
        <ele>874.46</ele>
        <time>2022-08-07T08:48:16Z</time>
      </trkpt>
      <trkpt lat="44.09479" lon="3.41357">
        <ele>874.94</ele>
        <time>2022-08-07T08:48:44Z</time>
      </trkpt>
      <trkpt lat="44.09486" lon="3.41364">
        <ele>876.38</ele>
        <time>2022-08-07T08:49:11Z</time>
      </trkpt>
      <trkpt lat="44.09483" lon="3.41364">
        <ele>878.3</ele>
        <time>2022-08-07T08:49:39Z</time>
      </trkpt>
      <trkpt lat="44.09482" lon="3.41359">
        <ele>876.86</ele>
        <time>2022-08-07T08:50:12Z</time>
      </trkpt>
      <trkpt lat="44.09482" lon="3.41358">
        <ele>870.13</ele>
        <time>2022-08-07T08:50:40Z</time>
      </trkpt>
      <trkpt lat="44.09482" lon="3.41358">
        <ele>868.69</ele>
        <time>2022-08-07T08:51:08Z</time>
      </trkpt>
      <trkpt lat="44.09484" lon="3.41358">
        <ele>865.8</ele>
        <time>2022-08-07T08:51:39Z</time>
      </trkpt>
      <trkpt lat="44.09491" lon="3.41357">
        <ele>866.77</ele>
        <time>2022-08-07T08:52:18Z</time>
      </trkpt>
      <trkpt lat="44.09483" lon="3.41362">
        <ele>869.17</ele>
        <time>2022-08-07T08:53:08Z</time>
      </trkpt>
      <trkpt lat="44.09479" lon="3.41364">
        <ele>870.61</ele>
        <time>2022-08-07T08:53:42Z</time>
      </trkpt>
      <trkpt lat="44.09479" lon="3.41361">
        <ele>872.53</ele>
        <time>2022-08-07T08:54:06Z</time>
      </trkpt>
      <trkpt lat="44.09481" lon="3.41359">
        <ele>871.09</ele>
        <time>2022-08-07T08:54:33Z</time>
      </trkpt>
      <trkpt lat="44.0948" lon="3.41354">
        <ele>872.05</ele>
        <time>2022-08-07T08:55:03Z</time>
      </trkpt>
      <trkpt lat="44.0948" lon="3.41352">
        <ele>876.38</ele>
        <time>2022-08-07T08:55:33Z</time>
      </trkpt>
      <trkpt lat="44.0948" lon="3.41353">
        <ele>874.46</ele>
        <time>2022-08-07T08:56:00Z</time>
      </trkpt>
      <trkpt lat="44.09481" lon="3.41357">
        <ele>873.98</ele>
        <time>2022-08-07T08:56:22Z</time>
      </trkpt>
      <trkpt lat="44.09489" lon="3.4135">
        <ele>877.34</ele>
        <time>2022-08-07T08:56:54Z</time>
      </trkpt>
      <trkpt lat="44.0948" lon="3.41354">
        <ele>878.78</ele>
        <time>2022-08-07T08:57:27Z</time>
      </trkpt>
      <trkpt lat="44.0948" lon="3.41358">
        <ele>878.78</ele>
        <time>2022-08-07T08:57:52Z</time>
      </trkpt>
      <trkpt lat="44.09488" lon="3.4136">
        <ele>881.19</ele>
        <time>2022-08-07T08:58:18Z</time>
      </trkpt>
      <trkpt lat="44.09487" lon="3.41362">
        <ele>878.78</ele>
        <time>2022-08-07T08:58:41Z</time>
      </trkpt>
      <trkpt lat="44.09484" lon="3.41359">
        <ele>879.26</ele>
        <time>2022-08-07T08:59:07Z</time>
      </trkpt>
      <trkpt lat="44.09488" lon="3.41357">
        <ele>877.34</ele>
        <time>2022-08-07T08:59:31Z</time>
      </trkpt>
      <trkpt lat="44.0949" lon="3.41359">
        <ele>873.01</ele>
        <time>2022-08-07T09:00:02Z</time>
      </trkpt>
      <trkpt lat="44.09486" lon="3.41359">
        <ele>867.73</ele>
        <time>2022-08-07T09:00:31Z</time>
      </trkpt>
      <trkpt lat="44.09484" lon="3.41353">
        <ele>866.77</ele>
        <time>2022-08-07T09:00:44Z</time>
      </trkpt>
      <trkpt lat="44.09483" lon="3.41352">
        <ele>873.01</ele>
        <time>2022-08-07T09:01:05Z</time>
      </trkpt>
      <trkpt lat="44.09484" lon="3.41346">
        <ele>873.98</ele>
        <time>2022-08-07T09:01:28Z</time>
      </trkpt>
      <trkpt lat="44.09485" lon="3.41353">
        <ele>873.01</ele>
        <time>2022-08-07T09:01:42Z</time>
      </trkpt>
      <trkpt lat="44.09497" lon="3.41359">
        <ele>870.61</ele>
        <time>2022-08-07T09:01:54Z</time>
      </trkpt>
      <trkpt lat="44.09505" lon="3.4136">
        <ele>869.17</ele>
        <time>2022-08-07T09:02:05Z</time>
      </trkpt>
      <trkpt lat="44.09509" lon="3.41362">
        <ele>869.17</ele>
        <time>2022-08-07T09:02:08Z</time>
      </trkpt>
      <trkpt lat="44.09519" lon="3.41361">
        <ele>870.61</ele>
        <time>2022-08-07T09:02:20Z</time>
      </trkpt>
      <trkpt lat="44.0953" lon="3.41362">
        <ele>870.13</ele>
        <time>2022-08-07T09:02:31Z</time>
      </trkpt>
      <trkpt lat="44.09537" lon="3.41363">
        <ele>868.21</ele>
        <time>2022-08-07T09:02:39Z</time>
      </trkpt>
      <trkpt lat="44.09549" lon="3.41369">
        <ele>864.36</ele>
        <time>2022-08-07T09:02:53Z</time>
      </trkpt>
      <trkpt lat="44.09554" lon="3.41382">
        <ele>864.84</ele>
        <time>2022-08-07T09:03:05Z</time>
      </trkpt>
      <trkpt lat="44.09564" lon="3.41404">
        <ele>863.4</ele>
        <time>2022-08-07T09:03:22Z</time>
      </trkpt>
      <trkpt lat="44.09566" lon="3.41407">
        <ele>863.88</ele>
        <time>2022-08-07T09:03:25Z</time>
      </trkpt>
      <trkpt lat="44.09569" lon="3.41416">
        <ele>864.36</ele>
        <time>2022-08-07T09:03:30Z</time>
      </trkpt>
      <trkpt lat="44.09571" lon="3.41434">
        <ele>867.25</ele>
        <time>2022-08-07T09:03:41Z</time>
      </trkpt>
      <trkpt lat="44.09573" lon="3.4145">
        <ele>872.53</ele>
        <time>2022-08-07T09:03:53Z</time>
      </trkpt>
      <trkpt lat="44.09579" lon="3.41456">
        <ele>874.94</ele>
        <time>2022-08-07T09:04:08Z</time>
      </trkpt>
      <trkpt lat="44.09581" lon="3.41477">
        <ele>877.34</ele>
        <time>2022-08-07T09:04:19Z</time>
      </trkpt>
      <trkpt lat="44.09586" lon="3.41495">
        <ele>881.67</ele>
        <time>2022-08-07T09:04:29Z</time>
      </trkpt>
      <trkpt lat="44.09586" lon="3.415">
        <ele>882.15</ele>
        <time>2022-08-07T09:04:37Z</time>
      </trkpt>
      <trkpt lat="44.09591" lon="3.41513">
        <ele>881.67</ele>
        <time>2022-08-07T09:04:48Z</time>
      </trkpt>
      <trkpt lat="44.09593" lon="3.41524">
        <ele>879.26</ele>
        <time>2022-08-07T09:05:01Z</time>
      </trkpt>
      <trkpt lat="44.09598" lon="3.41534">
        <ele>877.34</ele>
        <time>2022-08-07T09:05:13Z</time>
      </trkpt>
      <trkpt lat="44.09596" lon="3.41566">
        <ele>875.9</ele>
        <time>2022-08-07T09:05:25Z</time>
      </trkpt>
      <trkpt lat="44.09597" lon="3.41578">
        <ele>875.9</ele>
        <time>2022-08-07T09:05:31Z</time>
      </trkpt>
      <trkpt lat="44.096" lon="3.41601">
        <ele>880.71</ele>
        <time>2022-08-07T09:05:44Z</time>
      </trkpt>
      <trkpt lat="44.09605" lon="3.41613">
        <ele>882.63</ele>
        <time>2022-08-07T09:05:54Z</time>
      </trkpt>
      <trkpt lat="44.09609" lon="3.41628">
        <ele>884.07</ele>
        <time>2022-08-07T09:06:05Z</time>
      </trkpt>
      <trkpt lat="44.0961" lon="3.41648">
        <ele>885.03</ele>
        <time>2022-08-07T09:06:15Z</time>
      </trkpt>
      <trkpt lat="44.09615" lon="3.41653">
        <ele>887.43</ele>
        <time>2022-08-07T09:06:18Z</time>
      </trkpt>
      <trkpt lat="44.09625" lon="3.41667">
        <ele>891.76</ele>
        <time>2022-08-07T09:06:28Z</time>
      </trkpt>
      <trkpt lat="44.09627" lon="3.4167">
        <ele>890.32</ele>
        <time>2022-08-07T09:06:31Z</time>
      </trkpt>
      <trkpt lat="44.09628" lon="3.41685">
        <ele>891.28</ele>
        <time>2022-08-07T09:06:41Z</time>
      </trkpt>
      <trkpt lat="44.09633" lon="3.41698">
        <ele>891.76</ele>
        <time>2022-08-07T09:06:51Z</time>
      </trkpt>
      <trkpt lat="44.09635" lon="3.41717">
        <ele>888.4</ele>
        <time>2022-08-07T09:07:03Z</time>
      </trkpt>
      <trkpt lat="44.09628" lon="3.41736">
        <ele>884.55</ele>
        <time>2022-08-07T09:07:16Z</time>
      </trkpt>
      <trkpt lat="44.09628" lon="3.4175">
        <ele>883.59</ele>
        <time>2022-08-07T09:07:24Z</time>
      </trkpt>
      <trkpt lat="44.09623" lon="3.41767">
        <ele>884.55</ele>
        <time>2022-08-07T09:07:33Z</time>
      </trkpt>
      <trkpt lat="44.09621" lon="3.41775">
        <ele>884.07</ele>
        <time>2022-08-07T09:07:41Z</time>
      </trkpt>
      <trkpt lat="44.0962" lon="3.4179">
        <ele>883.59</ele>
        <time>2022-08-07T09:07:51Z</time>
      </trkpt>
      <trkpt lat="44.09616" lon="3.41804">
        <ele>883.11</ele>
        <time>2022-08-07T09:08:01Z</time>
      </trkpt>
      <trkpt lat="44.09611" lon="3.41819">
        <ele>883.59</ele>
        <time>2022-08-07T09:08:11Z</time>
      </trkpt>
      <trkpt lat="44.09608" lon="3.41828">
        <ele>883.11</ele>
        <time>2022-08-07T09:08:19Z</time>
      </trkpt>
      <trkpt lat="44.09606" lon="3.41852">
        <ele>884.55</ele>
        <time>2022-08-07T09:08:31Z</time>
      </trkpt>
      <trkpt lat="44.09605" lon="3.41874">
        <ele>884.07</ele>
        <time>2022-08-07T09:08:44Z</time>
      </trkpt>
      <trkpt lat="44.096" lon="3.41895">
        <ele>884.55</ele>
        <time>2022-08-07T09:08:58Z</time>
      </trkpt>
      <trkpt lat="44.09598" lon="3.41909">
        <ele>885.51</ele>
        <time>2022-08-07T09:09:11Z</time>
      </trkpt>
      <trkpt lat="44.096" lon="3.41916">
        <ele>885.03</ele>
        <time>2022-08-07T09:09:29Z</time>
      </trkpt>
      <trkpt lat="44.0961" lon="3.4193">
        <ele>884.55</ele>
        <time>2022-08-07T09:09:46Z</time>
      </trkpt>
      <trkpt lat="44.09617" lon="3.41926">
        <ele>884.07</ele>
        <time>2022-08-07T09:10:02Z</time>
      </trkpt>
      <trkpt lat="44.09624" lon="3.4192">
        <ele>884.55</ele>
        <time>2022-08-07T09:10:08Z</time>
      </trkpt>
      <trkpt lat="44.09638" lon="3.41911">
        <ele>885.51</ele>
        <time>2022-08-07T09:10:19Z</time>
      </trkpt>
      <trkpt lat="44.09641" lon="3.41908">
        <ele>886.95</ele>
        <time>2022-08-07T09:10:30Z</time>
      </trkpt>
      <trkpt lat="44.09647" lon="3.41902">
        <ele>888.88</ele>
        <time>2022-08-07T09:10:40Z</time>
      </trkpt>
      <trkpt lat="44.09649" lon="3.41891">
        <ele>885.99</ele>
        <time>2022-08-07T09:10:52Z</time>
      </trkpt>
      <trkpt lat="44.09656" lon="3.41883">
        <ele>885.51</ele>
        <time>2022-08-07T09:11:02Z</time>
      </trkpt>
      <trkpt lat="44.09665" lon="3.41877">
        <ele>885.51</ele>
        <time>2022-08-07T09:11:11Z</time>
      </trkpt>
      <trkpt lat="44.09674" lon="3.4187">
        <ele>885.03</ele>
        <time>2022-08-07T09:11:18Z</time>
      </trkpt>
      <trkpt lat="44.09684" lon="3.41859">
        <ele>885.03</ele>
        <time>2022-08-07T09:11:29Z</time>
      </trkpt>
      <trkpt lat="44.09688" lon="3.41849">
        <ele>884.55</ele>
        <time>2022-08-07T09:11:39Z</time>
      </trkpt>
      <trkpt lat="44.09694" lon="3.41845">
        <ele>884.07</ele>
        <time>2022-08-07T09:11:45Z</time>
      </trkpt>
      <trkpt lat="44.09701" lon="3.41843">
        <ele>884.07</ele>
        <time>2022-08-07T09:11:51Z</time>
      </trkpt>
      <trkpt lat="44.0971" lon="3.41841">
        <ele>890.8</ele>
        <time>2022-08-07T09:11:56Z</time>
      </trkpt>
      <trkpt lat="44.09719" lon="3.41832">
        <ele>886.95</ele>
        <time>2022-08-07T09:12:07Z</time>
      </trkpt>
      <trkpt lat="44.09714" lon="3.41813">
        <ele>887.43</ele>
        <time>2022-08-07T09:12:23Z</time>
      </trkpt>
      <trkpt lat="44.09714" lon="3.41812">
        <ele>887.91</ele>
        <time>2022-08-07T09:12:24Z</time>
      </trkpt>
      <trkpt lat="44.09719" lon="3.41799">
        <ele>890.8</ele>
        <time>2022-08-07T09:12:37Z</time>
      </trkpt>
      <trkpt lat="44.09721" lon="3.41795">
        <ele>891.28</ele>
        <time>2022-08-07T09:12:41Z</time>
      </trkpt>
      <trkpt lat="44.09725" lon="3.41792">
        <ele>890.8</ele>
        <time>2022-08-07T09:12:53Z</time>
      </trkpt>
      <trkpt lat="44.09727" lon="3.41793">
        <ele>891.28</ele>
        <time>2022-08-07T09:13:08Z</time>
      </trkpt>
      <trkpt lat="44.09728" lon="3.4179">
        <ele>891.76</ele>
        <time>2022-08-07T09:13:24Z</time>
      </trkpt>
      <trkpt lat="44.09726" lon="3.41791">
        <ele>893.2</ele>
        <time>2022-08-07T09:13:43Z</time>
      </trkpt>
      <trkpt lat="44.09726" lon="3.41792">
        <ele>892.72</ele>
        <time>2022-08-07T09:14:00Z</time>
      </trkpt>
      <trkpt lat="44.09729" lon="3.41791">
        <ele>893.2</ele>
        <time>2022-08-07T09:14:26Z</time>
      </trkpt>
      <trkpt lat="44.09729" lon="3.41792">
        <ele>894.16</ele>
        <time>2022-08-07T09:14:54Z</time>
      </trkpt>
      <trkpt lat="44.09727" lon="3.41791">
        <ele>895.12</ele>
        <time>2022-08-07T09:15:09Z</time>
      </trkpt>
      <trkpt lat="44.09727" lon="3.41791">
        <ele>896.57</ele>
        <time>2022-08-07T09:15:24Z</time>
      </trkpt>
      <trkpt lat="44.09726" lon="3.41791">
        <ele>896.09</ele>
        <time>2022-08-07T09:15:33Z</time>
      </trkpt>
      <trkpt lat="44.09727" lon="3.41787">
        <ele>896.09</ele>
        <time>2022-08-07T09:15:49Z</time>
      </trkpt>
      <trkpt lat="44.09734" lon="3.41775">
        <ele>894.64</ele>
        <time>2022-08-07T09:16:01Z</time>
      </trkpt>
      <trkpt lat="44.09736" lon="3.41771">
        <ele>894.64</ele>
        <time>2022-08-07T09:16:05Z</time>
      </trkpt>
      <trkpt lat="44.09743" lon="3.4176">
        <ele>894.64</ele>
        <time>2022-08-07T09:16:17Z</time>
      </trkpt>
      <trkpt lat="44.09748" lon="3.41753">
        <ele>894.64</ele>
        <time>2022-08-07T09:16:23Z</time>
      </trkpt>
      <trkpt lat="44.0976" lon="3.41737">
        <ele>895.61</ele>
        <time>2022-08-07T09:16:36Z</time>
      </trkpt>
      <trkpt lat="44.09769" lon="3.4173">
        <ele>895.61</ele>
        <time>2022-08-07T09:16:47Z</time>
      </trkpt>
      <trkpt lat="44.09779" lon="3.41714">
        <ele>896.09</ele>
        <time>2022-08-07T09:17:01Z</time>
      </trkpt>
      <trkpt lat="44.09775" lon="3.41699">
        <ele>896.09</ele>
        <time>2022-08-07T09:17:13Z</time>
      </trkpt>
      <trkpt lat="44.09772" lon="3.41694">
        <ele>896.57</ele>
        <time>2022-08-07T09:17:17Z</time>
      </trkpt>
      <trkpt lat="44.09766" lon="3.41675">
        <ele>897.05</ele>
        <time>2022-08-07T09:17:30Z</time>
      </trkpt>
      <trkpt lat="44.09762" lon="3.41664">
        <ele>897.53</ele>
        <time>2022-08-07T09:17:36Z</time>
      </trkpt>
      <trkpt lat="44.09764" lon="3.41648">
        <ele>898.01</ele>
        <time>2022-08-07T09:17:47Z</time>
      </trkpt>
      <trkpt lat="44.09765" lon="3.41646">
        <ele>898.01</ele>
        <time>2022-08-07T09:17:49Z</time>
      </trkpt>
      <trkpt lat="44.09772" lon="3.41628">
        <ele>899.93</ele>
        <time>2022-08-07T09:18:03Z</time>
      </trkpt>
      <trkpt lat="44.09778" lon="3.4162">
        <ele>900.89</ele>
        <time>2022-08-07T09:18:10Z</time>
      </trkpt>
      <trkpt lat="44.09786" lon="3.416">
        <ele>903.78</ele>
        <time>2022-08-07T09:18:24Z</time>
      </trkpt>
      <trkpt lat="44.09788" lon="3.41585">
        <ele>903.3</ele>
        <time>2022-08-07T09:18:35Z</time>
      </trkpt>
      <trkpt lat="44.09789" lon="3.41575">
        <ele>903.3</ele>
        <time>2022-08-07T09:18:42Z</time>
      </trkpt>
      <trkpt lat="44.09792" lon="3.41553">
        <ele>904.26</ele>
        <time>2022-08-07T09:18:55Z</time>
      </trkpt>
      <trkpt lat="44.09801" lon="3.41531">
        <ele>905.7</ele>
        <time>2022-08-07T09:19:08Z</time>
      </trkpt>
      <trkpt lat="44.09805" lon="3.41514">
        <ele>907.62</ele>
        <time>2022-08-07T09:19:21Z</time>
      </trkpt>
      <trkpt lat="44.09811" lon="3.41497">
        <ele>909.06</ele>
        <time>2022-08-07T09:19:34Z</time>
      </trkpt>
      <trkpt lat="44.09814" lon="3.41486">
        <ele>910.03</ele>
        <time>2022-08-07T09:19:42Z</time>
      </trkpt>
      <trkpt lat="44.09817" lon="3.41465">
        <ele>910.99</ele>
        <time>2022-08-07T09:19:54Z</time>
      </trkpt>
      <trkpt lat="44.09816" lon="3.41446">
        <ele>911.47</ele>
        <time>2022-08-07T09:20:05Z</time>
      </trkpt>
      <trkpt lat="44.09815" lon="3.4144">
        <ele>911.47</ele>
        <time>2022-08-07T09:20:09Z</time>
      </trkpt>
      <trkpt lat="44.09813" lon="3.41418">
        <ele>911.47</ele>
        <time>2022-08-07T09:20:23Z</time>
      </trkpt>
      <trkpt lat="44.09815" lon="3.41406">
        <ele>911.95</ele>
        <time>2022-08-07T09:20:31Z</time>
      </trkpt>
      <trkpt lat="44.09815" lon="3.41398">
        <ele>911.95</ele>
        <time>2022-08-07T09:20:36Z</time>
      </trkpt>
      <trkpt lat="44.09809" lon="3.41381">
        <ele>912.43</ele>
        <time>2022-08-07T09:20:49Z</time>
      </trkpt>
      <trkpt lat="44.09807" lon="3.41376">
        <ele>912.91</ele>
        <time>2022-08-07T09:20:53Z</time>
      </trkpt>
      <trkpt lat="44.09804" lon="3.41367">
        <ele>912.43</ele>
        <time>2022-08-07T09:20:59Z</time>
      </trkpt>
      <trkpt lat="44.09804" lon="3.41365">
        <ele>911.95</ele>
        <time>2022-08-07T09:21:01Z</time>
      </trkpt>
      <trkpt lat="44.09805" lon="3.41354">
        <ele>911.95</ele>
        <time>2022-08-07T09:21:07Z</time>
      </trkpt>
      <trkpt lat="44.09808" lon="3.41345">
        <ele>911.95</ele>
        <time>2022-08-07T09:21:19Z</time>
      </trkpt>
      <trkpt lat="44.09808" lon="3.41343">
        <ele>911.95</ele>
        <time>2022-08-07T09:21:20Z</time>
      </trkpt>
      <trkpt lat="44.09811" lon="3.41331">
        <ele>911.95</ele>
        <time>2022-08-07T09:21:31Z</time>
      </trkpt>
      <trkpt lat="44.09805" lon="3.41316">
        <ele>911.95</ele>
        <time>2022-08-07T09:21:43Z</time>
      </trkpt>
      <trkpt lat="44.09809" lon="3.41299">
        <ele>912.43</ele>
        <time>2022-08-07T09:21:54Z</time>
      </trkpt>
      <trkpt lat="44.09822" lon="3.41287">
        <ele>914.83</ele>
        <time>2022-08-07T09:22:07Z</time>
      </trkpt>
      <trkpt lat="44.09832" lon="3.41281">
        <ele>916.27</ele>
        <time>2022-08-07T09:22:18Z</time>
      </trkpt>
      <trkpt lat="44.09833" lon="3.41277">
        <ele>917.72</ele>
        <time>2022-08-07T09:22:34Z</time>
      </trkpt>
      <trkpt lat="44.09835" lon="3.41279">
        <ele>918.68</ele>
        <time>2022-08-07T09:22:45Z</time>
      </trkpt>
      <trkpt lat="44.09848" lon="3.41286">
        <ele>916.75</ele>
        <time>2022-08-07T09:22:58Z</time>
      </trkpt>
      <trkpt lat="44.09853" lon="3.41289">
        <ele>916.27</ele>
        <time>2022-08-07T09:23:15Z</time>
      </trkpt>
      <trkpt lat="44.09866" lon="3.41292">
        <ele>914.35</ele>
        <time>2022-08-07T09:23:28Z</time>
      </trkpt>
      <trkpt lat="44.09877" lon="3.41296">
        <ele>911.95</ele>
        <time>2022-08-07T09:23:39Z</time>
      </trkpt>
      <trkpt lat="44.09891" lon="3.41303">
        <ele>913.39</ele>
        <time>2022-08-07T09:23:53Z</time>
      </trkpt>
      <trkpt lat="44.09907" lon="3.41311">
        <ele>914.35</ele>
        <time>2022-08-07T09:24:05Z</time>
      </trkpt>
      <trkpt lat="44.09913" lon="3.41317">
        <ele>914.83</ele>
        <time>2022-08-07T09:24:11Z</time>
      </trkpt>
      <trkpt lat="44.09927" lon="3.41341">
        <ele>915.31</ele>
        <time>2022-08-07T09:24:28Z</time>
      </trkpt>
      <trkpt lat="44.09933" lon="3.41347">
        <ele>914.83</ele>
        <time>2022-08-07T09:24:34Z</time>
      </trkpt>
      <trkpt lat="44.09936" lon="3.41353">
        <ele>914.83</ele>
        <time>2022-08-07T09:24:39Z</time>
      </trkpt>
      <trkpt lat="44.09938" lon="3.41356">
        <ele>914.83</ele>
        <time>2022-08-07T09:24:41Z</time>
      </trkpt>
      <trkpt lat="44.0994" lon="3.41361">
        <ele>914.35</ele>
        <time>2022-08-07T09:24:45Z</time>
      </trkpt>
      <trkpt lat="44.09942" lon="3.4137">
        <ele>914.35</ele>
        <time>2022-08-07T09:24:50Z</time>
      </trkpt>
      <trkpt lat="44.09944" lon="3.41372">
        <ele>914.35</ele>
        <time>2022-08-07T09:24:52Z</time>
      </trkpt>
      <trkpt lat="44.09949" lon="3.41391">
        <ele>918.2</ele>
        <time>2022-08-07T09:25:01Z</time>
      </trkpt>
      <trkpt lat="44.0995" lon="3.41397">
        <ele>919.64</ele>
        <time>2022-08-07T09:25:04Z</time>
      </trkpt>
      <trkpt lat="44.09957" lon="3.41414">
        <ele>923.96</ele>
        <time>2022-08-07T09:25:17Z</time>
      </trkpt>
      <trkpt lat="44.09956" lon="3.41435">
        <ele>924.93</ele>
        <time>2022-08-07T09:25:29Z</time>
      </trkpt>
      <trkpt lat="44.09958" lon="3.41454">
        <ele>925.41</ele>
        <time>2022-08-07T09:25:41Z</time>
      </trkpt>
      <trkpt lat="44.09958" lon="3.41472">
        <ele>923.96</ele>
        <time>2022-08-07T09:25:52Z</time>
      </trkpt>
      <trkpt lat="44.09959" lon="3.41479">
        <ele>922.52</ele>
        <time>2022-08-07T09:25:57Z</time>
      </trkpt>
      <trkpt lat="44.09966" lon="3.41496">
        <ele>922.04</ele>
        <time>2022-08-07T09:26:10Z</time>
      </trkpt>
      <trkpt lat="44.0997" lon="3.4151">
        <ele>922.04</ele>
        <time>2022-08-07T09:26:19Z</time>
      </trkpt>
      <trkpt lat="44.09975" lon="3.41527">
        <ele>925.41</ele>
        <time>2022-08-07T09:26:31Z</time>
      </trkpt>
      <trkpt lat="44.09984" lon="3.41538">
        <ele>925.41</ele>
        <time>2022-08-07T09:26:43Z</time>
      </trkpt>
      <trkpt lat="44.09993" lon="3.41542">
        <ele>926.37</ele>
        <time>2022-08-07T09:26:51Z</time>
      </trkpt>
      <trkpt lat="44.10002" lon="3.41534">
        <ele>926.37</ele>
        <time>2022-08-07T09:27:01Z</time>
      </trkpt>
      <trkpt lat="44.09999" lon="3.41527">
        <ele>926.37</ele>
        <time>2022-08-07T09:27:05Z</time>
      </trkpt>
      <trkpt lat="44.09999" lon="3.41513">
        <ele>928.29</ele>
        <time>2022-08-07T09:27:14Z</time>
      </trkpt>
      <trkpt lat="44.10002" lon="3.41504">
        <ele>928.29</ele>
        <time>2022-08-07T09:27:19Z</time>
      </trkpt>
      <trkpt lat="44.10011" lon="3.41486">
        <ele>926.85</ele>
        <time>2022-08-07T09:27:30Z</time>
      </trkpt>
      <trkpt lat="44.1001" lon="3.4148">
        <ele>926.85</ele>
        <time>2022-08-07T09:27:33Z</time>
      </trkpt>
      <trkpt lat="44.10014" lon="3.41471">
        <ele>927.33</ele>
        <time>2022-08-07T09:27:39Z</time>
      </trkpt>
      <trkpt lat="44.10017" lon="3.41459">
        <ele>926.85</ele>
        <time>2022-08-07T09:27:47Z</time>
      </trkpt>
      <trkpt lat="44.10027" lon="3.41438">
        <ele>927.33</ele>
        <time>2022-08-07T09:28:02Z</time>
      </trkpt>
      <trkpt lat="44.10032" lon="3.41434">
        <ele>926.37</ele>
        <time>2022-08-07T09:28:12Z</time>
      </trkpt>
      <trkpt lat="44.10034" lon="3.41431">
        <ele>925.89</ele>
        <time>2022-08-07T09:28:17Z</time>
      </trkpt>
      <trkpt lat="44.10033" lon="3.41411">
        <ele>921.56</ele>
        <time>2022-08-07T09:28:31Z</time>
      </trkpt>
      <trkpt lat="44.10027" lon="3.41399">
        <ele>914.35</ele>
        <time>2022-08-07T09:28:45Z</time>
      </trkpt>
      <trkpt lat="44.10025" lon="3.41387">
        <ele>912.91</ele>
        <time>2022-08-07T09:28:52Z</time>
      </trkpt>
      <trkpt lat="44.10024" lon="3.41381">
        <ele>912.91</ele>
        <time>2022-08-07T09:28:55Z</time>
      </trkpt>
      <trkpt lat="44.10027" lon="3.41358">
        <ele>914.35</ele>
        <time>2022-08-07T09:29:09Z</time>
      </trkpt>
      <trkpt lat="44.10028" lon="3.41354">
        <ele>913.87</ele>
        <time>2022-08-07T09:29:12Z</time>
      </trkpt>
      <trkpt lat="44.1003" lon="3.41347">
        <ele>914.35</ele>
        <time>2022-08-07T09:29:16Z</time>
      </trkpt>
      <trkpt lat="44.10032" lon="3.4134">
        <ele>914.35</ele>
        <time>2022-08-07T09:29:20Z</time>
      </trkpt>
      <trkpt lat="44.10036" lon="3.41332">
        <ele>914.35</ele>
        <time>2022-08-07T09:29:26Z</time>
      </trkpt>
      <trkpt lat="44.1004" lon="3.41314">
        <ele>915.31</ele>
        <time>2022-08-07T09:29:36Z</time>
      </trkpt>
      <trkpt lat="44.1004" lon="3.41303">
        <ele>914.35</ele>
        <time>2022-08-07T09:29:42Z</time>
      </trkpt>
      <trkpt lat="44.10039" lon="3.41298">
        <ele>913.39</ele>
        <time>2022-08-07T09:29:45Z</time>
      </trkpt>
      <trkpt lat="44.10038" lon="3.41288">
        <ele>912.43</ele>
        <time>2022-08-07T09:29:52Z</time>
      </trkpt>
      <trkpt lat="44.10038" lon="3.4127">
        <ele>912.43</ele>
        <time>2022-08-07T09:30:03Z</time>
      </trkpt>
      <trkpt lat="44.10045" lon="3.41257">
        <ele>914.35</ele>
        <time>2022-08-07T09:30:16Z</time>
      </trkpt>
      <trkpt lat="44.10056" lon="3.41249">
        <ele>917.24</ele>
        <time>2022-08-07T09:30:29Z</time>
      </trkpt>
      <trkpt lat="44.10058" lon="3.41247">
        <ele>918.2</ele>
        <time>2022-08-07T09:30:32Z</time>
      </trkpt>
      <trkpt lat="44.10068" lon="3.4124">
        <ele>919.64</ele>
        <time>2022-08-07T09:30:43Z</time>
      </trkpt>
      <trkpt lat="44.10075" lon="3.41234">
        <ele>921.56</ele>
        <time>2022-08-07T09:30:53Z</time>
      </trkpt>
      <trkpt lat="44.10077" lon="3.41233">
        <ele>922.04</ele>
        <time>2022-08-07T09:30:56Z</time>
      </trkpt>
      <trkpt lat="44.10091" lon="3.41221">
        <ele>923.48</ele>
        <time>2022-08-07T09:31:11Z</time>
      </trkpt>
      <trkpt lat="44.10105" lon="3.41214">
        <ele>922.04</ele>
        <time>2022-08-07T09:31:25Z</time>
      </trkpt>
      <trkpt lat="44.10113" lon="3.412">
        <ele>920.12</ele>
        <time>2022-08-07T09:31:37Z</time>
      </trkpt>
      <trkpt lat="44.10106" lon="3.41177">
        <ele>919.16</ele>
        <time>2022-08-07T09:31:51Z</time>
      </trkpt>
      <trkpt lat="44.10097" lon="3.41165">
        <ele>918.2</ele>
        <time>2022-08-07T09:32:00Z</time>
      </trkpt>
      <trkpt lat="44.10094" lon="3.41159">
        <ele>916.75</ele>
        <time>2022-08-07T09:32:05Z</time>
      </trkpt>
      <trkpt lat="44.10091" lon="3.41154">
        <ele>916.27</ele>
        <time>2022-08-07T09:32:09Z</time>
      </trkpt>
      <trkpt lat="44.10074" lon="3.41141">
        <ele>914.83</ele>
        <time>2022-08-07T09:32:24Z</time>
      </trkpt>
      <trkpt lat="44.1007" lon="3.41139">
        <ele>915.31</ele>
        <time>2022-08-07T09:32:27Z</time>
      </trkpt>
      <trkpt lat="44.10066" lon="3.41134">
        <ele>915.31</ele>
        <time>2022-08-07T09:32:32Z</time>
      </trkpt>
      <trkpt lat="44.10063" lon="3.41128">
        <ele>914.83</ele>
        <time>2022-08-07T09:32:36Z</time>
      </trkpt>
      <trkpt lat="44.10051" lon="3.4111">
        <ele>914.35</ele>
        <time>2022-08-07T09:32:51Z</time>
      </trkpt>
      <trkpt lat="44.10048" lon="3.41099">
        <ele>914.35</ele>
        <time>2022-08-07T09:32:59Z</time>
      </trkpt>
      <trkpt lat="44.10045" lon="3.41094">
        <ele>913.87</ele>
        <time>2022-08-07T09:33:03Z</time>
      </trkpt>
      <trkpt lat="44.10045" lon="3.41087">
        <ele>914.35</ele>
        <time>2022-08-07T09:33:08Z</time>
      </trkpt>
      <trkpt lat="44.10045" lon="3.41084">
        <ele>914.83</ele>
        <time>2022-08-07T09:33:10Z</time>
      </trkpt>
      <trkpt lat="44.10046" lon="3.41076">
        <ele>916.27</ele>
        <time>2022-08-07T09:33:16Z</time>
      </trkpt>
      <trkpt lat="44.1005" lon="3.41056">
        <ele>918.68</ele>
        <time>2022-08-07T09:33:30Z</time>
      </trkpt>
      <trkpt lat="44.10059" lon="3.41045">
        <ele>921.56</ele>
        <time>2022-08-07T09:33:44Z</time>
      </trkpt>
      <trkpt lat="44.10066" lon="3.41035">
        <ele>923</ele>
        <time>2022-08-07T09:33:55Z</time>
      </trkpt>
      <trkpt lat="44.10066" lon="3.41034">
        <ele>922.52</ele>
        <time>2022-08-07T09:33:56Z</time>
      </trkpt>
      <trkpt lat="44.10078" lon="3.41022">
        <ele>925.41</ele>
        <time>2022-08-07T09:34:11Z</time>
      </trkpt>
      <trkpt lat="44.10087" lon="3.41015">
        <ele>926.85</ele>
        <time>2022-08-07T09:34:20Z</time>
      </trkpt>
      <trkpt lat="44.10103" lon="3.41002">
        <ele>928.77</ele>
        <time>2022-08-07T09:34:34Z</time>
      </trkpt>
      <trkpt lat="44.10118" lon="3.40994">
        <ele>931.17</ele>
        <time>2022-08-07T09:34:48Z</time>
      </trkpt>
      <trkpt lat="44.10126" lon="3.40992">
        <ele>932.62</ele>
        <time>2022-08-07T09:34:55Z</time>
      </trkpt>
      <trkpt lat="44.10136" lon="3.40991">
        <ele>934.54</ele>
        <time>2022-08-07T09:35:09Z</time>
      </trkpt>
      <trkpt lat="44.1014" lon="3.4099">
        <ele>934.54</ele>
        <time>2022-08-07T09:35:23Z</time>
      </trkpt>
      <trkpt lat="44.10152" lon="3.40984">
        <ele>934.06</ele>
        <time>2022-08-07T09:35:36Z</time>
      </trkpt>
      <trkpt lat="44.10163" lon="3.40974">
        <ele>932.62</ele>
        <time>2022-08-07T09:35:48Z</time>
      </trkpt>
      <trkpt lat="44.10165" lon="3.4097">
        <ele>931.65</ele>
        <time>2022-08-07T09:35:50Z</time>
      </trkpt>
      <trkpt lat="44.10169" lon="3.4096">
        <ele>929.73</ele>
        <time>2022-08-07T09:35:57Z</time>
      </trkpt>
      <trkpt lat="44.1017" lon="3.40945">
        <ele>925.89</ele>
        <time>2022-08-07T09:36:07Z</time>
      </trkpt>
      <trkpt lat="44.10166" lon="3.40922">
        <ele>926.37</ele>
        <time>2022-08-07T09:36:22Z</time>
      </trkpt>
      <trkpt lat="44.10158" lon="3.40898">
        <ele>927.81</ele>
        <time>2022-08-07T09:36:38Z</time>
      </trkpt>
      <trkpt lat="44.10145" lon="3.40889">
        <ele>930.21</ele>
        <time>2022-08-07T09:36:52Z</time>
      </trkpt>
      <trkpt lat="44.10142" lon="3.4089">
        <ele>930.21</ele>
        <time>2022-08-07T09:36:54Z</time>
      </trkpt>
      <trkpt lat="44.10133" lon="3.40882">
        <ele>931.17</ele>
        <time>2022-08-07T09:37:06Z</time>
      </trkpt>
      <trkpt lat="44.10131" lon="3.40881">
        <ele>932.62</ele>
        <time>2022-08-07T09:37:18Z</time>
      </trkpt>
      <trkpt lat="44.10133" lon="3.40881">
        <ele>934.54</ele>
        <time>2022-08-07T09:37:34Z</time>
      </trkpt>
      <trkpt lat="44.10134" lon="3.40883">
        <ele>937.9</ele>
        <time>2022-08-07T09:37:55Z</time>
      </trkpt>
      <trkpt lat="44.10132" lon="3.40881">
        <ele>937.9</ele>
        <time>2022-08-07T09:38:09Z</time>
      </trkpt>
      <trkpt lat="44.10132" lon="3.40881">
        <ele>938.86</ele>
        <time>2022-08-07T09:38:23Z</time>
      </trkpt>
      <trkpt lat="44.10133" lon="3.40884">
        <ele>939.83</ele>
        <time>2022-08-07T09:38:43Z</time>
      </trkpt>
      <trkpt lat="44.10134" lon="3.40885">
        <ele>941.75</ele>
        <time>2022-08-07T09:39:02Z</time>
      </trkpt>
      <trkpt lat="44.10136" lon="3.40886">
        <ele>938.86</ele>
        <time>2022-08-07T09:39:14Z</time>
      </trkpt>
      <trkpt lat="44.10136" lon="3.40883">
        <ele>935.5</ele>
        <time>2022-08-07T09:39:25Z</time>
      </trkpt>
      <trkpt lat="44.10138" lon="3.40884">
        <ele>934.06</ele>
        <time>2022-08-07T09:39:42Z</time>
      </trkpt>
      <trkpt lat="44.10139" lon="3.40885">
        <ele>934.06</ele>
        <time>2022-08-07T09:40:05Z</time>
      </trkpt>
      <trkpt lat="44.1014" lon="3.40884">
        <ele>932.14</ele>
        <time>2022-08-07T09:40:36Z</time>
      </trkpt>
      <trkpt lat="44.10143" lon="3.40886">
        <ele>932.14</ele>
        <time>2022-08-07T09:40:44Z</time>
      </trkpt>
      <trkpt lat="44.10154" lon="3.4089">
        <ele>932.14</ele>
        <time>2022-08-07T09:40:58Z</time>
      </trkpt>
      <trkpt lat="44.10161" lon="3.40911">
        <ele>929.73</ele>
        <time>2022-08-07T09:41:13Z</time>
      </trkpt>
      <trkpt lat="44.10167" lon="3.40927">
        <ele>927.81</ele>
        <time>2022-08-07T09:41:25Z</time>
      </trkpt>
      <trkpt lat="44.10167" lon="3.40928">
        <ele>927.81</ele>
        <time>2022-08-07T09:41:26Z</time>
      </trkpt>
      <trkpt lat="44.10169" lon="3.4095">
        <ele>928.29</ele>
        <time>2022-08-07T09:41:40Z</time>
      </trkpt>
      <trkpt lat="44.10168" lon="3.40959">
        <ele>929.25</ele>
        <time>2022-08-07T09:41:46Z</time>
      </trkpt>
      <trkpt lat="44.10164" lon="3.40978">
        <ele>929.73</ele>
        <time>2022-08-07T09:42:00Z</time>
      </trkpt>
      <trkpt lat="44.10161" lon="3.4098">
        <ele>929.25</ele>
        <time>2022-08-07T09:42:04Z</time>
      </trkpt>
      <trkpt lat="44.10143" lon="3.40989">
        <ele>931.65</ele>
        <time>2022-08-07T09:42:20Z</time>
      </trkpt>
      <trkpt lat="44.10141" lon="3.40997">
        <ele>932.62</ele>
        <time>2022-08-07T09:42:26Z</time>
      </trkpt>
      <trkpt lat="44.10149" lon="3.41005">
        <ele>933.1</ele>
        <time>2022-08-07T09:42:36Z</time>
      </trkpt>
      <trkpt lat="44.10155" lon="3.4101">
        <ele>933.1</ele>
        <time>2022-08-07T09:42:43Z</time>
      </trkpt>
      <trkpt lat="44.10166" lon="3.4102">
        <ele>932.62</ele>
        <time>2022-08-07T09:42:56Z</time>
      </trkpt>
      <trkpt lat="44.10176" lon="3.41031">
        <ele>932.62</ele>
        <time>2022-08-07T09:43:11Z</time>
      </trkpt>
      <trkpt lat="44.10184" lon="3.41042">
        <ele>931.65</ele>
        <time>2022-08-07T09:43:22Z</time>
      </trkpt>
      <trkpt lat="44.1019" lon="3.41046">
        <ele>932.62</ele>
        <time>2022-08-07T09:43:32Z</time>
      </trkpt>
      <trkpt lat="44.10203" lon="3.4105">
        <ele>936.94</ele>
        <time>2022-08-07T09:43:45Z</time>
      </trkpt>
      <trkpt lat="44.10204" lon="3.4105">
        <ele>936.94</ele>
        <time>2022-08-07T09:43:46Z</time>
      </trkpt>
      <trkpt lat="44.10212" lon="3.41051">
        <ele>941.75</ele>
        <time>2022-08-07T09:44:00Z</time>
      </trkpt>
      <trkpt lat="44.10214" lon="3.41051">
        <ele>943.19</ele>
        <time>2022-08-07T09:44:09Z</time>
      </trkpt>
      <trkpt lat="44.10209" lon="3.41056">
        <ele>944.15</ele>
        <time>2022-08-07T09:44:21Z</time>
      </trkpt>
      <trkpt lat="44.10209" lon="3.41059">
        <ele>944.63</ele>
        <time>2022-08-07T09:44:25Z</time>
      </trkpt>
      <trkpt lat="44.1021" lon="3.41065">
        <ele>947.04</ele>
        <time>2022-08-07T09:44:39Z</time>
      </trkpt>
      <trkpt lat="44.10215" lon="3.41073">
        <ele>946.56</ele>
        <time>2022-08-07T09:44:51Z</time>
      </trkpt>
      <trkpt lat="44.10218" lon="3.4108">
        <ele>948</ele>
        <time>2022-08-07T09:45:01Z</time>
      </trkpt>
      <trkpt lat="44.10222" lon="3.41088">
        <ele>950.4</ele>
        <time>2022-08-07T09:45:12Z</time>
      </trkpt>
      <trkpt lat="44.10217" lon="3.41092">
        <ele>952.32</ele>
        <time>2022-08-07T09:45:20Z</time>
      </trkpt>
      <trkpt lat="44.10214" lon="3.41093">
        <ele>951.84</ele>
        <time>2022-08-07T09:45:23Z</time>
      </trkpt>
      <trkpt lat="44.1021" lon="3.41095">
        <ele>952.32</ele>
        <time>2022-08-07T09:45:28Z</time>
      </trkpt>
      <trkpt lat="44.10211" lon="3.41103">
        <ele>952.8</ele>
        <time>2022-08-07T09:45:37Z</time>
      </trkpt>
      <trkpt lat="44.10212" lon="3.41108">
        <ele>952.8</ele>
        <time>2022-08-07T09:45:41Z</time>
      </trkpt>
      <trkpt lat="44.10215" lon="3.41112">
        <ele>952.32</ele>
        <time>2022-08-07T09:45:46Z</time>
      </trkpt>
      <trkpt lat="44.10219" lon="3.41118">
        <ele>952.8</ele>
        <time>2022-08-07T09:45:51Z</time>
      </trkpt>
      <trkpt lat="44.10221" lon="3.4113">
        <ele>956.17</ele>
        <time>2022-08-07T09:46:03Z</time>
      </trkpt>
      <trkpt lat="44.10219" lon="3.41132">
        <ele>958.09</ele>
        <time>2022-08-07T09:46:19Z</time>
      </trkpt>
      <trkpt lat="44.10217" lon="3.41132">
        <ele>961.46</ele>
        <time>2022-08-07T09:46:53Z</time>
      </trkpt>
      <trkpt lat="44.1022" lon="3.4114">
        <ele>960.01</ele>
        <time>2022-08-07T09:47:12Z</time>
      </trkpt>
      <trkpt lat="44.10224" lon="3.41156">
        <ele>960.98</ele>
        <time>2022-08-07T09:47:25Z</time>
      </trkpt>
      <trkpt lat="44.10231" lon="3.41173">
        <ele>960.01</ele>
        <time>2022-08-07T09:47:38Z</time>
      </trkpt>
      <trkpt lat="44.10241" lon="3.41185">
        <ele>960.49</ele>
        <time>2022-08-07T09:47:51Z</time>
      </trkpt>
      <trkpt lat="44.10251" lon="3.41191">
        <ele>960.98</ele>
        <time>2022-08-07T09:48:01Z</time>
      </trkpt>
      <trkpt lat="44.10254" lon="3.41192">
        <ele>961.46</ele>
        <time>2022-08-07T09:48:05Z</time>
      </trkpt>
      <trkpt lat="44.10262" lon="3.41193">
        <ele>962.42</ele>
        <time>2022-08-07T09:48:15Z</time>
      </trkpt>
      <trkpt lat="44.10269" lon="3.41197">
        <ele>961.94</ele>
        <time>2022-08-07T09:48:21Z</time>
      </trkpt>
      <trkpt lat="44.10276" lon="3.41206">
        <ele>959.53</ele>
        <time>2022-08-07T09:48:35Z</time>
      </trkpt>
      <trkpt lat="44.10276" lon="3.41216">
        <ele>960.01</ele>
        <time>2022-08-07T09:48:44Z</time>
      </trkpt>
      <trkpt lat="44.10276" lon="3.41226">
        <ele>962.42</ele>
        <time>2022-08-07T09:48:52Z</time>
      </trkpt>
      <trkpt lat="44.10275" lon="3.41242">
        <ele>963.86</ele>
        <time>2022-08-07T09:49:05Z</time>
      </trkpt>
      <trkpt lat="44.10275" lon="3.41253">
        <ele>962.9</ele>
        <time>2022-08-07T09:49:17Z</time>
      </trkpt>
      <trkpt lat="44.10272" lon="3.41267">
        <ele>964.34</ele>
        <time>2022-08-07T09:49:27Z</time>
      </trkpt>
      <trkpt lat="44.10271" lon="3.4127">
        <ele>964.82</ele>
        <time>2022-08-07T09:49:29Z</time>
      </trkpt>
      <trkpt lat="44.1027" lon="3.41277">
        <ele>965.3</ele>
        <time>2022-08-07T09:49:34Z</time>
      </trkpt>
      <trkpt lat="44.10269" lon="3.41279">
        <ele>965.3</ele>
        <time>2022-08-07T09:49:36Z</time>
      </trkpt>
      <trkpt lat="44.10266" lon="3.41292">
        <ele>966.74</ele>
        <time>2022-08-07T09:49:45Z</time>
      </trkpt>
      <trkpt lat="44.10262" lon="3.4131">
        <ele>968.67</ele>
        <time>2022-08-07T09:49:58Z</time>
      </trkpt>
      <trkpt lat="44.10261" lon="3.41317">
        <ele>968.67</ele>
        <time>2022-08-07T09:50:05Z</time>
      </trkpt>
      <trkpt lat="44.10256" lon="3.41326">
        <ele>969.63</ele>
        <time>2022-08-07T09:50:12Z</time>
      </trkpt>
      <trkpt lat="44.10253" lon="3.41334">
        <ele>972.03</ele>
        <time>2022-08-07T09:50:18Z</time>
      </trkpt>
      <trkpt lat="44.10252" lon="3.4134">
        <ele>972.03</ele>
        <time>2022-08-07T09:50:22Z</time>
      </trkpt>
      <trkpt lat="44.10247" lon="3.41353">
        <ele>973.47</ele>
        <time>2022-08-07T09:50:32Z</time>
      </trkpt>
      <trkpt lat="44.10245" lon="3.41355">
        <ele>973.95</ele>
        <time>2022-08-07T09:50:34Z</time>
      </trkpt>
      <trkpt lat="44.1024" lon="3.41378">
        <ele>978.76</ele>
        <time>2022-08-07T09:50:49Z</time>
      </trkpt>
      <trkpt lat="44.10237" lon="3.41393">
        <ele>981.64</ele>
        <time>2022-08-07T09:51:01Z</time>
      </trkpt>
      <trkpt lat="44.10235" lon="3.41406">
        <ele>983.57</ele>
        <time>2022-08-07T09:51:12Z</time>
      </trkpt>
      <trkpt lat="44.10234" lon="3.41409">
        <ele>983.57</ele>
        <time>2022-08-07T09:51:14Z</time>
      </trkpt>
      <trkpt lat="44.10231" lon="3.41423">
        <ele>983.09</ele>
        <time>2022-08-07T09:51:26Z</time>
      </trkpt>
      <trkpt lat="44.10228" lon="3.41433">
        <ele>982.12</ele>
        <time>2022-08-07T09:51:36Z</time>
      </trkpt>
      <trkpt lat="44.10227" lon="3.41437">
        <ele>982.6</ele>
        <time>2022-08-07T09:51:39Z</time>
      </trkpt>
      <trkpt lat="44.10227" lon="3.41441">
        <ele>982.6</ele>
        <time>2022-08-07T09:51:41Z</time>
      </trkpt>
      <trkpt lat="44.10224" lon="3.41452">
        <ele>983.57</ele>
        <time>2022-08-07T09:51:52Z</time>
      </trkpt>
      <trkpt lat="44.10221" lon="3.41461">
        <ele>984.53</ele>
        <time>2022-08-07T09:52:02Z</time>
      </trkpt>
      <trkpt lat="44.10217" lon="3.41478">
        <ele>987.89</ele>
        <time>2022-08-07T09:52:15Z</time>
      </trkpt>
      <trkpt lat="44.10214" lon="3.4149">
        <ele>989.81</ele>
        <time>2022-08-07T09:52:24Z</time>
      </trkpt>
      <trkpt lat="44.10212" lon="3.41495">
        <ele>990.3</ele>
        <time>2022-08-07T09:52:27Z</time>
      </trkpt>
      <trkpt lat="44.10209" lon="3.41512">
        <ele>990.78</ele>
        <time>2022-08-07T09:52:41Z</time>
      </trkpt>
      <trkpt lat="44.10206" lon="3.41531">
        <ele>989.33</ele>
        <time>2022-08-07T09:52:57Z</time>
      </trkpt>
      <trkpt lat="44.10201" lon="3.4155">
        <ele>993.66</ele>
        <time>2022-08-07T09:53:11Z</time>
      </trkpt>
      <trkpt lat="44.10199" lon="3.41559">
        <ele>995.58</ele>
        <time>2022-08-07T09:53:16Z</time>
      </trkpt>
      <trkpt lat="44.10193" lon="3.41574">
        <ele>997.02</ele>
        <time>2022-08-07T09:53:29Z</time>
      </trkpt>
      <trkpt lat="44.10192" lon="3.41577">
        <ele>997.51</ele>
        <time>2022-08-07T09:53:32Z</time>
      </trkpt>
      <trkpt lat="44.10185" lon="3.41598">
        <ele>1001.83</ele>
        <time>2022-08-07T09:53:46Z</time>
      </trkpt>
      <trkpt lat="44.10184" lon="3.41605">
        <ele>1003.27</ele>
        <time>2022-08-07T09:53:51Z</time>
      </trkpt>
      <trkpt lat="44.10181" lon="3.41611">
        <ele>1005.2</ele>
        <time>2022-08-07T09:53:55Z</time>
      </trkpt>
      <trkpt lat="44.10181" lon="3.41614">
        <ele>1006.16</ele>
        <time>2022-08-07T09:53:57Z</time>
      </trkpt>
      <trkpt lat="44.10178" lon="3.41639">
        <ele>1007.12</ele>
        <time>2022-08-07T09:54:12Z</time>
      </trkpt>
      <trkpt lat="44.10176" lon="3.41661">
        <ele>1008.08</ele>
        <time>2022-08-07T09:54:26Z</time>
      </trkpt>
      <trkpt lat="44.10178" lon="3.41668">
        <ele>1008.08</ele>
        <time>2022-08-07T09:54:32Z</time>
      </trkpt>
      <trkpt lat="44.1018" lon="3.41675">
        <ele>1008.08</ele>
        <time>2022-08-07T09:54:37Z</time>
      </trkpt>
      <trkpt lat="44.10181" lon="3.41693">
        <ele>1006.64</ele>
        <time>2022-08-07T09:54:50Z</time>
      </trkpt>
      <trkpt lat="44.10181" lon="3.41695">
        <ele>1006.16</ele>
        <time>2022-08-07T09:54:51Z</time>
      </trkpt>
      <trkpt lat="44.10182" lon="3.41702">
        <ele>1006.16</ele>
        <time>2022-08-07T09:54:56Z</time>
      </trkpt>
      <trkpt lat="44.10183" lon="3.41707">
        <ele>1006.16</ele>
        <time>2022-08-07T09:55:00Z</time>
      </trkpt>
      <trkpt lat="44.10186" lon="3.41728">
        <ele>1005.68</ele>
        <time>2022-08-07T09:55:15Z</time>
      </trkpt>
      <trkpt lat="44.10187" lon="3.41745">
        <ele>1007.12</ele>
        <time>2022-08-07T09:55:28Z</time>
      </trkpt>
      <trkpt lat="44.10187" lon="3.41764">
        <ele>1008.08</ele>
        <time>2022-08-07T09:55:41Z</time>
      </trkpt>
      <trkpt lat="44.10187" lon="3.4178">
        <ele>1009.04</ele>
        <time>2022-08-07T09:55:54Z</time>
      </trkpt>
      <trkpt lat="44.10183" lon="3.41789">
        <ele>1010.48</ele>
        <time>2022-08-07T09:56:02Z</time>
      </trkpt>
      <trkpt lat="44.10179" lon="3.41803">
        <ele>1013.37</ele>
        <time>2022-08-07T09:56:16Z</time>
      </trkpt>
      <trkpt lat="44.10176" lon="3.41809">
        <ele>1013.37</ele>
        <time>2022-08-07T09:56:20Z</time>
      </trkpt>
      <trkpt lat="44.10173" lon="3.41824">
        <ele>1014.81</ele>
        <time>2022-08-07T09:56:33Z</time>
      </trkpt>
      <trkpt lat="44.10171" lon="3.41844">
        <ele>1016.25</ele>
        <time>2022-08-07T09:56:47Z</time>
      </trkpt>
      <trkpt lat="44.10169" lon="3.41863">
        <ele>1017.69</ele>
        <time>2022-08-07T09:57:01Z</time>
      </trkpt>
      <trkpt lat="44.1017" lon="3.41875">
        <ele>1017.69</ele>
        <time>2022-08-07T09:57:15Z</time>
      </trkpt>
      <trkpt lat="44.10169" lon="3.41887">
        <ele>1019.13</ele>
        <time>2022-08-07T09:57:27Z</time>
      </trkpt>
      <trkpt lat="44.10171" lon="3.41899">
        <ele>1021.06</ele>
        <time>2022-08-07T09:57:37Z</time>
      </trkpt>
      <trkpt lat="44.10172" lon="3.41902">
        <ele>1021.54</ele>
        <time>2022-08-07T09:57:41Z</time>
      </trkpt>
      <trkpt lat="44.10174" lon="3.41913">
        <ele>1023.46</ele>
        <time>2022-08-07T09:57:54Z</time>
      </trkpt>
      <trkpt lat="44.10182" lon="3.41923">
        <ele>1027.79</ele>
        <time>2022-08-07T09:58:07Z</time>
      </trkpt>
      <trkpt lat="44.10194" lon="3.41923">
        <ele>1031.63</ele>
        <time>2022-08-07T09:58:21Z</time>
      </trkpt>
      <trkpt lat="44.10195" lon="3.41923">
        <ele>1032.11</ele>
        <time>2022-08-07T09:58:23Z</time>
      </trkpt>
      <trkpt lat="44.1021" lon="3.41924">
        <ele>1033.07</ele>
        <time>2022-08-07T09:58:37Z</time>
      </trkpt>
      <trkpt lat="44.10214" lon="3.41933">
        <ele>1032.59</ele>
        <time>2022-08-07T09:58:51Z</time>
      </trkpt>
      <trkpt lat="44.10216" lon="3.41948">
        <ele>1036.44</ele>
        <time>2022-08-07T09:59:07Z</time>
      </trkpt>
      <trkpt lat="44.10213" lon="3.41955">
        <ele>1040.76</ele>
        <time>2022-08-07T09:59:24Z</time>
      </trkpt>
      <trkpt lat="44.10215" lon="3.4196">
        <ele>1042.69</ele>
        <time>2022-08-07T09:59:46Z</time>
      </trkpt>
      <trkpt lat="44.10215" lon="3.41962">
        <ele>1045.57</ele>
        <time>2022-08-07T10:00:17Z</time>
      </trkpt>
      <trkpt lat="44.10217" lon="3.4197">
        <ele>1046.53</ele>
        <time>2022-08-07T10:00:40Z</time>
      </trkpt>
      <trkpt lat="44.10218" lon="3.41978">
        <ele>1052.3</ele>
        <time>2022-08-07T10:00:55Z</time>
      </trkpt>
      <trkpt lat="44.10219" lon="3.41982">
        <ele>1054.7</ele>
        <time>2022-08-07T10:01:10Z</time>
      </trkpt>
      <trkpt lat="44.1022" lon="3.41969">
        <ele>1050.38</ele>
        <time>2022-08-07T10:01:25Z</time>
      </trkpt>
      <trkpt lat="44.10221" lon="3.41956">
        <ele>1044.13</ele>
        <time>2022-08-07T10:01:37Z</time>
      </trkpt>
      <trkpt lat="44.10222" lon="3.41939">
        <ele>1036.44</ele>
        <time>2022-08-07T10:01:51Z</time>
      </trkpt>
      <trkpt lat="44.10221" lon="3.41925">
        <ele>1035.48</ele>
        <time>2022-08-07T10:02:06Z</time>
      </trkpt>
      <trkpt lat="44.10229" lon="3.4191">
        <ele>1034.52</ele>
        <time>2022-08-07T10:02:17Z</time>
      </trkpt>
      <trkpt lat="44.10237" lon="3.41898">
        <ele>1035</ele>
        <time>2022-08-07T10:02:30Z</time>
      </trkpt>
      <trkpt lat="44.10247" lon="3.41891">
        <ele>1041.25</ele>
        <time>2022-08-07T10:02:44Z</time>
      </trkpt>
      <trkpt lat="44.10233" lon="3.41897">
        <ele>1041.73</ele>
        <time>2022-08-07T10:02:58Z</time>
      </trkpt>
      <trkpt lat="44.10223" lon="3.41908">
        <ele>1042.21</ele>
        <time>2022-08-07T10:03:13Z</time>
      </trkpt>
      <trkpt lat="44.10218" lon="3.41918">
        <ele>1045.57</ele>
        <time>2022-08-07T10:03:27Z</time>
      </trkpt>
      <trkpt lat="44.1022" lon="3.41921">
        <ele>1050.86</ele>
        <time>2022-08-07T10:03:47Z</time>
      </trkpt>
      <trkpt lat="44.10217" lon="3.41923">
        <ele>1053.74</ele>
        <time>2022-08-07T10:04:13Z</time>
      </trkpt>
      <trkpt lat="44.10197" lon="3.41923">
        <ele>1049.42</ele>
        <time>2022-08-07T10:04:32Z</time>
      </trkpt>
      <trkpt lat="44.10186" lon="3.41928">
        <ele>1048.94</ele>
        <time>2022-08-07T10:04:46Z</time>
      </trkpt>
      <trkpt lat="44.10186" lon="3.41937">
        <ele>1050.38</ele>
        <time>2022-08-07T10:05:00Z</time>
      </trkpt>
      <trkpt lat="44.10177" lon="3.41945">
        <ele>1049.42</ele>
        <time>2022-08-07T10:05:14Z</time>
      </trkpt>
      <trkpt lat="44.10167" lon="3.41955">
        <ele>1049.9</ele>
        <time>2022-08-07T10:05:26Z</time>
      </trkpt>
      <trkpt lat="44.10156" lon="3.41969">
        <ele>1051.34</ele>
        <time>2022-08-07T10:05:41Z</time>
      </trkpt>
      <trkpt lat="44.10152" lon="3.41978">
        <ele>1051.34</ele>
        <time>2022-08-07T10:05:52Z</time>
      </trkpt>
      <trkpt lat="44.10148" lon="3.41992">
        <ele>1050.86</ele>
        <time>2022-08-07T10:06:06Z</time>
      </trkpt>
      <trkpt lat="44.10142" lon="3.42001">
        <ele>1049.9</ele>
        <time>2022-08-07T10:06:18Z</time>
      </trkpt>
      <trkpt lat="44.10135" lon="3.42017">
        <ele>1049.9</ele>
        <time>2022-08-07T10:06:28Z</time>
      </trkpt>
      <trkpt lat="44.10134" lon="3.42023">
        <ele>1049.9</ele>
        <time>2022-08-07T10:06:33Z</time>
      </trkpt>
      <trkpt lat="44.10129" lon="3.4204">
        <ele>1051.34</ele>
        <time>2022-08-07T10:06:45Z</time>
      </trkpt>
      <trkpt lat="44.10126" lon="3.42043">
        <ele>1051.82</ele>
        <time>2022-08-07T10:06:49Z</time>
      </trkpt>
      <trkpt lat="44.10123" lon="3.42052">
        <ele>1052.78</ele>
        <time>2022-08-07T10:07:01Z</time>
      </trkpt>
      <trkpt lat="44.10118" lon="3.42065">
        <ele>1052.3</ele>
        <time>2022-08-07T10:07:13Z</time>
      </trkpt>
      <trkpt lat="44.10111" lon="3.42082">
        <ele>1057.11</ele>
        <time>2022-08-07T10:07:26Z</time>
      </trkpt>
      <trkpt lat="44.10103" lon="3.42089">
        <ele>1058.55</ele>
        <time>2022-08-07T10:07:41Z</time>
      </trkpt>
      <trkpt lat="44.10099" lon="3.42103">
        <ele>1058.07</ele>
        <time>2022-08-07T10:07:54Z</time>
      </trkpt>
      <trkpt lat="44.10097" lon="3.42119">
        <ele>1058.07</ele>
        <time>2022-08-07T10:08:08Z</time>
      </trkpt>
      <trkpt lat="44.10091" lon="3.42133">
        <ele>1058.55</ele>
        <time>2022-08-07T10:08:20Z</time>
      </trkpt>
      <trkpt lat="44.10089" lon="3.4215">
        <ele>1059.03</ele>
        <time>2022-08-07T10:08:34Z</time>
      </trkpt>
      <trkpt lat="44.1008" lon="3.42159">
        <ele>1059.51</ele>
        <time>2022-08-07T10:08:48Z</time>
      </trkpt>
      <trkpt lat="44.1007" lon="3.42174">
        <ele>1060.95</ele>
        <time>2022-08-07T10:09:03Z</time>
      </trkpt>
      <trkpt lat="44.10061" lon="3.42184">
        <ele>1063.84</ele>
        <time>2022-08-07T10:09:18Z</time>
      </trkpt>
      <trkpt lat="44.10052" lon="3.42196">
        <ele>1064.8</ele>
        <time>2022-08-07T10:09:32Z</time>
      </trkpt>
      <trkpt lat="44.10045" lon="3.4221">
        <ele>1064.8</ele>
        <time>2022-08-07T10:09:46Z</time>
      </trkpt>
      <trkpt lat="44.10037" lon="3.42227">
        <ele>1068.64</ele>
        <time>2022-08-07T10:09:59Z</time>
      </trkpt>
      <trkpt lat="44.1003" lon="3.42239">
        <ele>1069.6</ele>
        <time>2022-08-07T10:10:12Z</time>
      </trkpt>
      <trkpt lat="44.1002" lon="3.42249">
        <ele>1070.08</ele>
        <time>2022-08-07T10:10:27Z</time>
      </trkpt>
      <trkpt lat="44.10013" lon="3.42257">
        <ele>1070.57</ele>
        <time>2022-08-07T10:10:39Z</time>
      </trkpt>
      <trkpt lat="44.10005" lon="3.42272">
        <ele>1071.05</ele>
        <time>2022-08-07T10:10:51Z</time>
      </trkpt>
      <trkpt lat="44.09998" lon="3.42283">
        <ele>1072.97</ele>
        <time>2022-08-07T10:11:05Z</time>
      </trkpt>
      <trkpt lat="44.09985" lon="3.42291">
        <ele>1073.93</ele>
        <time>2022-08-07T10:11:17Z</time>
      </trkpt>
      <trkpt lat="44.09975" lon="3.42299">
        <ele>1074.89</ele>
        <time>2022-08-07T10:11:30Z</time>
      </trkpt>
      <trkpt lat="44.09966" lon="3.42313">
        <ele>1075.85</ele>
        <time>2022-08-07T10:11:43Z</time>
      </trkpt>
      <trkpt lat="44.09957" lon="3.42324">
        <ele>1076.81</ele>
        <time>2022-08-07T10:11:56Z</time>
      </trkpt>
      <trkpt lat="44.09949" lon="3.42332">
        <ele>1077.29</ele>
        <time>2022-08-07T10:12:08Z</time>
      </trkpt>
      <trkpt lat="44.09942" lon="3.42342">
        <ele>1078.26</ele>
        <time>2022-08-07T10:12:23Z</time>
      </trkpt>
      <trkpt lat="44.09938" lon="3.42358">
        <ele>1078.74</ele>
        <time>2022-08-07T10:12:36Z</time>
      </trkpt>
      <trkpt lat="44.09943" lon="3.42383">
        <ele>1109.02</ele>
        <time>2022-08-07T10:12:51Z</time>
      </trkpt>
      <trkpt lat="44.09933" lon="3.42384">
        <ele>1118.63</ele>
        <time>2022-08-07T10:13:15Z</time>
      </trkpt>
      <trkpt lat="44.09932" lon="3.42391">
        <ele>1116.23</ele>
        <time>2022-08-07T10:13:48Z</time>
      </trkpt>
      <trkpt lat="44.09931" lon="3.42381">
        <ele>1112.38</ele>
        <time>2022-08-07T10:14:04Z</time>
      </trkpt>
      <trkpt lat="44.09936" lon="3.42377">
        <ele>1118.63</ele>
        <time>2022-08-07T10:14:40Z</time>
      </trkpt>
      <trkpt lat="44.09935" lon="3.42388">
        <ele>1115.75</ele>
        <time>2022-08-07T10:15:00Z</time>
      </trkpt>
      <trkpt lat="44.09932" lon="3.42394">
        <ele>1114.31</ele>
        <time>2022-08-07T10:15:18Z</time>
      </trkpt>
      <trkpt lat="44.09938" lon="3.42394">
        <ele>1115.75</ele>
        <time>2022-08-07T10:15:47Z</time>
      </trkpt>
      <trkpt lat="44.09937" lon="3.42396">
        <ele>1113.34</ele>
        <time>2022-08-07T10:16:21Z</time>
      </trkpt>
      <trkpt lat="44.09932" lon="3.42405">
        <ele>1112.38</ele>
        <time>2022-08-07T10:16:46Z</time>
      </trkpt>
      <trkpt lat="44.09934" lon="3.42397">
        <ele>1109.98</ele>
        <time>2022-08-07T10:17:00Z</time>
      </trkpt>
      <trkpt lat="44.09926" lon="3.42399">
        <ele>1107.58</ele>
        <time>2022-08-07T10:17:15Z</time>
      </trkpt>
      <trkpt lat="44.09916" lon="3.42412">
        <ele>1104.69</ele>
        <time>2022-08-07T10:17:28Z</time>
      </trkpt>
      <trkpt lat="44.09905" lon="3.42429">
        <ele>1104.21</ele>
        <time>2022-08-07T10:17:44Z</time>
      </trkpt>
      <trkpt lat="44.09895" lon="3.42439">
        <ele>1102.77</ele>
        <time>2022-08-07T10:17:59Z</time>
      </trkpt>
      <trkpt lat="44.09885" lon="3.42457">
        <ele>1103.25</ele>
        <time>2022-08-07T10:18:17Z</time>
      </trkpt>
      <trkpt lat="44.0987" lon="3.42465">
        <ele>1106.61</ele>
        <time>2022-08-07T10:18:31Z</time>
      </trkpt>
      <trkpt lat="44.09856" lon="3.42477">
        <ele>1110.46</ele>
        <time>2022-08-07T10:18:46Z</time>
      </trkpt>
      <trkpt lat="44.09841" lon="3.42491">
        <ele>1113.34</ele>
        <time>2022-08-07T10:19:00Z</time>
      </trkpt>
      <trkpt lat="44.09834" lon="3.425">
        <ele>1114.31</ele>
        <time>2022-08-07T10:19:08Z</time>
      </trkpt>
      <trkpt lat="44.09823" lon="3.42513">
        <ele>1112.38</ele>
        <time>2022-08-07T10:19:21Z</time>
      </trkpt>
      <trkpt lat="44.09808" lon="3.42527">
        <ele>1113.34</ele>
        <time>2022-08-07T10:19:35Z</time>
      </trkpt>
      <trkpt lat="44.09803" lon="3.42532">
        <ele>1115.27</ele>
        <time>2022-08-07T10:19:39Z</time>
      </trkpt>
      <trkpt lat="44.09791" lon="3.42547">
        <ele>1116.23</ele>
        <time>2022-08-07T10:19:54Z</time>
      </trkpt>
      <trkpt lat="44.09782" lon="3.4256">
        <ele>1116.71</ele>
        <time>2022-08-07T10:20:07Z</time>
      </trkpt>
      <trkpt lat="44.0977" lon="3.42576">
        <ele>1118.15</ele>
        <time>2022-08-07T10:20:21Z</time>
      </trkpt>
      <trkpt lat="44.09759" lon="3.4259">
        <ele>1119.11</ele>
        <time>2022-08-07T10:20:35Z</time>
      </trkpt>
      <trkpt lat="44.09756" lon="3.42593">
        <ele>1119.11</ele>
        <time>2022-08-07T10:20:38Z</time>
      </trkpt>
      <trkpt lat="44.09743" lon="3.42606">
        <ele>1119.11</ele>
        <time>2022-08-07T10:20:51Z</time>
      </trkpt>
      <trkpt lat="44.09733" lon="3.42612">
        <ele>1119.59</ele>
        <time>2022-08-07T10:21:03Z</time>
      </trkpt>
      <trkpt lat="44.09719" lon="3.42621">
        <ele>1122.48</ele>
        <time>2022-08-07T10:21:16Z</time>
      </trkpt>
      <trkpt lat="44.09705" lon="3.4263">
        <ele>1123.44</ele>
        <time>2022-08-07T10:21:28Z</time>
      </trkpt>
      <trkpt lat="44.09691" lon="3.42642">
        <ele>1124.4</ele>
        <time>2022-08-07T10:21:42Z</time>
      </trkpt>
      <trkpt lat="44.09679" lon="3.42649">
        <ele>1125.36</ele>
        <time>2022-08-07T10:21:55Z</time>
      </trkpt>
      <trkpt lat="44.09678" lon="3.42649">
        <ele>1125.36</ele>
        <time>2022-08-07T10:21:56Z</time>
      </trkpt>
      <trkpt lat="44.09668" lon="3.42655">
        <ele>1123.44</ele>
        <time>2022-08-07T10:22:05Z</time>
      </trkpt>
      <trkpt lat="44.09664" lon="3.42657">
        <ele>1122.96</ele>
        <time>2022-08-07T10:22:09Z</time>
      </trkpt>
      <trkpt lat="44.09648" lon="3.42663">
        <ele>1121.52</ele>
        <time>2022-08-07T10:22:23Z</time>
      </trkpt>
      <trkpt lat="44.09636" lon="3.42667">
        <ele>1121.52</ele>
        <time>2022-08-07T10:22:35Z</time>
      </trkpt>
      <trkpt lat="44.09631" lon="3.42671">
        <ele>1122.48</ele>
        <time>2022-08-07T10:22:39Z</time>
      </trkpt>
      <trkpt lat="44.09628" lon="3.42674">
        <ele>1122.48</ele>
        <time>2022-08-07T10:22:42Z</time>
      </trkpt>
      <trkpt lat="44.09616" lon="3.42683">
        <ele>1123.92</ele>
        <time>2022-08-07T10:22:54Z</time>
      </trkpt>
      <trkpt lat="44.09606" lon="3.4269">
        <ele>1126.32</ele>
        <time>2022-08-07T10:23:05Z</time>
      </trkpt>
      <trkpt lat="44.09594" lon="3.42697">
        <ele>1130.17</ele>
        <time>2022-08-07T10:23:17Z</time>
      </trkpt>
      <trkpt lat="44.09593" lon="3.427">
        <ele>1131.13</ele>
        <time>2022-08-07T10:23:19Z</time>
      </trkpt>
      <trkpt lat="44.09583" lon="3.42709">
        <ele>1134.49</ele>
        <time>2022-08-07T10:23:31Z</time>
      </trkpt>
      <trkpt lat="44.09572" lon="3.42718">
        <ele>1137.86</ele>
        <time>2022-08-07T10:23:43Z</time>
      </trkpt>
      <trkpt lat="44.09571" lon="3.42719">
        <ele>1138.34</ele>
        <time>2022-08-07T10:23:44Z</time>
      </trkpt>
      <trkpt lat="44.09559" lon="3.42727">
        <ele>1140.74</ele>
        <time>2022-08-07T10:23:59Z</time>
      </trkpt>
      <trkpt lat="44.09547" lon="3.42731">
        <ele>1141.22</ele>
        <time>2022-08-07T10:24:10Z</time>
      </trkpt>
      <trkpt lat="44.09537" lon="3.42735">
        <ele>1141.22</ele>
        <time>2022-08-07T10:24:22Z</time>
      </trkpt>
      <trkpt lat="44.09525" lon="3.42741">
        <ele>1142.18</ele>
        <time>2022-08-07T10:24:35Z</time>
      </trkpt>
      <trkpt lat="44.09511" lon="3.4275">
        <ele>1146.51</ele>
        <time>2022-08-07T10:24:48Z</time>
      </trkpt>
      <trkpt lat="44.09497" lon="3.42755">
        <ele>1148.43</ele>
        <time>2022-08-07T10:25:02Z</time>
      </trkpt>
      <trkpt lat="44.09489" lon="3.42766">
        <ele>1149.87</ele>
        <time>2022-08-07T10:25:15Z</time>
      </trkpt>
      <trkpt lat="44.09486" lon="3.42781">
        <ele>1151.32</ele>
        <time>2022-08-07T10:25:26Z</time>
      </trkpt>
      <trkpt lat="44.09474" lon="3.42795">
        <ele>1151.32</ele>
        <time>2022-08-07T10:25:39Z</time>
      </trkpt>
      <trkpt lat="44.09463" lon="3.42808">
        <ele>1148.43</ele>
        <time>2022-08-07T10:25:51Z</time>
      </trkpt>
      <trkpt lat="44.09457" lon="3.4282">
        <ele>1147.47</ele>
        <time>2022-08-07T10:26:04Z</time>
      </trkpt>
      <trkpt lat="44.09448" lon="3.42838">
        <ele>1146.99</ele>
        <time>2022-08-07T10:26:14Z</time>
      </trkpt>
      <trkpt lat="44.0944" lon="3.42856">
        <ele>1147.47</ele>
        <time>2022-08-07T10:26:26Z</time>
      </trkpt>
      <trkpt lat="44.09437" lon="3.42861">
        <ele>1146.03</ele>
        <time>2022-08-07T10:26:31Z</time>
      </trkpt>
      <trkpt lat="44.09425" lon="3.42874">
        <ele>1142.18</ele>
        <time>2022-08-07T10:26:45Z</time>
      </trkpt>
      <trkpt lat="44.09414" lon="3.42887">
        <ele>1142.18</ele>
        <time>2022-08-07T10:26:57Z</time>
      </trkpt>
      <trkpt lat="44.09403" lon="3.42899">
        <ele>1135.94</ele>
        <time>2022-08-07T10:27:10Z</time>
      </trkpt>
      <trkpt lat="44.09394" lon="3.42913">
        <ele>1132.09</ele>
        <time>2022-08-07T10:27:21Z</time>
      </trkpt>
      <trkpt lat="44.09384" lon="3.42925">
        <ele>1134.01</ele>
        <time>2022-08-07T10:27:32Z</time>
      </trkpt>
      <trkpt lat="44.09379" lon="3.42937">
        <ele>1137.86</ele>
        <time>2022-08-07T10:27:40Z</time>
      </trkpt>
      <trkpt lat="44.09369" lon="3.42946">
        <ele>1140.74</ele>
        <time>2022-08-07T10:27:47Z</time>
      </trkpt>
      <trkpt lat="44.09359" lon="3.42957">
        <ele>1145.07</ele>
        <time>2022-08-07T10:27:58Z</time>
      </trkpt>
      <trkpt lat="44.09347" lon="3.42971">
        <ele>1148.91</ele>
        <time>2022-08-07T10:28:10Z</time>
      </trkpt>
      <trkpt lat="44.09338" lon="3.42986">
        <ele>1145.55</ele>
        <time>2022-08-07T10:28:23Z</time>
      </trkpt>
      <trkpt lat="44.09326" lon="3.42998">
        <ele>1142.66</ele>
        <time>2022-08-07T10:28:36Z</time>
      </trkpt>
      <trkpt lat="44.09316" lon="3.43013">
        <ele>1145.07</ele>
        <time>2022-08-07T10:28:48Z</time>
      </trkpt>
      <trkpt lat="44.09306" lon="3.43022">
        <ele>1142.18</ele>
        <time>2022-08-07T10:29:01Z</time>
      </trkpt>
      <trkpt lat="44.09297" lon="3.43034">
        <ele>1140.26</ele>
        <time>2022-08-07T10:29:13Z</time>
      </trkpt>
      <trkpt lat="44.09294" lon="3.43039">
        <ele>1139.78</ele>
        <time>2022-08-07T10:29:18Z</time>
      </trkpt>
      <trkpt lat="44.0929" lon="3.43051">
        <ele>1140.26</ele>
        <time>2022-08-07T10:29:28Z</time>
      </trkpt>
      <trkpt lat="44.09284" lon="3.43061">
        <ele>1143.14</ele>
        <time>2022-08-07T10:29:38Z</time>
      </trkpt>
      <trkpt lat="44.09283" lon="3.43065">
        <ele>1144.11</ele>
        <time>2022-08-07T10:29:40Z</time>
      </trkpt>
      <trkpt lat="44.09276" lon="3.43082">
        <ele>1153.24</ele>
        <time>2022-08-07T10:29:54Z</time>
      </trkpt>
      <trkpt lat="44.09276" lon="3.43094">
        <ele>1154.68</ele>
        <time>2022-08-07T10:30:03Z</time>
      </trkpt>
      <trkpt lat="44.09276" lon="3.43119">
        <ele>1163.81</ele>
        <time>2022-08-07T10:30:17Z</time>
      </trkpt>
      <trkpt lat="44.09275" lon="3.43135">
        <ele>1165.74</ele>
        <time>2022-08-07T10:30:29Z</time>
      </trkpt>
      <trkpt lat="44.09267" lon="3.4315">
        <ele>1164.77</ele>
        <time>2022-08-07T10:30:43Z</time>
      </trkpt>
      <trkpt lat="44.09262" lon="3.43148">
        <ele>1164.77</ele>
        <time>2022-08-07T10:30:55Z</time>
      </trkpt>
      <trkpt lat="44.09257" lon="3.43124">
        <ele>1167.66</ele>
        <time>2022-08-07T10:31:09Z</time>
      </trkpt>
      <trkpt lat="44.0925" lon="3.43109">
        <ele>1166.7</ele>
        <time>2022-08-07T10:31:23Z</time>
      </trkpt>
      <trkpt lat="44.09244" lon="3.43096">
        <ele>1169.1</ele>
        <time>2022-08-07T10:31:38Z</time>
      </trkpt>
      <trkpt lat="44.09242" lon="3.43094">
        <ele>1170.06</ele>
        <time>2022-08-07T10:31:40Z</time>
      </trkpt>
      <trkpt lat="44.09236" lon="3.43095">
        <ele>1172.47</ele>
        <time>2022-08-07T10:31:53Z</time>
      </trkpt>
      <trkpt lat="44.09233" lon="3.431">
        <ele>1173.91</ele>
        <time>2022-08-07T10:32:07Z</time>
      </trkpt>
      <trkpt lat="44.09229" lon="3.43102">
        <ele>1176.31</ele>
        <time>2022-08-07T10:32:25Z</time>
      </trkpt>
      <trkpt lat="44.09224" lon="3.43107">
        <ele>1180.16</ele>
        <time>2022-08-07T10:32:43Z</time>
      </trkpt>
      <trkpt lat="44.09216" lon="3.43114">
        <ele>1180.64</ele>
        <time>2022-08-07T10:32:55Z</time>
      </trkpt>
      <trkpt lat="44.09209" lon="3.43133">
        <ele>1181.6</ele>
        <time>2022-08-07T10:33:09Z</time>
      </trkpt>
      <trkpt lat="44.09201" lon="3.4315">
        <ele>1181.6</ele>
        <time>2022-08-07T10:33:23Z</time>
      </trkpt>
      <trkpt lat="44.09193" lon="3.43162">
        <ele>1183.04</ele>
        <time>2022-08-07T10:33:38Z</time>
      </trkpt>
      <trkpt lat="44.09183" lon="3.43172">
        <ele>1184.48</ele>
        <time>2022-08-07T10:33:52Z</time>
      </trkpt>
      <trkpt lat="44.09176" lon="3.43186">
        <ele>1186.88</ele>
        <time>2022-08-07T10:34:06Z</time>
      </trkpt>
      <trkpt lat="44.09167" lon="3.43188">
        <ele>1185.44</ele>
        <time>2022-08-07T10:34:20Z</time>
      </trkpt>
      <trkpt lat="44.09157" lon="3.43188">
        <ele>1186.88</ele>
        <time>2022-08-07T10:34:32Z</time>
      </trkpt>
      <trkpt lat="44.09148" lon="3.43186">
        <ele>1187.37</ele>
        <time>2022-08-07T10:34:45Z</time>
      </trkpt>
      <trkpt lat="44.09127" lon="3.43183">
        <ele>1191.69</ele>
        <time>2022-08-07T10:35:00Z</time>
      </trkpt>
      <trkpt lat="44.09127" lon="3.43203">
        <ele>1191.69</ele>
        <time>2022-08-07T10:35:13Z</time>
      </trkpt>
      <trkpt lat="44.09126" lon="3.4322">
        <ele>1193.61</ele>
        <time>2022-08-07T10:35:26Z</time>
      </trkpt>
      <trkpt lat="44.09121" lon="3.43236">
        <ele>1196.5</ele>
        <time>2022-08-07T10:35:40Z</time>
      </trkpt>
      <trkpt lat="44.09112" lon="3.43242">
        <ele>1200.82</ele>
        <time>2022-08-07T10:35:52Z</time>
      </trkpt>
      <trkpt lat="44.09105" lon="3.43248">
        <ele>1200.34</ele>
        <time>2022-08-07T10:36:05Z</time>
      </trkpt>
      <trkpt lat="44.09099" lon="3.43267">
        <ele>1199.38</ele>
        <time>2022-08-07T10:36:20Z</time>
      </trkpt>
      <trkpt lat="44.09094" lon="3.43285">
        <ele>1200.82</ele>
        <time>2022-08-07T10:36:32Z</time>
      </trkpt>
      <trkpt lat="44.09091" lon="3.43301">
        <ele>1203.71</ele>
        <time>2022-08-07T10:36:44Z</time>
      </trkpt>
      <trkpt lat="44.0909" lon="3.43303">
        <ele>1203.71</ele>
        <time>2022-08-07T10:36:45Z</time>
      </trkpt>
      <trkpt lat="44.09085" lon="3.43318">
        <ele>1206.59</ele>
        <time>2022-08-07T10:36:58Z</time>
      </trkpt>
      <trkpt lat="44.09085" lon="3.4332">
        <ele>1206.59</ele>
        <time>2022-08-07T10:36:59Z</time>
      </trkpt>
      <trkpt lat="44.0908" lon="3.43337">
        <ele>1208.51</ele>
        <time>2022-08-07T10:37:12Z</time>
      </trkpt>
      <trkpt lat="44.09065" lon="3.43349">
        <ele>1209.96</ele>
        <time>2022-08-07T10:37:29Z</time>
      </trkpt>
      <trkpt lat="44.09053" lon="3.43353">
        <ele>1210.44</ele>
        <time>2022-08-07T10:37:43Z</time>
      </trkpt>
      <trkpt lat="44.0904" lon="3.43361">
        <ele>1213.32</ele>
        <time>2022-08-07T10:37:57Z</time>
      </trkpt>
      <trkpt lat="44.09027" lon="3.43367">
        <ele>1215.24</ele>
        <time>2022-08-07T10:38:10Z</time>
      </trkpt>
      <trkpt lat="44.09023" lon="3.43368">
        <ele>1218.61</ele>
        <time>2022-08-07T10:38:27Z</time>
      </trkpt>
      <trkpt lat="44.09025" lon="3.43368">
        <ele>1223.42</ele>
        <time>2022-08-07T10:38:43Z</time>
      </trkpt>
      <trkpt lat="44.09031" lon="3.43373">
        <ele>1224.86</ele>
        <time>2022-08-07T10:38:58Z</time>
      </trkpt>
      <trkpt lat="44.09026" lon="3.43368">
        <ele>1225.82</ele>
        <time>2022-08-07T10:39:13Z</time>
      </trkpt>
      <trkpt lat="44.09022" lon="3.43371">
        <ele>1224.86</ele>
        <time>2022-08-07T10:39:31Z</time>
      </trkpt>
      <trkpt lat="44.09008" lon="3.43375">
        <ele>1224.38</ele>
        <time>2022-08-07T10:39:45Z</time>
      </trkpt>
      <trkpt lat="44.08994" lon="3.43381">
        <ele>1223.9</ele>
        <time>2022-08-07T10:39:58Z</time>
      </trkpt>
      <trkpt lat="44.0898" lon="3.43384">
        <ele>1226.3</ele>
        <time>2022-08-07T10:40:11Z</time>
      </trkpt>
      <trkpt lat="44.08971" lon="3.43407">
        <ele>1228.22</ele>
        <time>2022-08-07T10:40:27Z</time>
      </trkpt>
      <trkpt lat="44.08962" lon="3.4342">
        <ele>1232.55</ele>
        <time>2022-08-07T10:40:42Z</time>
      </trkpt>
      <trkpt lat="44.0895" lon="3.4344">
        <ele>1232.55</ele>
        <time>2022-08-07T10:40:58Z</time>
      </trkpt>
      <trkpt lat="44.08941" lon="3.43453">
        <ele>1233.51</ele>
        <time>2022-08-07T10:41:13Z</time>
      </trkpt>
      <trkpt lat="44.08936" lon="3.43473">
        <ele>1235.43</ele>
        <time>2022-08-07T10:41:27Z</time>
      </trkpt>
      <trkpt lat="44.08933" lon="3.4349">
        <ele>1233.51</ele>
        <time>2022-08-07T10:41:40Z</time>
      </trkpt>
      <trkpt lat="44.0892" lon="3.43496">
        <ele>1241.2</ele>
        <time>2022-08-07T10:41:56Z</time>
      </trkpt>
      <trkpt lat="44.08911" lon="3.4351">
        <ele>1240.72</ele>
        <time>2022-08-07T10:42:10Z</time>
      </trkpt>
      <trkpt lat="44.089" lon="3.43529">
        <ele>1240.72</ele>
        <time>2022-08-07T10:42:25Z</time>
      </trkpt>
      <trkpt lat="44.08894" lon="3.43549">
        <ele>1241.68</ele>
        <time>2022-08-07T10:42:38Z</time>
      </trkpt>
      <trkpt lat="44.08892" lon="3.43552">
        <ele>1240.72</ele>
        <time>2022-08-07T10:42:41Z</time>
      </trkpt>
      <trkpt lat="44.08881" lon="3.43561">
        <ele>1240.24</ele>
        <time>2022-08-07T10:42:53Z</time>
      </trkpt>
      <trkpt lat="44.08868" lon="3.4357">
        <ele>1242.16</ele>
        <time>2022-08-07T10:43:06Z</time>
      </trkpt>
      <trkpt lat="44.08854" lon="3.43577">
        <ele>1245.04</ele>
        <time>2022-08-07T10:43:20Z</time>
      </trkpt>
      <trkpt lat="44.08841" lon="3.43583">
        <ele>1245.04</ele>
        <time>2022-08-07T10:43:35Z</time>
      </trkpt>
      <trkpt lat="44.08827" lon="3.43603">
        <ele>1248.41</ele>
        <time>2022-08-07T10:43:51Z</time>
      </trkpt>
      <trkpt lat="44.08813" lon="3.4362">
        <ele>1246.01</ele>
        <time>2022-08-07T10:44:06Z</time>
      </trkpt>
      <trkpt lat="44.08798" lon="3.43633">
        <ele>1247.93</ele>
        <time>2022-08-07T10:44:21Z</time>
      </trkpt>
      <trkpt lat="44.08787" lon="3.43643">
        <ele>1248.41</ele>
        <time>2022-08-07T10:44:35Z</time>
      </trkpt>
      <trkpt lat="44.08785" lon="3.43645">
        <ele>1248.41</ele>
        <time>2022-08-07T10:44:38Z</time>
      </trkpt>
      <trkpt lat="44.08777" lon="3.43649">
        <ele>1248.41</ele>
        <time>2022-08-07T10:44:45Z</time>
      </trkpt>
      <trkpt lat="44.08762" lon="3.43658">
        <ele>1249.37</ele>
        <time>2022-08-07T10:45:00Z</time>
      </trkpt>
      <trkpt lat="44.08752" lon="3.43669">
        <ele>1248.89</ele>
        <time>2022-08-07T10:45:13Z</time>
      </trkpt>
      <trkpt lat="44.08737" lon="3.43675">
        <ele>1246.49</ele>
        <time>2022-08-07T10:45:27Z</time>
      </trkpt>
      <trkpt lat="44.08727" lon="3.43684">
        <ele>1246.97</ele>
        <time>2022-08-07T10:45:36Z</time>
      </trkpt>
      <trkpt lat="44.08721" lon="3.43689">
        <ele>1246.49</ele>
        <time>2022-08-07T10:45:41Z</time>
      </trkpt>
      <trkpt lat="44.08707" lon="3.437">
        <ele>1247.93</ele>
        <time>2022-08-07T10:45:54Z</time>
      </trkpt>
      <trkpt lat="44.08702" lon="3.43709">
        <ele>1249.37</ele>
        <time>2022-08-07T10:46:03Z</time>
      </trkpt>
      <trkpt lat="44.08695" lon="3.43712">
        <ele>1250.81</ele>
        <time>2022-08-07T10:46:09Z</time>
      </trkpt>
      <trkpt lat="44.08678" lon="3.43718">
        <ele>1255.14</ele>
        <time>2022-08-07T10:46:24Z</time>
      </trkpt>
      <trkpt lat="44.0866" lon="3.43727">
        <ele>1255.14</ele>
        <time>2022-08-07T10:46:41Z</time>
      </trkpt>
      <trkpt lat="44.08662" lon="3.43727">
        <ele>1255.62</ele>
        <time>2022-08-07T10:46:56Z</time>
      </trkpt>
      <trkpt lat="44.08662" lon="3.43722">
        <ele>1257.54</ele>
        <time>2022-08-07T10:47:20Z</time>
      </trkpt>
      <trkpt lat="44.08664" lon="3.43725">
        <ele>1260.43</ele>
        <time>2022-08-07T10:47:52Z</time>
      </trkpt>
      <trkpt lat="44.08653" lon="3.43734">
        <ele>1258.5</ele>
        <time>2022-08-07T10:48:14Z</time>
      </trkpt>
      <trkpt lat="44.08647" lon="3.4374">
        <ele>1256.58</ele>
        <time>2022-08-07T10:48:25Z</time>
      </trkpt>
      <trkpt lat="44.08634" lon="3.43749">
        <ele>1255.62</ele>
        <time>2022-08-07T10:48:39Z</time>
      </trkpt>
      <trkpt lat="44.0862" lon="3.43754">
        <ele>1254.66</ele>
        <time>2022-08-07T10:48:53Z</time>
      </trkpt>
      <trkpt lat="44.08605" lon="3.43758">
        <ele>1256.58</ele>
        <time>2022-08-07T10:49:07Z</time>
      </trkpt>
      <trkpt lat="44.08588" lon="3.43765">
        <ele>1260.43</ele>
        <time>2022-08-07T10:49:22Z</time>
      </trkpt>
      <trkpt lat="44.08576" lon="3.43769">
        <ele>1263.31</ele>
        <time>2022-08-07T10:49:35Z</time>
      </trkpt>
      <trkpt lat="44.08563" lon="3.43774">
        <ele>1264.75</ele>
        <time>2022-08-07T10:49:49Z</time>
      </trkpt>
      <trkpt lat="44.08549" lon="3.4378">
        <ele>1266.19</ele>
        <time>2022-08-07T10:50:04Z</time>
      </trkpt>
      <trkpt lat="44.08539" lon="3.43781">
        <ele>1265.23</ele>
        <time>2022-08-07T10:50:12Z</time>
      </trkpt>
      <trkpt lat="44.08525" lon="3.43785">
        <ele>1264.27</ele>
        <time>2022-08-07T10:50:26Z</time>
      </trkpt>
      <trkpt lat="44.08511" lon="3.43794">
        <ele>1265.23</ele>
        <time>2022-08-07T10:50:42Z</time>
      </trkpt>
      <trkpt lat="44.085" lon="3.43802">
        <ele>1265.71</ele>
        <time>2022-08-07T10:50:55Z</time>
      </trkpt>
      <trkpt lat="44.0849" lon="3.43808">
        <ele>1265.23</ele>
        <time>2022-08-07T10:51:08Z</time>
      </trkpt>
      <trkpt lat="44.08483" lon="3.43822">
        <ele>1265.23</ele>
        <time>2022-08-07T10:51:23Z</time>
      </trkpt>
      <trkpt lat="44.08468" lon="3.43841">
        <ele>1265.71</ele>
        <time>2022-08-07T10:51:37Z</time>
      </trkpt>
      <trkpt lat="44.08459" lon="3.43856">
        <ele>1265.71</ele>
        <time>2022-08-07T10:51:51Z</time>
      </trkpt>
      <trkpt lat="44.08449" lon="3.43872">
        <ele>1265.71</ele>
        <time>2022-08-07T10:52:06Z</time>
      </trkpt>
      <trkpt lat="44.08438" lon="3.43892">
        <ele>1266.67</ele>
        <time>2022-08-07T10:52:24Z</time>
      </trkpt>
      <trkpt lat="44.08426" lon="3.43912">
        <ele>1266.67</ele>
        <time>2022-08-07T10:52:38Z</time>
      </trkpt>
      <trkpt lat="44.08426" lon="3.43915">
        <ele>1266.67</ele>
        <time>2022-08-07T10:52:40Z</time>
      </trkpt>
      <trkpt lat="44.08421" lon="3.43932">
        <ele>1266.19</ele>
        <time>2022-08-07T10:52:54Z</time>
      </trkpt>
      <trkpt lat="44.08418" lon="3.43946">
        <ele>1264.75</ele>
        <time>2022-08-07T10:53:08Z</time>
      </trkpt>
      <trkpt lat="44.08411" lon="3.43959">
        <ele>1266.19</ele>
        <time>2022-08-07T10:53:21Z</time>
      </trkpt>
      <trkpt lat="44.08404" lon="3.43981">
        <ele>1268.12</ele>
        <time>2022-08-07T10:53:35Z</time>
      </trkpt>
      <trkpt lat="44.08399" lon="3.43996">
        <ele>1268.6</ele>
        <time>2022-08-07T10:53:48Z</time>
      </trkpt>
      <trkpt lat="44.08389" lon="3.44014">
        <ele>1269.56</ele>
        <time>2022-08-07T10:54:03Z</time>
      </trkpt>
      <trkpt lat="44.08382" lon="3.44029">
        <ele>1272.44</ele>
        <time>2022-08-07T10:54:13Z</time>
      </trkpt>
      <trkpt lat="44.08378" lon="3.44037">
        <ele>1276.29</ele>
        <time>2022-08-07T10:54:26Z</time>
      </trkpt>
      <trkpt lat="44.08376" lon="3.44036">
        <ele>1278.69</ele>
        <time>2022-08-07T10:54:42Z</time>
      </trkpt>
      <trkpt lat="44.08377" lon="3.44035">
        <ele>1281.09</ele>
        <time>2022-08-07T10:54:58Z</time>
      </trkpt>
      <trkpt lat="44.08375" lon="3.44036">
        <ele>1282.54</ele>
        <time>2022-08-07T10:55:21Z</time>
      </trkpt>
      <trkpt lat="44.08365" lon="3.44038">
        <ele>1281.57</ele>
        <time>2022-08-07T10:55:33Z</time>
      </trkpt>
      <trkpt lat="44.08352" lon="3.4404">
        <ele>1281.57</ele>
        <time>2022-08-07T10:55:48Z</time>
      </trkpt>
      <trkpt lat="44.08338" lon="3.44047">
        <ele>1282.54</ele>
        <time>2022-08-07T10:56:02Z</time>
      </trkpt>
      <trkpt lat="44.08325" lon="3.44054">
        <ele>1281.57</ele>
        <time>2022-08-07T10:56:16Z</time>
      </trkpt>
      <trkpt lat="44.08319" lon="3.44056">
        <ele>1281.09</ele>
        <time>2022-08-07T10:56:21Z</time>
      </trkpt>
      <trkpt lat="44.08312" lon="3.44061">
        <ele>1281.09</ele>
        <time>2022-08-07T10:56:28Z</time>
      </trkpt>
      <trkpt lat="44.083" lon="3.44069">
        <ele>1281.57</ele>
        <time>2022-08-07T10:56:40Z</time>
      </trkpt>
      <trkpt lat="44.08286" lon="3.44078">
        <ele>1283.02</ele>
        <time>2022-08-07T10:56:53Z</time>
      </trkpt>
      <trkpt lat="44.08285" lon="3.44079">
        <ele>1283.5</ele>
        <time>2022-08-07T10:56:54Z</time>
      </trkpt>
      <trkpt lat="44.08274" lon="3.44091">
        <ele>1285.42</ele>
        <time>2022-08-07T10:57:06Z</time>
      </trkpt>
      <trkpt lat="44.08274" lon="3.44092">
        <ele>1285.42</ele>
        <time>2022-08-07T10:57:07Z</time>
      </trkpt>
      <trkpt lat="44.08271" lon="3.44097">
        <ele>1285.42</ele>
        <time>2022-08-07T10:57:11Z</time>
      </trkpt>
      <trkpt lat="44.08269" lon="3.44103">
        <ele>1285.42</ele>
        <time>2022-08-07T10:57:16Z</time>
      </trkpt>
      <trkpt lat="44.08266" lon="3.44105">
        <ele>1284.94</ele>
        <time>2022-08-07T10:57:19Z</time>
      </trkpt>
      <trkpt lat="44.0826" lon="3.44113">
        <ele>1284.94</ele>
        <time>2022-08-07T10:57:30Z</time>
      </trkpt>
      <trkpt lat="44.0826" lon="3.44114">
        <ele>1285.9</ele>
        <time>2022-08-07T10:57:43Z</time>
      </trkpt>
      <trkpt lat="44.08258" lon="3.44116">
        <ele>1284.46</ele>
        <time>2022-08-07T10:58:00Z</time>
      </trkpt>
      <trkpt lat="44.08257" lon="3.44115">
        <ele>1284.94</ele>
        <time>2022-08-07T10:58:13Z</time>
      </trkpt>
      <trkpt lat="44.08246" lon="3.44128">
        <ele>1283.02</ele>
        <time>2022-08-07T10:58:30Z</time>
      </trkpt>
      <trkpt lat="44.08234" lon="3.44138">
        <ele>1281.09</ele>
        <time>2022-08-07T10:58:46Z</time>
      </trkpt>
      <trkpt lat="44.08232" lon="3.44139">
        <ele>1279.65</ele>
        <time>2022-08-07T10:58:57Z</time>
      </trkpt>
      <trkpt lat="44.08233" lon="3.44138">
        <ele>1278.69</ele>
        <time>2022-08-07T10:59:21Z</time>
      </trkpt>
      <trkpt lat="44.08234" lon="3.44136">
        <ele>1277.25</ele>
        <time>2022-08-07T10:59:44Z</time>
      </trkpt>
      <trkpt lat="44.08237" lon="3.44137">
        <ele>1278.21</ele>
        <time>2022-08-07T11:00:01Z</time>
      </trkpt>
      <trkpt lat="44.08237" lon="3.44137">
        <ele>1277.25</ele>
        <time>2022-08-07T11:00:24Z</time>
      </trkpt>
      <trkpt lat="44.08236" lon="3.44134">
        <ele>1279.17</ele>
        <time>2022-08-07T11:00:35Z</time>
      </trkpt>
      <trkpt lat="44.08234" lon="3.44126">
        <ele>1280.13</ele>
        <time>2022-08-07T11:00:41Z</time>
      </trkpt>
      <trkpt lat="44.08234" lon="3.44124">
        <ele>1280.61</ele>
        <time>2022-08-07T11:00:43Z</time>
      </trkpt>
      <trkpt lat="44.08227" lon="3.44106">
        <ele>1282.06</ele>
        <time>2022-08-07T11:00:57Z</time>
      </trkpt>
      <trkpt lat="44.08216" lon="3.44093">
        <ele>1283.98</ele>
        <time>2022-08-07T11:01:11Z</time>
      </trkpt>
      <trkpt lat="44.08211" lon="3.44087">
        <ele>1283.98</ele>
        <time>2022-08-07T11:01:23Z</time>
      </trkpt>
      <trkpt lat="44.08198" lon="3.44079">
        <ele>1283.98</ele>
        <time>2022-08-07T11:01:35Z</time>
      </trkpt>
      <trkpt lat="44.08183" lon="3.44073">
        <ele>1283.02</ele>
        <time>2022-08-07T11:01:50Z</time>
      </trkpt>
      <trkpt lat="44.08178" lon="3.44071">
        <ele>1283.02</ele>
        <time>2022-08-07T11:01:55Z</time>
      </trkpt>
      <trkpt lat="44.08173" lon="3.44069">
        <ele>1282.54</ele>
        <time>2022-08-07T11:02:01Z</time>
      </trkpt>
      <trkpt lat="44.08171" lon="3.44061">
        <ele>1282.06</ele>
        <time>2022-08-07T11:02:11Z</time>
      </trkpt>
      <trkpt lat="44.08171" lon="3.44057">
        <ele>1282.06</ele>
        <time>2022-08-07T11:02:15Z</time>
      </trkpt>
      <trkpt lat="44.08172" lon="3.44054">
        <ele>1282.06</ele>
        <time>2022-08-07T11:02:17Z</time>
      </trkpt>
      <trkpt lat="44.08168" lon="3.4405">
        <ele>1282.06</ele>
        <time>2022-08-07T11:02:21Z</time>
      </trkpt>
      <trkpt lat="44.08166" lon="3.44043">
        <ele>1282.06</ele>
        <time>2022-08-07T11:02:26Z</time>
      </trkpt>
      <trkpt lat="44.08162" lon="3.44037">
        <ele>1282.06</ele>
        <time>2022-08-07T11:02:31Z</time>
      </trkpt>
      <trkpt lat="44.08157" lon="3.44034">
        <ele>1282.06</ele>
        <time>2022-08-07T11:02:36Z</time>
      </trkpt>
      <trkpt lat="44.08145" lon="3.44026">
        <ele>1282.06</ele>
        <time>2022-08-07T11:02:48Z</time>
      </trkpt>
      <trkpt lat="44.0813" lon="3.4403">
        <ele>1283.02</ele>
        <time>2022-08-07T11:03:01Z</time>
      </trkpt>
      <trkpt lat="44.08127" lon="3.44029">
        <ele>1283.02</ele>
        <time>2022-08-07T11:03:04Z</time>
      </trkpt>
      <trkpt lat="44.08125" lon="3.44028">
        <ele>1282.54</ele>
        <time>2022-08-07T11:03:06Z</time>
      </trkpt>
      <trkpt lat="44.08122" lon="3.44029">
        <ele>1282.54</ele>
        <time>2022-08-07T11:03:09Z</time>
      </trkpt>
      <trkpt lat="44.08112" lon="3.44034">
        <ele>1282.06</ele>
        <time>2022-08-07T11:03:21Z</time>
      </trkpt>
      <trkpt lat="44.08111" lon="3.44037">
        <ele>1281.57</ele>
        <time>2022-08-07T11:03:24Z</time>
      </trkpt>
      <trkpt lat="44.0811" lon="3.44042">
        <ele>1281.57</ele>
        <time>2022-08-07T11:03:28Z</time>
      </trkpt>
      <trkpt lat="44.08105" lon="3.44043">
        <ele>1281.57</ele>
        <time>2022-08-07T11:03:33Z</time>
      </trkpt>
      <trkpt lat="44.08098" lon="3.44045">
        <ele>1281.09</ele>
        <time>2022-08-07T11:03:40Z</time>
      </trkpt>
      <trkpt lat="44.08097" lon="3.44047">
        <ele>1281.09</ele>
        <time>2022-08-07T11:03:42Z</time>
      </trkpt>
      <trkpt lat="44.08088" lon="3.44052">
        <ele>1282.06</ele>
        <time>2022-08-07T11:03:54Z</time>
      </trkpt>
      <trkpt lat="44.08081" lon="3.44054">
        <ele>1282.06</ele>
        <time>2022-08-07T11:04:04Z</time>
      </trkpt>
      <trkpt lat="44.08079" lon="3.44059">
        <ele>1281.57</ele>
        <time>2022-08-07T11:04:16Z</time>
      </trkpt>
      <trkpt lat="44.0808" lon="3.44062">
        <ele>1280.61</ele>
        <time>2022-08-07T11:04:27Z</time>
      </trkpt>
      <trkpt lat="44.08084" lon="3.44063">
        <ele>1279.17</ele>
        <time>2022-08-07T11:04:37Z</time>
      </trkpt>
      <trkpt lat="44.08088" lon="3.44064">
        <ele>1278.21</ele>
        <time>2022-08-07T11:04:48Z</time>
      </trkpt>
      <trkpt lat="44.08085" lon="3.44069">
        <ele>1277.73</ele>
        <time>2022-08-07T11:04:58Z</time>
      </trkpt>
      <trkpt lat="44.08081" lon="3.44075">
        <ele>1277.73</ele>
        <time>2022-08-07T11:05:10Z</time>
      </trkpt>
      <trkpt lat="44.08082" lon="3.44076">
        <ele>1276.77</ele>
        <time>2022-08-07T11:05:22Z</time>
      </trkpt>
      <trkpt lat="44.08085" lon="3.44076">
        <ele>1276.29</ele>
        <time>2022-08-07T11:05:34Z</time>
      </trkpt>
      <trkpt lat="44.08084" lon="3.44078">
        <ele>1276.29</ele>
        <time>2022-08-07T11:05:50Z</time>
      </trkpt>
      <trkpt lat="44.08083" lon="3.44077">
        <ele>1275.81</ele>
        <time>2022-08-07T11:06:08Z</time>
      </trkpt>
      <trkpt lat="44.08082" lon="3.44072">
        <ele>1277.25</ele>
        <time>2022-08-07T11:06:22Z</time>
      </trkpt>
      <trkpt lat="44.08083" lon="3.44073">
        <ele>1276.77</ele>
        <time>2022-08-07T11:06:40Z</time>
      </trkpt>
      <trkpt lat="44.08082" lon="3.44071">
        <ele>1279.17</ele>
        <time>2022-08-07T11:06:58Z</time>
      </trkpt>
      <trkpt lat="44.08084" lon="3.4407">
        <ele>1278.69</ele>
        <time>2022-08-07T11:07:11Z</time>
      </trkpt>
      <trkpt lat="44.08083" lon="3.4407">
        <ele>1276.29</ele>
        <time>2022-08-07T11:07:27Z</time>
      </trkpt>
      <trkpt lat="44.08082" lon="3.44069">
        <ele>1275.81</ele>
        <time>2022-08-07T11:07:51Z</time>
      </trkpt>
      <trkpt lat="44.08085" lon="3.44069">
        <ele>1277.73</ele>
        <time>2022-08-07T11:08:10Z</time>
      </trkpt>
      <trkpt lat="44.08085" lon="3.4407">
        <ele>1279.65</ele>
        <time>2022-08-07T11:08:31Z</time>
      </trkpt>
      <trkpt lat="44.08082" lon="3.44071">
        <ele>1277.73</ele>
        <time>2022-08-07T11:09:00Z</time>
      </trkpt>
      <trkpt lat="44.08082" lon="3.44071">
        <ele>1277.25</ele>
        <time>2022-08-07T11:09:24Z</time>
      </trkpt>
      <trkpt lat="44.08082" lon="3.44069">
        <ele>1277.73</ele>
        <time>2022-08-07T11:09:40Z</time>
      </trkpt>
      <trkpt lat="44.08081" lon="3.4407">
        <ele>1276.77</ele>
        <time>2022-08-07T11:10:06Z</time>
      </trkpt>
      <trkpt lat="44.08083" lon="3.4407">
        <ele>1275.81</ele>
        <time>2022-08-07T11:10:26Z</time>
      </trkpt>
      <trkpt lat="44.08083" lon="3.44071">
        <ele>1278.21</ele>
        <time>2022-08-07T11:10:52Z</time>
      </trkpt>
      <trkpt lat="44.08081" lon="3.44071">
        <ele>1278.21</ele>
        <time>2022-08-07T11:11:23Z</time>
      </trkpt>
      <trkpt lat="44.08084" lon="3.4407">
        <ele>1278.69</ele>
        <time>2022-08-07T11:11:59Z</time>
      </trkpt>
      <trkpt lat="44.08083" lon="3.4407">
        <ele>1279.17</ele>
        <time>2022-08-07T11:12:33Z</time>
      </trkpt>
      <trkpt lat="44.08082" lon="3.44071">
        <ele>1278.21</ele>
        <time>2022-08-07T11:12:58Z</time>
      </trkpt>
      <trkpt lat="44.08084" lon="3.44072">
        <ele>1277.73</ele>
        <time>2022-08-07T11:13:13Z</time>
      </trkpt>
      <trkpt lat="44.08087" lon="3.44072">
        <ele>1278.69</ele>
        <time>2022-08-07T11:13:37Z</time>
      </trkpt>
      <trkpt lat="44.08085" lon="3.44071">
        <ele>1276.29</ele>
        <time>2022-08-07T11:14:00Z</time>
      </trkpt>
      <trkpt lat="44.08085" lon="3.4407">
        <ele>1273.88</ele>
        <time>2022-08-07T11:14:26Z</time>
      </trkpt>
      <trkpt lat="44.08084" lon="3.44071">
        <ele>1275.81</ele>
        <time>2022-08-07T11:14:50Z</time>
      </trkpt>
      <trkpt lat="44.08081" lon="3.4407">
        <ele>1278.21</ele>
        <time>2022-08-07T11:15:32Z</time>
      </trkpt>
      <trkpt lat="44.08084" lon="3.44071">
        <ele>1277.25</ele>
        <time>2022-08-07T11:16:04Z</time>
      </trkpt>
      <trkpt lat="44.08083" lon="3.4407">
        <ele>1277.25</ele>
        <time>2022-08-07T11:16:26Z</time>
      </trkpt>
      <trkpt lat="44.08082" lon="3.44071">
        <ele>1276.77</ele>
        <time>2022-08-07T11:16:49Z</time>
      </trkpt>
      <trkpt lat="44.0808" lon="3.4407">
        <ele>1277.73</ele>
        <time>2022-08-07T11:17:20Z</time>
      </trkpt>
      <trkpt lat="44.0808" lon="3.44072">
        <ele>1277.25</ele>
        <time>2022-08-07T11:17:56Z</time>
      </trkpt>
      <trkpt lat="44.08083" lon="3.44071">
        <ele>1276.77</ele>
        <time>2022-08-07T11:18:20Z</time>
      </trkpt>
      <trkpt lat="44.08085" lon="3.4407">
        <ele>1279.65</ele>
        <time>2022-08-07T11:18:49Z</time>
      </trkpt>
      <trkpt lat="44.08084" lon="3.44073">
        <ele>1278.69</ele>
        <time>2022-08-07T11:19:14Z</time>
      </trkpt>
      <trkpt lat="44.08083" lon="3.44071">
        <ele>1279.17</ele>
        <time>2022-08-07T11:19:35Z</time>
      </trkpt>
      <trkpt lat="44.08083" lon="3.44071">
        <ele>1279.17</ele>
        <time>2022-08-07T11:19:49Z</time>
      </trkpt>
      <trkpt lat="44.08084" lon="3.4407">
        <ele>1279.17</ele>
        <time>2022-08-07T11:20:09Z</time>
      </trkpt>
      <trkpt lat="44.08084" lon="3.44071">
        <ele>1280.13</ele>
        <time>2022-08-07T11:20:26Z</time>
      </trkpt>
      <trkpt lat="44.08084" lon="3.4407">
        <ele>1280.13</ele>
        <time>2022-08-07T11:20:45Z</time>
      </trkpt>
      <trkpt lat="44.08084" lon="3.44071">
        <ele>1279.65</ele>
        <time>2022-08-07T11:21:03Z</time>
      </trkpt>
      <trkpt lat="44.08084" lon="3.44072">
        <ele>1281.09</ele>
        <time>2022-08-07T11:21:21Z</time>
      </trkpt>
      <trkpt lat="44.08083" lon="3.44072">
        <ele>1281.09</ele>
        <time>2022-08-07T11:21:46Z</time>
      </trkpt>
      <trkpt lat="44.08083" lon="3.44071">
        <ele>1282.06</ele>
        <time>2022-08-07T11:22:12Z</time>
      </trkpt>
      <trkpt lat="44.08083" lon="3.44071">
        <ele>1282.54</ele>
        <time>2022-08-07T11:22:35Z</time>
      </trkpt>
      <trkpt lat="44.08086" lon="3.44076">
        <ele>1283.98</ele>
        <time>2022-08-07T11:23:00Z</time>
      </trkpt>
      <trkpt lat="44.08085" lon="3.44073">
        <ele>1284.46</ele>
        <time>2022-08-07T11:23:23Z</time>
      </trkpt>
      <trkpt lat="44.08084" lon="3.44071">
        <ele>1283.5</ele>
        <time>2022-08-07T11:23:44Z</time>
      </trkpt>
      <trkpt lat="44.08085" lon="3.44071">
        <ele>1282.54</ele>
        <time>2022-08-07T11:24:06Z</time>
      </trkpt>
      <trkpt lat="44.08083" lon="3.4407">
        <ele>1280.61</ele>
        <time>2022-08-07T11:24:28Z</time>
      </trkpt>
      <trkpt lat="44.08086" lon="3.44072">
        <ele>1280.13</ele>
        <time>2022-08-07T11:24:52Z</time>
      </trkpt>
      <trkpt lat="44.08083" lon="3.4407">
        <ele>1280.61</ele>
        <time>2022-08-07T11:25:12Z</time>
      </trkpt>
      <trkpt lat="44.08083" lon="3.44071">
        <ele>1281.09</ele>
        <time>2022-08-07T11:25:42Z</time>
      </trkpt>
      <trkpt lat="44.08083" lon="3.44069">
        <ele>1279.65</ele>
        <time>2022-08-07T11:26:19Z</time>
      </trkpt>
      <trkpt lat="44.0808" lon="3.4407">
        <ele>1279.17</ele>
        <time>2022-08-07T11:26:59Z</time>
      </trkpt>
      <trkpt lat="44.08084" lon="3.44069">
        <ele>1281.09</ele>
        <time>2022-08-07T11:27:36Z</time>
      </trkpt>
      <trkpt lat="44.08083" lon="3.4407">
        <ele>1280.13</ele>
        <time>2022-08-07T11:28:12Z</time>
      </trkpt>
      <trkpt lat="44.08083" lon="3.44067">
        <ele>1279.17</ele>
        <time>2022-08-07T11:28:43Z</time>
      </trkpt>
      <trkpt lat="44.08084" lon="3.4407">
        <ele>1277.25</ele>
        <time>2022-08-07T11:29:05Z</time>
      </trkpt>
      <trkpt lat="44.08085" lon="3.4407">
        <ele>1278.69</ele>
        <time>2022-08-07T11:29:23Z</time>
      </trkpt>
      <trkpt lat="44.08082" lon="3.44071">
        <ele>1281.09</ele>
        <time>2022-08-07T11:29:56Z</time>
      </trkpt>
      <trkpt lat="44.08084" lon="3.44071">
        <ele>1280.61</ele>
        <time>2022-08-07T11:30:19Z</time>
      </trkpt>
      <trkpt lat="44.08083" lon="3.44069">
        <ele>1281.09</ele>
        <time>2022-08-07T11:30:41Z</time>
      </trkpt>
      <trkpt lat="44.08082" lon="3.44069">
        <ele>1282.54</ele>
        <time>2022-08-07T11:31:02Z</time>
      </trkpt>
      <trkpt lat="44.08083" lon="3.44071">
        <ele>1283.02</ele>
        <time>2022-08-07T11:31:30Z</time>
      </trkpt>
      <trkpt lat="44.08082" lon="3.44071">
        <ele>1281.09</ele>
        <time>2022-08-07T11:31:54Z</time>
      </trkpt>
      <trkpt lat="44.08081" lon="3.4407">
        <ele>1279.65</ele>
        <time>2022-08-07T11:32:25Z</time>
      </trkpt>
      <trkpt lat="44.08084" lon="3.44071">
        <ele>1281.09</ele>
        <time>2022-08-07T11:32:52Z</time>
      </trkpt>
      <trkpt lat="44.08083" lon="3.4407">
        <ele>1280.13</ele>
        <time>2022-08-07T11:33:18Z</time>
      </trkpt>
      <trkpt lat="44.08082" lon="3.44071">
        <ele>1281.09</ele>
        <time>2022-08-07T11:33:41Z</time>
      </trkpt>
      <trkpt lat="44.08084" lon="3.44071">
        <ele>1281.09</ele>
        <time>2022-08-07T11:34:07Z</time>
      </trkpt>
      <trkpt lat="44.08083" lon="3.44071">
        <ele>1280.13</ele>
        <time>2022-08-07T11:34:27Z</time>
      </trkpt>
      <trkpt lat="44.08083" lon="3.44071">
        <ele>1280.61</ele>
        <time>2022-08-07T11:34:56Z</time>
      </trkpt>
      <trkpt lat="44.08082" lon="3.44071">
        <ele>1282.54</ele>
        <time>2022-08-07T11:35:12Z</time>
      </trkpt>
      <trkpt lat="44.08082" lon="3.44069">
        <ele>1283.02</ele>
        <time>2022-08-07T11:35:41Z</time>
      </trkpt>
      <trkpt lat="44.08082" lon="3.4407">
        <ele>1283.02</ele>
        <time>2022-08-07T11:36:02Z</time>
      </trkpt>
      <trkpt lat="44.08083" lon="3.4407">
        <ele>1281.09</ele>
        <time>2022-08-07T11:36:26Z</time>
      </trkpt>
      <trkpt lat="44.08083" lon="3.4407">
        <ele>1282.06</ele>
        <time>2022-08-07T11:36:50Z</time>
      </trkpt>
      <trkpt lat="44.08082" lon="3.4407">
        <ele>1281.09</ele>
        <time>2022-08-07T11:37:11Z</time>
      </trkpt>
      <trkpt lat="44.08084" lon="3.4407">
        <ele>1281.09</ele>
        <time>2022-08-07T11:37:28Z</time>
      </trkpt>
      <trkpt lat="44.08083" lon="3.44073">
        <ele>1283.02</ele>
        <time>2022-08-07T11:37:49Z</time>
      </trkpt>
      <trkpt lat="44.08085" lon="3.44073">
        <ele>1281.09</ele>
        <time>2022-08-07T11:38:06Z</time>
      </trkpt>
      <trkpt lat="44.08083" lon="3.4407">
        <ele>1280.61</ele>
        <time>2022-08-07T11:38:22Z</time>
      </trkpt>
      <trkpt lat="44.08085" lon="3.4407">
        <ele>1280.61</ele>
        <time>2022-08-07T11:38:41Z</time>
      </trkpt>
      <trkpt lat="44.08088" lon="3.44071">
        <ele>1281.09</ele>
        <time>2022-08-07T11:39:02Z</time>
      </trkpt>
      <trkpt lat="44.08084" lon="3.44072">
        <ele>1281.57</ele>
        <time>2022-08-07T11:39:29Z</time>
      </trkpt>
      <trkpt lat="44.08084" lon="3.4407">
        <ele>1280.13</ele>
        <time>2022-08-07T11:39:56Z</time>
      </trkpt>
      <trkpt lat="44.08083" lon="3.44071">
        <ele>1280.13</ele>
        <time>2022-08-07T11:40:11Z</time>
      </trkpt>
      <trkpt lat="44.08082" lon="3.4407">
        <ele>1280.61</ele>
        <time>2022-08-07T11:40:30Z</time>
      </trkpt>
      <trkpt lat="44.08082" lon="3.4407">
        <ele>1281.57</ele>
        <time>2022-08-07T11:40:56Z</time>
      </trkpt>
      <trkpt lat="44.08083" lon="3.4407">
        <ele>1282.54</ele>
        <time>2022-08-07T11:41:22Z</time>
      </trkpt>
      <trkpt lat="44.08083" lon="3.44069">
        <ele>1281.57</ele>
        <time>2022-08-07T11:41:46Z</time>
      </trkpt>
      <trkpt lat="44.08083" lon="3.4407">
        <ele>1281.57</ele>
        <time>2022-08-07T11:42:02Z</time>
      </trkpt>
      <trkpt lat="44.08082" lon="3.44071">
        <ele>1281.57</ele>
        <time>2022-08-07T11:42:23Z</time>
      </trkpt>
      <trkpt lat="44.08081" lon="3.44069">
        <ele>1280.13</ele>
        <time>2022-08-07T11:42:51Z</time>
      </trkpt>
      <trkpt lat="44.0808" lon="3.44069">
        <ele>1278.69</ele>
        <time>2022-08-07T11:43:08Z</time>
      </trkpt>
      <trkpt lat="44.08081" lon="3.44069">
        <ele>1278.21</ele>
        <time>2022-08-07T11:43:32Z</time>
      </trkpt>
      <trkpt lat="44.08081" lon="3.44069">
        <ele>1278.21</ele>
        <time>2022-08-07T11:43:55Z</time>
      </trkpt>
      <trkpt lat="44.08083" lon="3.4407">
        <ele>1279.17</ele>
        <time>2022-08-07T11:44:17Z</time>
      </trkpt>
      <trkpt lat="44.08082" lon="3.4407">
        <ele>1276.77</ele>
        <time>2022-08-07T11:44:39Z</time>
      </trkpt>
      <trkpt lat="44.0808" lon="3.44071">
        <ele>1278.21</ele>
        <time>2022-08-07T11:44:58Z</time>
      </trkpt>
      <trkpt lat="44.08082" lon="3.44071">
        <ele>1277.73</ele>
        <time>2022-08-07T11:45:17Z</time>
      </trkpt>
      <trkpt lat="44.08083" lon="3.4407">
        <ele>1278.69</ele>
        <time>2022-08-07T11:45:36Z</time>
      </trkpt>
      <trkpt lat="44.08082" lon="3.44071">
        <ele>1280.61</ele>
        <time>2022-08-07T11:46:04Z</time>
      </trkpt>
      <trkpt lat="44.08079" lon="3.44069">
        <ele>1279.17</ele>
        <time>2022-08-07T11:46:33Z</time>
      </trkpt>
      <trkpt lat="44.08087" lon="3.44072">
        <ele>1281.57</ele>
        <time>2022-08-07T11:47:05Z</time>
      </trkpt>
      <trkpt lat="44.08084" lon="3.44071">
        <ele>1279.17</ele>
        <time>2022-08-07T11:47:44Z</time>
      </trkpt>
      <trkpt lat="44.08085" lon="3.44069">
        <ele>1280.61</ele>
        <time>2022-08-07T11:48:12Z</time>
      </trkpt>
      <trkpt lat="44.08084" lon="3.44071">
        <ele>1282.06</ele>
        <time>2022-08-07T11:48:25Z</time>
      </trkpt>
      <trkpt lat="44.08083" lon="3.44072">
        <ele>1281.09</ele>
        <time>2022-08-07T11:48:39Z</time>
      </trkpt>
      <trkpt lat="44.08083" lon="3.44072">
        <ele>1282.06</ele>
        <time>2022-08-07T11:49:01Z</time>
      </trkpt>
      <trkpt lat="44.08084" lon="3.44071">
        <ele>1280.13</ele>
        <time>2022-08-07T11:49:20Z</time>
      </trkpt>
      <trkpt lat="44.08083" lon="3.44074">
        <ele>1279.65</ele>
        <time>2022-08-07T11:49:41Z</time>
      </trkpt>
      <trkpt lat="44.08085" lon="3.4407">
        <ele>1281.09</ele>
        <time>2022-08-07T11:50:09Z</time>
      </trkpt>
      <trkpt lat="44.08089" lon="3.44067">
        <ele>1279.65</ele>
        <time>2022-08-07T11:50:21Z</time>
      </trkpt>
      <trkpt lat="44.08092" lon="3.44063">
        <ele>1280.13</ele>
        <time>2022-08-07T11:50:32Z</time>
      </trkpt>
      <trkpt lat="44.08096" lon="3.44062">
        <ele>1279.65</ele>
        <time>2022-08-07T11:50:43Z</time>
      </trkpt>
      <trkpt lat="44.08097" lon="3.44062">
        <ele>1279.17</ele>
        <time>2022-08-07T11:50:44Z</time>
      </trkpt>
      <trkpt lat="44.08105" lon="3.44062">
        <ele>1279.17</ele>
        <time>2022-08-07T11:50:57Z</time>
      </trkpt>
      <trkpt lat="44.08108" lon="3.44062">
        <ele>1279.65</ele>
        <time>2022-08-07T11:51:07Z</time>
      </trkpt>
      <trkpt lat="44.08113" lon="3.44057">
        <ele>1280.13</ele>
        <time>2022-08-07T11:51:18Z</time>
      </trkpt>
      <trkpt lat="44.08114" lon="3.44053">
        <ele>1280.61</ele>
        <time>2022-08-07T11:51:27Z</time>
      </trkpt>
      <trkpt lat="44.08118" lon="3.44051">
        <ele>1280.13</ele>
        <time>2022-08-07T11:51:39Z</time>
      </trkpt>
      <trkpt lat="44.0812" lon="3.44043">
        <ele>1282.06</ele>
        <time>2022-08-07T11:51:51Z</time>
      </trkpt>
      <trkpt lat="44.08124" lon="3.44034">
        <ele>1281.57</ele>
        <time>2022-08-07T11:52:02Z</time>
      </trkpt>
      <trkpt lat="44.0813" lon="3.44028">
        <ele>1283.02</ele>
        <time>2022-08-07T11:52:11Z</time>
      </trkpt>
      <trkpt lat="44.08139" lon="3.44026">
        <ele>1282.06</ele>
        <time>2022-08-07T11:52:22Z</time>
      </trkpt>
      <trkpt lat="44.0814" lon="3.44025">
        <ele>1282.06</ele>
        <time>2022-08-07T11:52:23Z</time>
      </trkpt>
      <trkpt lat="44.08152" lon="3.44029">
        <ele>1283.5</ele>
        <time>2022-08-07T11:52:37Z</time>
      </trkpt>
      <trkpt lat="44.08165" lon="3.44032">
        <ele>1284.94</ele>
        <time>2022-08-07T11:52:50Z</time>
      </trkpt>
      <trkpt lat="44.08176" lon="3.4404">
        <ele>1284.46</ele>
        <time>2022-08-07T11:53:02Z</time>
      </trkpt>
      <trkpt lat="44.08177" lon="3.44041">
        <ele>1284.46</ele>
        <time>2022-08-07T11:53:03Z</time>
      </trkpt>
      <trkpt lat="44.08178" lon="3.44043">
        <ele>1283.98</ele>
        <time>2022-08-07T11:53:05Z</time>
      </trkpt>
      <trkpt lat="44.08183" lon="3.44047">
        <ele>1283.5</ele>
        <time>2022-08-07T11:53:11Z</time>
      </trkpt>
      <trkpt lat="44.08187" lon="3.44053">
        <ele>1283.02</ele>
        <time>2022-08-07T11:53:16Z</time>
      </trkpt>
      <trkpt lat="44.08189" lon="3.44056">
        <ele>1282.54</ele>
        <time>2022-08-07T11:53:19Z</time>
      </trkpt>
      <trkpt lat="44.08194" lon="3.44061">
        <ele>1282.06</ele>
        <time>2022-08-07T11:53:24Z</time>
      </trkpt>
      <trkpt lat="44.08204" lon="3.44068">
        <ele>1282.54</ele>
        <time>2022-08-07T11:53:34Z</time>
      </trkpt>
      <trkpt lat="44.08207" lon="3.44071">
        <ele>1282.54</ele>
        <time>2022-08-07T11:53:37Z</time>
      </trkpt>
      <trkpt lat="44.0821" lon="3.44074">
        <ele>1282.54</ele>
        <time>2022-08-07T11:53:40Z</time>
      </trkpt>
      <trkpt lat="44.08211" lon="3.44076">
        <ele>1282.54</ele>
        <time>2022-08-07T11:53:42Z</time>
      </trkpt>
      <trkpt lat="44.08222" lon="3.44086">
        <ele>1282.54</ele>
        <time>2022-08-07T11:53:56Z</time>
      </trkpt>
      <trkpt lat="44.08224" lon="3.44089">
        <ele>1282.06</ele>
        <time>2022-08-07T11:53:59Z</time>
      </trkpt>
      <trkpt lat="44.08232" lon="3.44095">
        <ele>1282.06</ele>
        <time>2022-08-07T11:54:08Z</time>
      </trkpt>
      <trkpt lat="44.08234" lon="3.44099">
        <ele>1282.06</ele>
        <time>2022-08-07T11:54:11Z</time>
      </trkpt>
      <trkpt lat="44.0824" lon="3.44104">
        <ele>1282.06</ele>
        <time>2022-08-07T11:54:17Z</time>
      </trkpt>
      <trkpt lat="44.08248" lon="3.44107">
        <ele>1282.06</ele>
        <time>2022-08-07T11:54:24Z</time>
      </trkpt>
      <trkpt lat="44.08255" lon="3.44114">
        <ele>1280.61</ele>
        <time>2022-08-07T11:54:33Z</time>
      </trkpt>
      <trkpt lat="44.08258" lon="3.44113">
        <ele>1282.06</ele>
        <time>2022-08-07T11:54:44Z</time>
      </trkpt>
      <trkpt lat="44.0826" lon="3.44112">
        <ele>1283.02</ele>
        <time>2022-08-07T11:54:56Z</time>
      </trkpt>
      <trkpt lat="44.0826" lon="3.44112">
        <ele>1283.02</ele>
        <time>2022-08-07T11:54:57Z</time>
      </trkpt>
      <trkpt lat="44.08266" lon="3.44108">
        <ele>1283.5</ele>
        <time>2022-08-07T11:55:03Z</time>
      </trkpt>
      <trkpt lat="44.08268" lon="3.44102">
        <ele>1283.98</ele>
        <time>2022-08-07T11:55:08Z</time>
      </trkpt>
      <trkpt lat="44.08271" lon="3.44097">
        <ele>1283.5</ele>
        <time>2022-08-07T11:55:12Z</time>
      </trkpt>
      <trkpt lat="44.08274" lon="3.44093">
        <ele>1283.98</ele>
        <time>2022-08-07T11:55:16Z</time>
      </trkpt>
      <trkpt lat="44.08284" lon="3.44077">
        <ele>1283.5</ele>
        <time>2022-08-07T11:55:30Z</time>
      </trkpt>
      <trkpt lat="44.08295" lon="3.4407">
        <ele>1282.54</ele>
        <time>2022-08-07T11:55:44Z</time>
      </trkpt>
      <trkpt lat="44.08305" lon="3.44065">
        <ele>1281.09</ele>
        <time>2022-08-07T11:55:57Z</time>
      </trkpt>
      <trkpt lat="44.08305" lon="3.44064">
        <ele>1281.09</ele>
        <time>2022-08-07T11:55:58Z</time>
      </trkpt>
      <trkpt lat="44.0832" lon="3.44056">
        <ele>1280.61</ele>
        <time>2022-08-07T11:56:12Z</time>
      </trkpt>
      <trkpt lat="44.0833" lon="3.44052">
        <ele>1278.69</ele>
        <time>2022-08-07T11:56:22Z</time>
      </trkpt>
      <trkpt lat="44.08345" lon="3.44044">
        <ele>1277.25</ele>
        <time>2022-08-07T11:56:36Z</time>
      </trkpt>
      <trkpt lat="44.08353" lon="3.4404">
        <ele>1276.77</ele>
        <time>2022-08-07T11:56:45Z</time>
      </trkpt>
      <trkpt lat="44.08358" lon="3.44041">
        <ele>1276.29</ele>
        <time>2022-08-07T11:56:58Z</time>
      </trkpt>
      <trkpt lat="44.08361" lon="3.44036">
        <ele>1277.73</ele>
        <time>2022-08-07T11:57:15Z</time>
      </trkpt>
      <trkpt lat="44.08366" lon="3.44039">
        <ele>1275.33</ele>
        <time>2022-08-07T11:57:20Z</time>
      </trkpt>
      <trkpt lat="44.08373" lon="3.44039">
        <ele>1271.96</ele>
        <time>2022-08-07T11:57:39Z</time>
      </trkpt>
      <trkpt lat="44.08377" lon="3.44039">
        <ele>1268.6</ele>
        <time>2022-08-07T11:57:59Z</time>
      </trkpt>
      <trkpt lat="44.08379" lon="3.44037">
        <ele>1271.96</ele>
        <time>2022-08-07T11:58:11Z</time>
      </trkpt>
      <trkpt lat="44.0838" lon="3.44036">
        <ele>1271.96</ele>
        <time>2022-08-07T11:58:16Z</time>
      </trkpt>
      <trkpt lat="44.08386" lon="3.44019">
        <ele>1272.92</ele>
        <time>2022-08-07T11:58:31Z</time>
      </trkpt>
      <trkpt lat="44.08391" lon="3.44011">
        <ele>1270.52</ele>
        <time>2022-08-07T11:58:47Z</time>
      </trkpt>
      <trkpt lat="44.08399" lon="3.43997">
        <ele>1271.96</ele>
        <time>2022-08-07T11:59:02Z</time>
      </trkpt>
      <trkpt lat="44.08404" lon="3.43979">
        <ele>1271</ele>
        <time>2022-08-07T11:59:15Z</time>
      </trkpt>
      <trkpt lat="44.08414" lon="3.43959">
        <ele>1270.52</ele>
        <time>2022-08-07T11:59:28Z</time>
      </trkpt>
      <trkpt lat="44.08419" lon="3.43943">
        <ele>1269.56</ele>
        <time>2022-08-07T11:59:40Z</time>
      </trkpt>
      <trkpt lat="44.08422" lon="3.43924">
        <ele>1268.12</ele>
        <time>2022-08-07T11:59:53Z</time>
      </trkpt>
      <trkpt lat="44.08423" lon="3.43911">
        <ele>1262.83</ele>
        <time>2022-08-07T12:00:05Z</time>
      </trkpt>
      <trkpt lat="44.08428" lon="3.439">
        <ele>1261.87</ele>
        <time>2022-08-07T12:00:09Z</time>
      </trkpt>
      <trkpt lat="44.08432" lon="3.43892">
        <ele>1261.87</ele>
        <time>2022-08-07T12:00:14Z</time>
      </trkpt>
      <trkpt lat="44.08435" lon="3.43888">
        <ele>1261.87</ele>
        <time>2022-08-07T12:00:17Z</time>
      </trkpt>
      <trkpt lat="44.08437" lon="3.43883">
        <ele>1261.87</ele>
        <time>2022-08-07T12:00:21Z</time>
      </trkpt>
      <trkpt lat="44.08447" lon="3.43869">
        <ele>1263.31</ele>
        <time>2022-08-07T12:00:31Z</time>
      </trkpt>
      <trkpt lat="44.08454" lon="3.43863">
        <ele>1263.79</ele>
        <time>2022-08-07T12:00:37Z</time>
      </trkpt>
      <trkpt lat="44.0846" lon="3.43856">
        <ele>1264.27</ele>
        <time>2022-08-07T12:00:44Z</time>
      </trkpt>
      <trkpt lat="44.08464" lon="3.43853">
        <ele>1264.27</ele>
        <time>2022-08-07T12:00:47Z</time>
      </trkpt>
      <trkpt lat="44.08468" lon="3.43847">
        <ele>1264.75</ele>
        <time>2022-08-07T12:00:51Z</time>
      </trkpt>
      <trkpt lat="44.08478" lon="3.43834">
        <ele>1263.79</ele>
        <time>2022-08-07T12:01:05Z</time>
      </trkpt>
      <trkpt lat="44.08482" lon="3.43828">
        <ele>1263.79</ele>
        <time>2022-08-07T12:01:10Z</time>
      </trkpt>
      <trkpt lat="44.08486" lon="3.43821">
        <ele>1264.27</ele>
        <time>2022-08-07T12:01:15Z</time>
      </trkpt>
      <trkpt lat="44.08489" lon="3.43816">
        <ele>1263.79</ele>
        <time>2022-08-07T12:01:19Z</time>
      </trkpt>
      <trkpt lat="44.08495" lon="3.43809">
        <ele>1263.31</ele>
        <time>2022-08-07T12:01:25Z</time>
      </trkpt>
      <trkpt lat="44.08507" lon="3.43798">
        <ele>1265.71</ele>
        <time>2022-08-07T12:01:38Z</time>
      </trkpt>
      <trkpt lat="44.08513" lon="3.43796">
        <ele>1265.23</ele>
        <time>2022-08-07T12:01:50Z</time>
      </trkpt>
      <trkpt lat="44.08522" lon="3.43788">
        <ele>1263.79</ele>
        <time>2022-08-07T12:02:05Z</time>
      </trkpt>
      <trkpt lat="44.08523" lon="3.43787">
        <ele>1263.31</ele>
        <time>2022-08-07T12:02:06Z</time>
      </trkpt>
      <trkpt lat="44.08536" lon="3.43781">
        <ele>1262.35</ele>
        <time>2022-08-07T12:02:20Z</time>
      </trkpt>
      <trkpt lat="44.08537" lon="3.43781">
        <ele>1261.87</ele>
        <time>2022-08-07T12:02:21Z</time>
      </trkpt>
      <trkpt lat="44.08553" lon="3.43777">
        <ele>1261.87</ele>
        <time>2022-08-07T12:02:34Z</time>
      </trkpt>
      <trkpt lat="44.0857" lon="3.43772">
        <ele>1258.98</ele>
        <time>2022-08-07T12:02:49Z</time>
      </trkpt>
      <trkpt lat="44.08585" lon="3.43767">
        <ele>1258.5</ele>
        <time>2022-08-07T12:03:02Z</time>
      </trkpt>
      <trkpt lat="44.08589" lon="3.43765">
        <ele>1258.5</ele>
        <time>2022-08-07T12:03:05Z</time>
      </trkpt>
      <trkpt lat="44.08593" lon="3.43763">
        <ele>1258.5</ele>
        <time>2022-08-07T12:03:08Z</time>
      </trkpt>
      <trkpt lat="44.08601" lon="3.4376">
        <ele>1258.02</ele>
        <time>2022-08-07T12:03:15Z</time>
      </trkpt>
      <trkpt lat="44.08605" lon="3.43757">
        <ele>1258.5</ele>
        <time>2022-08-07T12:03:18Z</time>
      </trkpt>
      <trkpt lat="44.08615" lon="3.43757">
        <ele>1258.5</ele>
        <time>2022-08-07T12:03:28Z</time>
      </trkpt>
      <trkpt lat="44.08623" lon="3.43754">
        <ele>1258.02</ele>
        <time>2022-08-07T12:03:34Z</time>
      </trkpt>
      <trkpt lat="44.08635" lon="3.43749">
        <ele>1258.02</ele>
        <time>2022-08-07T12:03:44Z</time>
      </trkpt>
      <trkpt lat="44.08643" lon="3.43743">
        <ele>1257.06</ele>
        <time>2022-08-07T12:03:51Z</time>
      </trkpt>
      <trkpt lat="44.08648" lon="3.43739">
        <ele>1256.58</ele>
        <time>2022-08-07T12:03:56Z</time>
      </trkpt>
      <trkpt lat="44.08662" lon="3.43728">
        <ele>1257.06</ele>
        <time>2022-08-07T12:04:12Z</time>
      </trkpt>
      <trkpt lat="44.08667" lon="3.43725">
        <ele>1257.54</ele>
        <time>2022-08-07T12:04:17Z</time>
      </trkpt>
      <trkpt lat="44.08683" lon="3.43715">
        <ele>1257.06</ele>
        <time>2022-08-07T12:04:32Z</time>
      </trkpt>
      <trkpt lat="44.08689" lon="3.43712">
        <ele>1256.1</ele>
        <time>2022-08-07T12:04:37Z</time>
      </trkpt>
      <trkpt lat="44.08699" lon="3.43709">
        <ele>1257.54</ele>
        <time>2022-08-07T12:04:51Z</time>
      </trkpt>
      <trkpt lat="44.08702" lon="3.43703">
        <ele>1254.66</ele>
        <time>2022-08-07T12:05:08Z</time>
      </trkpt>
      <trkpt lat="44.08705" lon="3.437">
        <ele>1252.74</ele>
        <time>2022-08-07T12:05:13Z</time>
      </trkpt>
      <trkpt lat="44.08725" lon="3.43691">
        <ele>1249.37</ele>
        <time>2022-08-07T12:05:30Z</time>
      </trkpt>
      <trkpt lat="44.08741" lon="3.43675">
        <ele>1249.85</ele>
        <time>2022-08-07T12:05:44Z</time>
      </trkpt>
      <trkpt lat="44.08753" lon="3.43667">
        <ele>1248.89</ele>
        <time>2022-08-07T12:05:56Z</time>
      </trkpt>
      <trkpt lat="44.08762" lon="3.43658">
        <ele>1248.41</ele>
        <time>2022-08-07T12:06:08Z</time>
      </trkpt>
      <trkpt lat="44.08767" lon="3.43653">
        <ele>1248.41</ele>
        <time>2022-08-07T12:06:14Z</time>
      </trkpt>
      <trkpt lat="44.08786" lon="3.43647">
        <ele>1250.33</ele>
        <time>2022-08-07T12:06:28Z</time>
      </trkpt>
      <trkpt lat="44.08795" lon="3.43638">
        <ele>1246.49</ele>
        <time>2022-08-07T12:06:42Z</time>
      </trkpt>
      <trkpt lat="44.08807" lon="3.43628">
        <ele>1243.6</ele>
        <time>2022-08-07T12:06:56Z</time>
      </trkpt>
      <trkpt lat="44.08824" lon="3.43608">
        <ele>1242.16</ele>
        <time>2022-08-07T12:07:09Z</time>
      </trkpt>
      <trkpt lat="44.0883" lon="3.43599">
        <ele>1244.08</ele>
        <time>2022-08-07T12:07:23Z</time>
      </trkpt>
      <trkpt lat="44.08836" lon="3.4359">
        <ele>1243.6</ele>
        <time>2022-08-07T12:07:37Z</time>
      </trkpt>
      <trkpt lat="44.08851" lon="3.4358">
        <ele>1242.64</ele>
        <time>2022-08-07T12:07:49Z</time>
      </trkpt>
      <trkpt lat="44.08864" lon="3.43573">
        <ele>1239.28</ele>
        <time>2022-08-07T12:08:05Z</time>
      </trkpt>
      <trkpt lat="44.08879" lon="3.43561">
        <ele>1237.83</ele>
        <time>2022-08-07T12:08:18Z</time>
      </trkpt>
      <trkpt lat="44.08889" lon="3.4355">
        <ele>1237.35</ele>
        <time>2022-08-07T12:08:30Z</time>
      </trkpt>
      <trkpt lat="44.08895" lon="3.43537">
        <ele>1236.87</ele>
        <time>2022-08-07T12:08:42Z</time>
      </trkpt>
      <trkpt lat="44.08895" lon="3.43536">
        <ele>1236.87</ele>
        <time>2022-08-07T12:08:43Z</time>
      </trkpt>
      <trkpt lat="44.08906" lon="3.43518">
        <ele>1233.51</ele>
        <time>2022-08-07T12:08:57Z</time>
      </trkpt>
      <trkpt lat="44.08912" lon="3.43508">
        <ele>1231.11</ele>
        <time>2022-08-07T12:09:09Z</time>
      </trkpt>
      <trkpt lat="44.0893" lon="3.43496">
        <ele>1232.55</ele>
        <time>2022-08-07T12:09:23Z</time>
      </trkpt>
      <trkpt lat="44.08934" lon="3.43484">
        <ele>1230.14</ele>
        <time>2022-08-07T12:09:34Z</time>
      </trkpt>
      <trkpt lat="44.08942" lon="3.43461">
        <ele>1230.14</ele>
        <time>2022-08-07T12:09:49Z</time>
      </trkpt>
      <trkpt lat="44.08949" lon="3.43445">
        <ele>1228.7</ele>
        <time>2022-08-07T12:10:02Z</time>
      </trkpt>
      <trkpt lat="44.08955" lon="3.43437">
        <ele>1225.82</ele>
        <time>2022-08-07T12:10:13Z</time>
      </trkpt>
      <trkpt lat="44.08964" lon="3.43427">
        <ele>1221.01</ele>
        <time>2022-08-07T12:10:25Z</time>
      </trkpt>
      <trkpt lat="44.08964" lon="3.43425">
        <ele>1220.53</ele>
        <time>2022-08-07T12:10:27Z</time>
      </trkpt>
      <trkpt lat="44.08968" lon="3.43411">
        <ele>1220.05</ele>
        <time>2022-08-07T12:10:37Z</time>
      </trkpt>
      <trkpt lat="44.08973" lon="3.43395">
        <ele>1220.53</ele>
        <time>2022-08-07T12:10:48Z</time>
      </trkpt>
      <trkpt lat="44.08983" lon="3.43389">
        <ele>1221.49</ele>
        <time>2022-08-07T12:11:00Z</time>
      </trkpt>
      <trkpt lat="44.08999" lon="3.43387">
        <ele>1221.97</ele>
        <time>2022-08-07T12:11:16Z</time>
      </trkpt>
      <trkpt lat="44.09008" lon="3.43381">
        <ele>1219.57</ele>
        <time>2022-08-07T12:11:29Z</time>
      </trkpt>
      <trkpt lat="44.09019" lon="3.43371">
        <ele>1216.69</ele>
        <time>2022-08-07T12:11:46Z</time>
      </trkpt>
      <trkpt lat="44.09022" lon="3.43369">
        <ele>1216.21</ele>
        <time>2022-08-07T12:12:00Z</time>
      </trkpt>
      <trkpt lat="44.09019" lon="3.43367">
        <ele>1214.76</ele>
        <time>2022-08-07T12:12:25Z</time>
      </trkpt>
      <trkpt lat="44.09015" lon="3.4336">
        <ele>1216.21</ele>
        <time>2022-08-07T12:12:40Z</time>
      </trkpt>
      <trkpt lat="44.09007" lon="3.43355">
        <ele>1219.09</ele>
        <time>2022-08-07T12:12:52Z</time>
      </trkpt>
      <trkpt lat="44.09004" lon="3.43354">
        <ele>1219.57</ele>
        <time>2022-08-07T12:12:55Z</time>
      </trkpt>
      <trkpt lat="44.08993" lon="3.43349">
        <ele>1220.53</ele>
        <time>2022-08-07T12:13:09Z</time>
      </trkpt>
      <trkpt lat="44.08979" lon="3.43342">
        <ele>1221.49</ele>
        <time>2022-08-07T12:13:21Z</time>
      </trkpt>
      <trkpt lat="44.08964" lon="3.43334">
        <ele>1221.01</ele>
        <time>2022-08-07T12:13:34Z</time>
      </trkpt>
      <trkpt lat="44.08947" lon="3.43328">
        <ele>1221.49</ele>
        <time>2022-08-07T12:13:48Z</time>
      </trkpt>
      <trkpt lat="44.08936" lon="3.43322">
        <ele>1221.97</ele>
        <time>2022-08-07T12:14:02Z</time>
      </trkpt>
      <trkpt lat="44.08921" lon="3.43313">
        <ele>1221.49</ele>
        <time>2022-08-07T12:14:16Z</time>
      </trkpt>
      <trkpt lat="44.08905" lon="3.43308">
        <ele>1221.49</ele>
        <time>2022-08-07T12:14:30Z</time>
      </trkpt>
      <trkpt lat="44.08888" lon="3.43299">
        <ele>1221.49</ele>
        <time>2022-08-07T12:14:46Z</time>
      </trkpt>
      <trkpt lat="44.08876" lon="3.43292">
        <ele>1222.45</ele>
        <time>2022-08-07T12:14:59Z</time>
      </trkpt>
      <trkpt lat="44.08865" lon="3.43281">
        <ele>1223.9</ele>
        <time>2022-08-07T12:15:12Z</time>
      </trkpt>
      <trkpt lat="44.08858" lon="3.43271">
        <ele>1224.86</ele>
        <time>2022-08-07T12:15:20Z</time>
      </trkpt>
      <trkpt lat="44.08847" lon="3.43252">
        <ele>1225.34</ele>
        <time>2022-08-07T12:15:36Z</time>
      </trkpt>
      <trkpt lat="44.08835" lon="3.43235">
        <ele>1226.3</ele>
        <time>2022-08-07T12:15:49Z</time>
      </trkpt>
      <trkpt lat="44.0883" lon="3.43227">
        <ele>1226.78</ele>
        <time>2022-08-07T12:15:54Z</time>
      </trkpt>
      <trkpt lat="44.08828" lon="3.43224">
        <ele>1226.3</ele>
        <time>2022-08-07T12:15:57Z</time>
      </trkpt>
      <trkpt lat="44.08817" lon="3.43207">
        <ele>1225.34</ele>
        <time>2022-08-07T12:16:11Z</time>
      </trkpt>
      <trkpt lat="44.08808" lon="3.43189">
        <ele>1228.22</ele>
        <time>2022-08-07T12:16:25Z</time>
      </trkpt>
      <trkpt lat="44.08799" lon="3.43175">
        <ele>1227.74</ele>
        <time>2022-08-07T12:16:38Z</time>
      </trkpt>
      <trkpt lat="44.08791" lon="3.43166">
        <ele>1225.82</ele>
        <time>2022-08-07T12:16:49Z</time>
      </trkpt>
      <trkpt lat="44.08788" lon="3.43164">
        <ele>1225.82</ele>
        <time>2022-08-07T12:16:53Z</time>
      </trkpt>
      <trkpt lat="44.08778" lon="3.43144">
        <ele>1225.34</ele>
        <time>2022-08-07T12:17:05Z</time>
      </trkpt>
      <trkpt lat="44.08771" lon="3.43133">
        <ele>1223.9</ele>
        <time>2022-08-07T12:17:16Z</time>
      </trkpt>
      <trkpt lat="44.08765" lon="3.43122">
        <ele>1222.93</ele>
        <time>2022-08-07T12:17:27Z</time>
      </trkpt>
      <trkpt lat="44.08757" lon="3.43106">
        <ele>1223.42</ele>
        <time>2022-08-07T12:17:39Z</time>
      </trkpt>
      <trkpt lat="44.08751" lon="3.43092">
        <ele>1223.42</ele>
        <time>2022-08-07T12:17:51Z</time>
      </trkpt>
      <trkpt lat="44.08743" lon="3.43078">
        <ele>1223.9</ele>
        <time>2022-08-07T12:18:04Z</time>
      </trkpt>
      <trkpt lat="44.08733" lon="3.43063">
        <ele>1224.86</ele>
        <time>2022-08-07T12:18:17Z</time>
      </trkpt>
      <trkpt lat="44.0872" lon="3.43037">
        <ele>1227.74</ele>
        <time>2022-08-07T12:18:29Z</time>
      </trkpt>
      <trkpt lat="44.08712" lon="3.43018">
        <ele>1227.26</ele>
        <time>2022-08-07T12:18:42Z</time>
      </trkpt>
      <trkpt lat="44.08708" lon="3.43004">
        <ele>1227.74</ele>
        <time>2022-08-07T12:18:54Z</time>
      </trkpt>
      <trkpt lat="44.08697" lon="3.42981">
        <ele>1229.66</ele>
        <time>2022-08-07T12:19:09Z</time>
      </trkpt>
      <trkpt lat="44.08693" lon="3.42961">
        <ele>1229.66</ele>
        <time>2022-08-07T12:19:21Z</time>
      </trkpt>
      <trkpt lat="44.08689" lon="3.42944">
        <ele>1230.62</ele>
        <time>2022-08-07T12:19:35Z</time>
      </trkpt>
      <trkpt lat="44.08682" lon="3.42928">
        <ele>1231.59</ele>
        <time>2022-08-07T12:19:48Z</time>
      </trkpt>
      <trkpt lat="44.08674" lon="3.42918">
        <ele>1232.07</ele>
        <time>2022-08-07T12:20:01Z</time>
      </trkpt>
      <trkpt lat="44.08662" lon="3.42902">
        <ele>1232.55</ele>
        <time>2022-08-07T12:20:14Z</time>
      </trkpt>
      <trkpt lat="44.08646" lon="3.42891">
        <ele>1233.51</ele>
        <time>2022-08-07T12:20:29Z</time>
      </trkpt>
      <trkpt lat="44.08629" lon="3.42883">
        <ele>1234.95</ele>
        <time>2022-08-07T12:20:42Z</time>
      </trkpt>
      <trkpt lat="44.08613" lon="3.42884">
        <ele>1233.03</ele>
        <time>2022-08-07T12:20:56Z</time>
      </trkpt>
      <trkpt lat="44.08594" lon="3.42883">
        <ele>1234.47</ele>
        <time>2022-08-07T12:21:13Z</time>
      </trkpt>
      <trkpt lat="44.08577" lon="3.42885">
        <ele>1233.99</ele>
        <time>2022-08-07T12:21:28Z</time>
      </trkpt>
      <trkpt lat="44.08574" lon="3.42872">
        <ele>1232.55</ele>
        <time>2022-08-07T12:21:41Z</time>
      </trkpt>
      <trkpt lat="44.08572" lon="3.4287">
        <ele>1231.59</ele>
        <time>2022-08-07T12:21:53Z</time>
      </trkpt>
      <trkpt lat="44.08572" lon="3.42869">
        <ele>1231.11</ele>
        <time>2022-08-07T12:22:16Z</time>
      </trkpt>
      <trkpt lat="44.08572" lon="3.42867">
        <ele>1230.62</ele>
        <time>2022-08-07T12:22:37Z</time>
      </trkpt>
      <trkpt lat="44.08573" lon="3.42869">
        <ele>1231.11</ele>
        <time>2022-08-07T12:23:06Z</time>
      </trkpt>
      <trkpt lat="44.08573" lon="3.42868">
        <ele>1230.14</ele>
        <time>2022-08-07T12:23:18Z</time>
      </trkpt>
      <trkpt lat="44.08574" lon="3.4287">
        <ele>1228.22</ele>
        <time>2022-08-07T12:23:32Z</time>
      </trkpt>
      <trkpt lat="44.08575" lon="3.4287">
        <ele>1226.78</ele>
        <time>2022-08-07T12:23:48Z</time>
      </trkpt>
      <trkpt lat="44.08574" lon="3.42872">
        <ele>1225.82</ele>
        <time>2022-08-07T12:24:04Z</time>
      </trkpt>
      <trkpt lat="44.08574" lon="3.42873">
        <ele>1226.78</ele>
        <time>2022-08-07T12:24:22Z</time>
      </trkpt>
      <trkpt lat="44.08574" lon="3.42879">
        <ele>1225.34</ele>
        <time>2022-08-07T12:24:33Z</time>
      </trkpt>
      <trkpt lat="44.08566" lon="3.42888">
        <ele>1223.9</ele>
        <time>2022-08-07T12:24:53Z</time>
      </trkpt>
      <trkpt lat="44.08552" lon="3.42897">
        <ele>1221.97</ele>
        <time>2022-08-07T12:25:07Z</time>
      </trkpt>
      <trkpt lat="44.08542" lon="3.42899">
        <ele>1219.57</ele>
        <time>2022-08-07T12:25:21Z</time>
      </trkpt>
      <trkpt lat="44.08531" lon="3.42891">
        <ele>1221.49</ele>
        <time>2022-08-07T12:25:35Z</time>
      </trkpt>
      <trkpt lat="44.08525" lon="3.42891">
        <ele>1220.53</ele>
        <time>2022-08-07T12:25:41Z</time>
      </trkpt>
      <trkpt lat="44.08515" lon="3.42889">
        <ele>1220.53</ele>
        <time>2022-08-07T12:25:47Z</time>
      </trkpt>
      <trkpt lat="44.08497" lon="3.42881">
        <ele>1220.05</ele>
        <time>2022-08-07T12:26:01Z</time>
      </trkpt>
      <trkpt lat="44.08487" lon="3.42879">
        <ele>1220.05</ele>
        <time>2022-08-07T12:26:10Z</time>
      </trkpt>
      <trkpt lat="44.08475" lon="3.42876">
        <ele>1219.57</ele>
        <time>2022-08-07T12:26:21Z</time>
      </trkpt>
      <trkpt lat="44.08462" lon="3.42877">
        <ele>1218.61</ele>
        <time>2022-08-07T12:26:32Z</time>
      </trkpt>
      <trkpt lat="44.08442" lon="3.42873">
        <ele>1219.09</ele>
        <time>2022-08-07T12:26:45Z</time>
      </trkpt>
      <trkpt lat="44.08427" lon="3.42869">
        <ele>1219.57</ele>
        <time>2022-08-07T12:26:58Z</time>
      </trkpt>
      <trkpt lat="44.08417" lon="3.42865">
        <ele>1219.09</ele>
        <time>2022-08-07T12:27:09Z</time>
      </trkpt>
      <trkpt lat="44.08402" lon="3.42857">
        <ele>1221.49</ele>
        <time>2022-08-07T12:27:23Z</time>
      </trkpt>
      <trkpt lat="44.08394" lon="3.42856">
        <ele>1221.97</ele>
        <time>2022-08-07T12:27:28Z</time>
      </trkpt>
      <trkpt lat="44.08379" lon="3.42849">
        <ele>1223.9</ele>
        <time>2022-08-07T12:27:40Z</time>
      </trkpt>
      <trkpt lat="44.08365" lon="3.42849">
        <ele>1223.9</ele>
        <time>2022-08-07T12:27:56Z</time>
      </trkpt>
      <trkpt lat="44.08358" lon="3.42851">
        <ele>1222.93</ele>
        <time>2022-08-07T12:28:01Z</time>
      </trkpt>
      <trkpt lat="44.08347" lon="3.4286">
        <ele>1221.01</ele>
        <time>2022-08-07T12:28:13Z</time>
      </trkpt>
      <trkpt lat="44.08337" lon="3.42861">
        <ele>1219.09</ele>
        <time>2022-08-07T12:28:24Z</time>
      </trkpt>
      <trkpt lat="44.08323" lon="3.42867">
        <ele>1216.21</ele>
        <time>2022-08-07T12:28:37Z</time>
      </trkpt>
      <trkpt lat="44.08311" lon="3.42879">
        <ele>1215.24</ele>
        <time>2022-08-07T12:28:49Z</time>
      </trkpt>
      <trkpt lat="44.08304" lon="3.42883">
        <ele>1216.21</ele>
        <time>2022-08-07T12:28:55Z</time>
      </trkpt>
      <trkpt lat="44.08292" lon="3.42891">
        <ele>1217.65</ele>
        <time>2022-08-07T12:29:08Z</time>
      </trkpt>
      <trkpt lat="44.08284" lon="3.42896">
        <ele>1218.13</ele>
        <time>2022-08-07T12:29:15Z</time>
      </trkpt>
      <trkpt lat="44.08269" lon="3.42905">
        <ele>1218.13</ele>
        <time>2022-08-07T12:29:27Z</time>
      </trkpt>
      <trkpt lat="44.08255" lon="3.42909">
        <ele>1218.13</ele>
        <time>2022-08-07T12:29:40Z</time>
      </trkpt>
      <trkpt lat="44.0825" lon="3.42911">
        <ele>1218.13</ele>
        <time>2022-08-07T12:29:44Z</time>
      </trkpt>
      <trkpt lat="44.08246" lon="3.42911">
        <ele>1218.61</ele>
        <time>2022-08-07T12:29:48Z</time>
      </trkpt>
      <trkpt lat="44.08241" lon="3.42912">
        <ele>1219.09</ele>
        <time>2022-08-07T12:29:55Z</time>
      </trkpt>
      <trkpt lat="44.08223" lon="3.42912">
        <ele>1219.57</ele>
        <time>2022-08-07T12:30:11Z</time>
      </trkpt>
      <trkpt lat="44.0821" lon="3.42912">
        <ele>1218.61</ele>
        <time>2022-08-07T12:30:24Z</time>
      </trkpt>
      <trkpt lat="44.08204" lon="3.42914">
        <ele>1217.17</ele>
        <time>2022-08-07T12:30:29Z</time>
      </trkpt>
      <trkpt lat="44.08198" lon="3.42914">
        <ele>1216.69</ele>
        <time>2022-08-07T12:30:34Z</time>
      </trkpt>
      <trkpt lat="44.08189" lon="3.4291">
        <ele>1215.24</ele>
        <time>2022-08-07T12:30:46Z</time>
      </trkpt>
      <trkpt lat="44.08184" lon="3.42906">
        <ele>1215.24</ele>
        <time>2022-08-07T12:30:58Z</time>
      </trkpt>
      <trkpt lat="44.0818" lon="3.42901">
        <ele>1215.24</ele>
        <time>2022-08-07T12:31:08Z</time>
      </trkpt>
      <trkpt lat="44.08174" lon="3.42898">
        <ele>1217.17</ele>
        <time>2022-08-07T12:31:22Z</time>
      </trkpt>
      <trkpt lat="44.08164" lon="3.42886">
        <ele>1216.69</ele>
        <time>2022-08-07T12:31:35Z</time>
      </trkpt>
      <trkpt lat="44.08158" lon="3.42881">
        <ele>1216.69</ele>
        <time>2022-08-07T12:31:42Z</time>
      </trkpt>
      <trkpt lat="44.08156" lon="3.42878">
        <ele>1216.21</ele>
        <time>2022-08-07T12:31:45Z</time>
      </trkpt>
      <trkpt lat="44.08153" lon="3.42873">
        <ele>1215.72</ele>
        <time>2022-08-07T12:31:49Z</time>
      </trkpt>
      <trkpt lat="44.08147" lon="3.42868">
        <ele>1215.72</ele>
        <time>2022-08-07T12:31:54Z</time>
      </trkpt>
      <trkpt lat="44.08142" lon="3.42863">
        <ele>1216.69</ele>
        <time>2022-08-07T12:31:59Z</time>
      </trkpt>
      <trkpt lat="44.08128" lon="3.42845">
        <ele>1217.65</ele>
        <time>2022-08-07T12:32:14Z</time>
      </trkpt>
      <trkpt lat="44.08126" lon="3.42842">
        <ele>1218.61</ele>
        <time>2022-08-07T12:32:17Z</time>
      </trkpt>
      <trkpt lat="44.08123" lon="3.42839">
        <ele>1219.57</ele>
        <time>2022-08-07T12:32:20Z</time>
      </trkpt>
      <trkpt lat="44.08113" lon="3.42828">
        <ele>1220.53</ele>
        <time>2022-08-07T12:32:33Z</time>
      </trkpt>
      <trkpt lat="44.08104" lon="3.42815">
        <ele>1222.93</ele>
        <time>2022-08-07T12:32:47Z</time>
      </trkpt>
      <trkpt lat="44.08097" lon="3.42806">
        <ele>1222.45</ele>
        <time>2022-08-07T12:33:01Z</time>
      </trkpt>
      <trkpt lat="44.0809" lon="3.42795">
        <ele>1224.86</ele>
        <time>2022-08-07T12:33:14Z</time>
      </trkpt>
      <trkpt lat="44.08086" lon="3.42789">
        <ele>1226.3</ele>
        <time>2022-08-07T12:33:22Z</time>
      </trkpt>
      <trkpt lat="44.08077" lon="3.42779">
        <ele>1228.7</ele>
        <time>2022-08-07T12:33:36Z</time>
      </trkpt>
      <trkpt lat="44.08069" lon="3.42774">
        <ele>1229.18</ele>
        <time>2022-08-07T12:33:48Z</time>
      </trkpt>
      <trkpt lat="44.0807" lon="3.42773">
        <ele>1230.14</ele>
        <time>2022-08-07T12:34:04Z</time>
      </trkpt>
      <trkpt lat="44.08064" lon="3.4277">
        <ele>1231.11</ele>
        <time>2022-08-07T12:34:20Z</time>
      </trkpt>
      <trkpt lat="44.08054" lon="3.42763">
        <ele>1231.11</ele>
        <time>2022-08-07T12:34:33Z</time>
      </trkpt>
      <trkpt lat="44.0805" lon="3.42755">
        <ele>1231.11</ele>
        <time>2022-08-07T12:34:44Z</time>
      </trkpt>
      <trkpt lat="44.08049" lon="3.42754">
        <ele>1230.62</ele>
        <time>2022-08-07T12:34:45Z</time>
      </trkpt>
      <trkpt lat="44.08043" lon="3.42746">
        <ele>1229.18</ele>
        <time>2022-08-07T12:34:56Z</time>
      </trkpt>
      <trkpt lat="44.08038" lon="3.42734">
        <ele>1226.78</ele>
        <time>2022-08-07T12:35:10Z</time>
      </trkpt>
      <trkpt lat="44.08031" lon="3.42726">
        <ele>1225.34</ele>
        <time>2022-08-07T12:35:20Z</time>
      </trkpt>
      <trkpt lat="44.08029" lon="3.4272">
        <ele>1224.86</ele>
        <time>2022-08-07T12:35:25Z</time>
      </trkpt>
      <trkpt lat="44.08025" lon="3.42717">
        <ele>1223.9</ele>
        <time>2022-08-07T12:35:29Z</time>
      </trkpt>
      <trkpt lat="44.08024" lon="3.42715">
        <ele>1223.9</ele>
        <time>2022-08-07T12:35:31Z</time>
      </trkpt>
      <trkpt lat="44.08022" lon="3.4271">
        <ele>1223.42</ele>
        <time>2022-08-07T12:35:34Z</time>
      </trkpt>
      <trkpt lat="44.08018" lon="3.42695">
        <ele>1221.97</ele>
        <time>2022-08-07T12:35:48Z</time>
      </trkpt>
      <trkpt lat="44.08015" lon="3.42683">
        <ele>1219.57</ele>
        <time>2022-08-07T12:35:58Z</time>
      </trkpt>
      <trkpt lat="44.08013" lon="3.42675">
        <ele>1218.61</ele>
        <time>2022-08-07T12:36:04Z</time>
      </trkpt>
      <trkpt lat="44.0801" lon="3.42671">
        <ele>1218.13</ele>
        <time>2022-08-07T12:36:08Z</time>
      </trkpt>
      <trkpt lat="44.08008" lon="3.42667">
        <ele>1218.61</ele>
        <time>2022-08-07T12:36:11Z</time>
      </trkpt>
      <trkpt lat="44.08007" lon="3.42661">
        <ele>1218.13</ele>
        <time>2022-08-07T12:36:16Z</time>
      </trkpt>
      <trkpt lat="44.07998" lon="3.42651">
        <ele>1218.13</ele>
        <time>2022-08-07T12:36:28Z</time>
      </trkpt>
      <trkpt lat="44.07996" lon="3.4265">
        <ele>1218.13</ele>
        <time>2022-08-07T12:36:31Z</time>
      </trkpt>
      <trkpt lat="44.07989" lon="3.42644">
        <ele>1218.61</ele>
        <time>2022-08-07T12:36:38Z</time>
      </trkpt>
      <trkpt lat="44.07985" lon="3.42639">
        <ele>1218.13</ele>
        <time>2022-08-07T12:36:42Z</time>
      </trkpt>
      <trkpt lat="44.07981" lon="3.42636">
        <ele>1218.13</ele>
        <time>2022-08-07T12:36:46Z</time>
      </trkpt>
      <trkpt lat="44.0797" lon="3.42627">
        <ele>1216.21</ele>
        <time>2022-08-07T12:36:59Z</time>
      </trkpt>
      <trkpt lat="44.07957" lon="3.42625">
        <ele>1214.76</ele>
        <time>2022-08-07T12:37:10Z</time>
      </trkpt>
      <trkpt lat="44.07945" lon="3.42621">
        <ele>1214.28</ele>
        <time>2022-08-07T12:37:21Z</time>
      </trkpt>
      <trkpt lat="44.07938" lon="3.42616">
        <ele>1213.8</ele>
        <time>2022-08-07T12:37:27Z</time>
      </trkpt>
      <trkpt lat="44.07934" lon="3.42614">
        <ele>1213.32</ele>
        <time>2022-08-07T12:37:32Z</time>
      </trkpt>
      <trkpt lat="44.0793" lon="3.42611">
        <ele>1213.32</ele>
        <time>2022-08-07T12:37:36Z</time>
      </trkpt>
      <trkpt lat="44.07921" lon="3.42607">
        <ele>1211.88</ele>
        <time>2022-08-07T12:37:44Z</time>
      </trkpt>
      <trkpt lat="44.07919" lon="3.42608">
        <ele>1211.4</ele>
        <time>2022-08-07T12:37:46Z</time>
      </trkpt>
      <trkpt lat="44.07904" lon="3.42604">
        <ele>1210.44</ele>
        <time>2022-08-07T12:38:00Z</time>
      </trkpt>
      <trkpt lat="44.07899" lon="3.42602">
        <ele>1209.96</ele>
        <time>2022-08-07T12:38:04Z</time>
      </trkpt>
      <trkpt lat="44.07888" lon="3.42597">
        <ele>1208.51</ele>
        <time>2022-08-07T12:38:18Z</time>
      </trkpt>
      <trkpt lat="44.07882" lon="3.42599">
        <ele>1207.07</ele>
        <time>2022-08-07T12:38:23Z</time>
      </trkpt>
      <trkpt lat="44.0787" lon="3.42596">
        <ele>1206.11</ele>
        <time>2022-08-07T12:38:32Z</time>
      </trkpt>
      <trkpt lat="44.07858" lon="3.42596">
        <ele>1204.67</ele>
        <time>2022-08-07T12:38:43Z</time>
      </trkpt>
      <trkpt lat="44.07839" lon="3.42593">
        <ele>1205.15</ele>
        <time>2022-08-07T12:38:59Z</time>
      </trkpt>
      <trkpt lat="44.07828" lon="3.42591">
        <ele>1201.79</ele>
        <time>2022-08-07T12:39:11Z</time>
      </trkpt>
      <trkpt lat="44.07817" lon="3.42595">
        <ele>1195.06</ele>
        <time>2022-08-07T12:39:22Z</time>
      </trkpt>
      <trkpt lat="44.07811" lon="3.42587">
        <ele>1190.73</ele>
        <time>2022-08-07T12:39:35Z</time>
      </trkpt>
      <trkpt lat="44.07802" lon="3.42576">
        <ele>1195.06</ele>
        <time>2022-08-07T12:39:47Z</time>
      </trkpt>
      <trkpt lat="44.07799" lon="3.42573">
        <ele>1195.06</ele>
        <time>2022-08-07T12:40:00Z</time>
      </trkpt>
      <trkpt lat="44.07784" lon="3.4256">
        <ele>1202.75</ele>
        <time>2022-08-07T12:40:16Z</time>
      </trkpt>
      <trkpt lat="44.07775" lon="3.42553">
        <ele>1209</ele>
        <time>2022-08-07T12:40:28Z</time>
      </trkpt>
      <trkpt lat="44.07763" lon="3.42547">
        <ele>1213.32</ele>
        <time>2022-08-07T12:40:40Z</time>
      </trkpt>
      <trkpt lat="44.07758" lon="3.42542">
        <ele>1215.72</ele>
        <time>2022-08-07T12:40:48Z</time>
      </trkpt>
      <trkpt lat="44.0775" lon="3.42533">
        <ele>1217.17</ele>
        <time>2022-08-07T12:41:00Z</time>
      </trkpt>
      <trkpt lat="44.07746" lon="3.4253">
        <ele>1217.17</ele>
        <time>2022-08-07T12:41:04Z</time>
      </trkpt>
      <trkpt lat="44.07743" lon="3.4252">
        <ele>1218.61</ele>
        <time>2022-08-07T12:41:16Z</time>
      </trkpt>
      <trkpt lat="44.07739" lon="3.42509">
        <ele>1220.05</ele>
        <time>2022-08-07T12:41:28Z</time>
      </trkpt>
      <trkpt lat="44.07733" lon="3.425">
        <ele>1221.01</ele>
        <time>2022-08-07T12:41:41Z</time>
      </trkpt>
      <trkpt lat="44.07723" lon="3.4249">
        <ele>1222.45</ele>
        <time>2022-08-07T12:41:53Z</time>
      </trkpt>
      <trkpt lat="44.07721" lon="3.42489">
        <ele>1222.93</ele>
        <time>2022-08-07T12:41:55Z</time>
      </trkpt>
      <trkpt lat="44.0771" lon="3.42472">
        <ele>1224.38</ele>
        <time>2022-08-07T12:42:09Z</time>
      </trkpt>
      <trkpt lat="44.07698" lon="3.42461">
        <ele>1223.42</ele>
        <time>2022-08-07T12:42:23Z</time>
      </trkpt>
      <trkpt lat="44.07689" lon="3.42451">
        <ele>1221.01</ele>
        <time>2022-08-07T12:42:36Z</time>
      </trkpt>
      <trkpt lat="44.07682" lon="3.42444">
        <ele>1220.05</ele>
        <time>2022-08-07T12:42:44Z</time>
      </trkpt>
      <trkpt lat="44.07678" lon="3.42438">
        <ele>1220.05</ele>
        <time>2022-08-07T12:42:48Z</time>
      </trkpt>
      <trkpt lat="44.07676" lon="3.42433">
        <ele>1221.97</ele>
        <time>2022-08-07T12:42:52Z</time>
      </trkpt>
      <trkpt lat="44.07668" lon="3.42425">
        <ele>1223.9</ele>
        <time>2022-08-07T12:43:01Z</time>
      </trkpt>
      <trkpt lat="44.07664" lon="3.4242">
        <ele>1224.86</ele>
        <time>2022-08-07T12:43:06Z</time>
      </trkpt>
      <trkpt lat="44.07654" lon="3.42411">
        <ele>1227.26</ele>
        <time>2022-08-07T12:43:19Z</time>
      </trkpt>
      <trkpt lat="44.07644" lon="3.424">
        <ele>1230.14</ele>
        <time>2022-08-07T12:43:32Z</time>
      </trkpt>
      <trkpt lat="44.07638" lon="3.42396">
        <ele>1229.18</ele>
        <time>2022-08-07T12:43:44Z</time>
      </trkpt>
      <trkpt lat="44.07637" lon="3.42396">
        <ele>1231.11</ele>
        <time>2022-08-07T12:44:07Z</time>
      </trkpt>
      <trkpt lat="44.07638" lon="3.42395">
        <ele>1231.59</ele>
        <time>2022-08-07T12:44:28Z</time>
      </trkpt>
      <trkpt lat="44.07638" lon="3.42394">
        <ele>1231.11</ele>
        <time>2022-08-07T12:44:46Z</time>
      </trkpt>
      <trkpt lat="44.07638" lon="3.42395">
        <ele>1230.62</ele>
        <time>2022-08-07T12:45:11Z</time>
      </trkpt>
      <trkpt lat="44.07638" lon="3.42395">
        <ele>1231.59</ele>
        <time>2022-08-07T12:45:33Z</time>
      </trkpt>
      <trkpt lat="44.07638" lon="3.42395">
        <ele>1230.14</ele>
        <time>2022-08-07T12:46:01Z</time>
      </trkpt>
      <trkpt lat="44.07637" lon="3.42395">
        <ele>1231.11</ele>
        <time>2022-08-07T12:46:13Z</time>
      </trkpt>
      <trkpt lat="44.07638" lon="3.42396">
        <ele>1232.07</ele>
        <time>2022-08-07T12:46:32Z</time>
      </trkpt>
      <trkpt lat="44.07635" lon="3.42393">
        <ele>1230.14</ele>
        <time>2022-08-07T12:46:46Z</time>
      </trkpt>
      <trkpt lat="44.07626" lon="3.42388">
        <ele>1229.18</ele>
        <time>2022-08-07T12:46:57Z</time>
      </trkpt>
      <trkpt lat="44.07617" lon="3.42378">
        <ele>1227.74</ele>
        <time>2022-08-07T12:47:11Z</time>
      </trkpt>
      <trkpt lat="44.07615" lon="3.42375">
        <ele>1227.74</ele>
        <time>2022-08-07T12:47:14Z</time>
      </trkpt>
      <trkpt lat="44.07613" lon="3.42365">
        <ele>1226.78</ele>
        <time>2022-08-07T12:47:21Z</time>
      </trkpt>
      <trkpt lat="44.07614" lon="3.42355">
        <ele>1225.82</ele>
        <time>2022-08-07T12:47:28Z</time>
      </trkpt>
      <trkpt lat="44.07614" lon="3.42348">
        <ele>1225.82</ele>
        <time>2022-08-07T12:47:33Z</time>
      </trkpt>
      <trkpt lat="44.07615" lon="3.42341">
        <ele>1225.34</ele>
        <time>2022-08-07T12:47:38Z</time>
      </trkpt>
      <trkpt lat="44.07614" lon="3.42335">
        <ele>1225.34</ele>
        <time>2022-08-07T12:47:42Z</time>
      </trkpt>
      <trkpt lat="44.07616" lon="3.42313">
        <ele>1223.42</ele>
        <time>2022-08-07T12:47:58Z</time>
      </trkpt>
      <trkpt lat="44.07617" lon="3.42298">
        <ele>1221.49</ele>
        <time>2022-08-07T12:48:13Z</time>
      </trkpt>
      <trkpt lat="44.07616" lon="3.42296">
        <ele>1221.97</ele>
        <time>2022-08-07T12:48:28Z</time>
      </trkpt>
      <trkpt lat="44.07616" lon="3.4228">
        <ele>1219.09</ele>
        <time>2022-08-07T12:48:43Z</time>
      </trkpt>
      <trkpt lat="44.07613" lon="3.42269">
        <ele>1215.72</ele>
        <time>2022-08-07T12:48:56Z</time>
      </trkpt>
      <trkpt lat="44.07605" lon="3.42263">
        <ele>1211.88</ele>
        <time>2022-08-07T12:49:10Z</time>
      </trkpt>
      <trkpt lat="44.07598" lon="3.42259">
        <ele>1209.96</ele>
        <time>2022-08-07T12:49:23Z</time>
      </trkpt>
      <trkpt lat="44.0759" lon="3.42256">
        <ele>1207.07</ele>
        <time>2022-08-07T12:49:36Z</time>
      </trkpt>
      <trkpt lat="44.07583" lon="3.42255">
        <ele>1202.75</ele>
        <time>2022-08-07T12:49:51Z</time>
      </trkpt>
      <trkpt lat="44.07577" lon="3.42252">
        <ele>1199.38</ele>
        <time>2022-08-07T12:50:03Z</time>
      </trkpt>
      <trkpt lat="44.07571" lon="3.42247">
        <ele>1196.98</ele>
        <time>2022-08-07T12:50:15Z</time>
      </trkpt>
      <trkpt lat="44.07564" lon="3.42237">
        <ele>1194.09</ele>
        <time>2022-08-07T12:50:28Z</time>
      </trkpt>
      <trkpt lat="44.07558" lon="3.42227">
        <ele>1192.17</ele>
        <time>2022-08-07T12:50:40Z</time>
      </trkpt>
      <trkpt lat="44.07554" lon="3.42218">
        <ele>1190.25</ele>
        <time>2022-08-07T12:50:53Z</time>
      </trkpt>
      <trkpt lat="44.0755" lon="3.42214">
        <ele>1188.33</ele>
        <time>2022-08-07T12:51:05Z</time>
      </trkpt>
      <trkpt lat="44.07545" lon="3.42205">
        <ele>1186.4</ele>
        <time>2022-08-07T12:51:18Z</time>
      </trkpt>
      <trkpt lat="44.07542" lon="3.42199">
        <ele>1182.56</ele>
        <time>2022-08-07T12:51:31Z</time>
      </trkpt>
      <trkpt lat="44.07536" lon="3.42196">
        <ele>1180.16</ele>
        <time>2022-08-07T12:51:44Z</time>
      </trkpt>
      <trkpt lat="44.07529" lon="3.42195">
        <ele>1178.23</ele>
        <time>2022-08-07T12:51:58Z</time>
      </trkpt>
      <trkpt lat="44.0752" lon="3.42188">
        <ele>1174.87</ele>
        <time>2022-08-07T12:52:13Z</time>
      </trkpt>
      <trkpt lat="44.0751" lon="3.42186">
        <ele>1171.98</ele>
        <time>2022-08-07T12:52:26Z</time>
      </trkpt>
      <trkpt lat="44.07504" lon="3.42175">
        <ele>1170.06</ele>
        <time>2022-08-07T12:52:39Z</time>
      </trkpt>
      <trkpt lat="44.07502" lon="3.42172">
        <ele>1169.58</ele>
        <time>2022-08-07T12:52:43Z</time>
      </trkpt>
      <trkpt lat="44.07495" lon="3.42162">
        <ele>1167.66</ele>
        <time>2022-08-07T12:52:56Z</time>
      </trkpt>
      <trkpt lat="44.07491" lon="3.42145">
        <ele>1165.74</ele>
        <time>2022-08-07T12:53:10Z</time>
      </trkpt>
      <trkpt lat="44.07491" lon="3.42143">
        <ele>1165.74</ele>
        <time>2022-08-07T12:53:11Z</time>
      </trkpt>
      <trkpt lat="44.07487" lon="3.42125">
        <ele>1163.33</ele>
        <time>2022-08-07T12:53:27Z</time>
      </trkpt>
      <trkpt lat="44.07486" lon="3.42122">
        <ele>1163.33</ele>
        <time>2022-08-07T12:53:29Z</time>
      </trkpt>
      <trkpt lat="44.07483" lon="3.42104">
        <ele>1161.89</ele>
        <time>2022-08-07T12:53:46Z</time>
      </trkpt>
      <trkpt lat="44.07479" lon="3.42092">
        <ele>1158.53</ele>
        <time>2022-08-07T12:54:00Z</time>
      </trkpt>
      <trkpt lat="44.07476" lon="3.42082">
        <ele>1155.16</ele>
        <time>2022-08-07T12:54:15Z</time>
      </trkpt>
      <trkpt lat="44.07475" lon="3.42081">
        <ele>1155.16</ele>
        <time>2022-08-07T12:54:16Z</time>
      </trkpt>
      <trkpt lat="44.07469" lon="3.42072">
        <ele>1150.84</ele>
        <time>2022-08-07T12:54:29Z</time>
      </trkpt>
      <trkpt lat="44.07461" lon="3.42063">
        <ele>1147.95</ele>
        <time>2022-08-07T12:54:43Z</time>
      </trkpt>
      <trkpt lat="44.07452" lon="3.4206">
        <ele>1145.55</ele>
        <time>2022-08-07T12:54:57Z</time>
      </trkpt>
      <trkpt lat="44.07447" lon="3.42053">
        <ele>1143.63</ele>
        <time>2022-08-07T12:55:10Z</time>
      </trkpt>
      <trkpt lat="44.07439" lon="3.42044">
        <ele>1143.63</ele>
        <time>2022-08-07T12:55:24Z</time>
      </trkpt>
      <trkpt lat="44.07436" lon="3.42038">
        <ele>1142.66</ele>
        <time>2022-08-07T12:55:31Z</time>
      </trkpt>
      <trkpt lat="44.07435" lon="3.42024">
        <ele>1141.22</ele>
        <time>2022-08-07T12:55:42Z</time>
      </trkpt>
      <trkpt lat="44.07437" lon="3.42015">
        <ele>1142.18</ele>
        <time>2022-08-07T12:55:55Z</time>
      </trkpt>
      <trkpt lat="44.07438" lon="3.42014">
        <ele>1140.26</ele>
        <time>2022-08-07T12:56:13Z</time>
      </trkpt>
      <trkpt lat="44.07438" lon="3.42013">
        <ele>1137.86</ele>
        <time>2022-08-07T12:56:29Z</time>
      </trkpt>
      <trkpt lat="44.07442" lon="3.42008">
        <ele>1136.9</ele>
        <time>2022-08-07T12:56:40Z</time>
      </trkpt>
      <trkpt lat="44.07448" lon="3.42001">
        <ele>1132.57</ele>
        <time>2022-08-07T12:56:57Z</time>
      </trkpt>
      <trkpt lat="44.07448" lon="3.41988">
        <ele>1126.8</ele>
        <time>2022-08-07T12:57:10Z</time>
      </trkpt>
      <trkpt lat="44.07452" lon="3.41971">
        <ele>1117.19</ele>
        <time>2022-08-07T12:57:25Z</time>
      </trkpt>
      <trkpt lat="44.07453" lon="3.41957">
        <ele>1114.79</ele>
        <time>2022-08-07T12:57:37Z</time>
      </trkpt>
      <trkpt lat="44.07458" lon="3.41941">
        <ele>1108.54</ele>
        <time>2022-08-07T12:57:53Z</time>
      </trkpt>
      <trkpt lat="44.07458" lon="3.41919">
        <ele>1106.61</ele>
        <time>2022-08-07T12:58:06Z</time>
      </trkpt>
      <trkpt lat="44.07457" lon="3.41901">
        <ele>1104.69</ele>
        <time>2022-08-07T12:58:17Z</time>
      </trkpt>
      <trkpt lat="44.07459" lon="3.41884">
        <ele>1103.25</ele>
        <time>2022-08-07T12:58:30Z</time>
      </trkpt>
      <trkpt lat="44.07458" lon="3.41876">
        <ele>1104.21</ele>
        <time>2022-08-07T12:58:35Z</time>
      </trkpt>
      <trkpt lat="44.07461" lon="3.41855">
        <ele>1106.61</ele>
        <time>2022-08-07T12:58:48Z</time>
      </trkpt>
      <trkpt lat="44.0746" lon="3.4184">
        <ele>1104.21</ele>
        <time>2022-08-07T12:59:00Z</time>
      </trkpt>
      <trkpt lat="44.07462" lon="3.41827">
        <ele>1100.37</ele>
        <time>2022-08-07T12:59:12Z</time>
      </trkpt>
      <trkpt lat="44.07458" lon="3.41809">
        <ele>1096.04</ele>
        <time>2022-08-07T12:59:24Z</time>
      </trkpt>
      <trkpt lat="44.07457" lon="3.41793">
        <ele>1096.04</ele>
        <time>2022-08-07T12:59:35Z</time>
      </trkpt>
      <trkpt lat="44.07455" lon="3.41776">
        <ele>1093.64</ele>
        <time>2022-08-07T12:59:49Z</time>
      </trkpt>
      <trkpt lat="44.07453" lon="3.41765">
        <ele>1093.64</ele>
        <time>2022-08-07T12:59:55Z</time>
      </trkpt>
      <trkpt lat="44.07447" lon="3.41745">
        <ele>1095.56</ele>
        <time>2022-08-07T13:00:08Z</time>
      </trkpt>
      <trkpt lat="44.07446" lon="3.4174">
        <ele>1096.04</ele>
        <time>2022-08-07T13:00:12Z</time>
      </trkpt>
      <trkpt lat="44.07446" lon="3.41738">
        <ele>1095.08</ele>
        <time>2022-08-07T13:00:15Z</time>
      </trkpt>
      <trkpt lat="44.07439" lon="3.41724">
        <ele>1092.68</ele>
        <time>2022-08-07T13:00:27Z</time>
      </trkpt>
      <trkpt lat="44.07436" lon="3.4172">
        <ele>1092.68</ele>
        <time>2022-08-07T13:00:31Z</time>
      </trkpt>
      <trkpt lat="44.07435" lon="3.41714">
        <ele>1092.68</ele>
        <time>2022-08-07T13:00:34Z</time>
      </trkpt>
      <trkpt lat="44.0743" lon="3.417">
        <ele>1090.75</ele>
        <time>2022-08-07T13:00:47Z</time>
      </trkpt>
      <trkpt lat="44.07425" lon="3.41685">
        <ele>1089.31</ele>
        <time>2022-08-07T13:00:59Z</time>
      </trkpt>
      <trkpt lat="44.07423" lon="3.41672">
        <ele>1088.35</ele>
        <time>2022-08-07T13:01:07Z</time>
      </trkpt>
      <trkpt lat="44.07428" lon="3.41652">
        <ele>1088.83</ele>
        <time>2022-08-07T13:01:22Z</time>
      </trkpt>
      <trkpt lat="44.07432" lon="3.41642">
        <ele>1088.83</ele>
        <time>2022-08-07T13:01:31Z</time>
      </trkpt>
      <trkpt lat="44.07434" lon="3.41636">
        <ele>1088.83</ele>
        <time>2022-08-07T13:01:34Z</time>
      </trkpt>
      <trkpt lat="44.07436" lon="3.4163">
        <ele>1088.83</ele>
        <time>2022-08-07T13:01:37Z</time>
      </trkpt>
      <trkpt lat="44.07439" lon="3.4162">
        <ele>1088.83</ele>
        <time>2022-08-07T13:01:44Z</time>
      </trkpt>
      <trkpt lat="44.07442" lon="3.416">
        <ele>1089.31</ele>
        <time>2022-08-07T13:01:59Z</time>
      </trkpt>
      <trkpt lat="44.07443" lon="3.41597">
        <ele>1089.31</ele>
        <time>2022-08-07T13:02:01Z</time>
      </trkpt>
      <trkpt lat="44.07444" lon="3.41593">
        <ele>1088.83</ele>
        <time>2022-08-07T13:02:04Z</time>
      </trkpt>
      <trkpt lat="44.07449" lon="3.41574">
        <ele>1088.35</ele>
        <time>2022-08-07T13:02:17Z</time>
      </trkpt>
      <trkpt lat="44.07452" lon="3.41554">
        <ele>1086.91</ele>
        <time>2022-08-07T13:02:30Z</time>
      </trkpt>
      <trkpt lat="44.07452" lon="3.41549">
        <ele>1086.91</ele>
        <time>2022-08-07T13:02:33Z</time>
      </trkpt>
      <trkpt lat="44.0745" lon="3.41529">
        <ele>1084.02</ele>
        <time>2022-08-07T13:02:47Z</time>
      </trkpt>
      <trkpt lat="44.07451" lon="3.41513">
        <ele>1084.5</ele>
        <time>2022-08-07T13:02:59Z</time>
      </trkpt>
      <trkpt lat="44.07458" lon="3.41492">
        <ele>1082.58</ele>
        <time>2022-08-07T13:03:13Z</time>
      </trkpt>
      <trkpt lat="44.07462" lon="3.41473">
        <ele>1082.58</ele>
        <time>2022-08-07T13:03:25Z</time>
      </trkpt>
      <trkpt lat="44.07464" lon="3.41464">
        <ele>1082.1</ele>
        <time>2022-08-07T13:03:31Z</time>
      </trkpt>
      <trkpt lat="44.07471" lon="3.4145">
        <ele>1081.62</ele>
        <time>2022-08-07T13:03:38Z</time>
      </trkpt>
      <trkpt lat="44.07474" lon="3.41431">
        <ele>1080.66</ele>
        <time>2022-08-07T13:03:50Z</time>
      </trkpt>
      <trkpt lat="44.07475" lon="3.41429">
        <ele>1080.66</ele>
        <time>2022-08-07T13:03:52Z</time>
      </trkpt>
      <trkpt lat="44.07475" lon="3.4142">
        <ele>1080.18</ele>
        <time>2022-08-07T13:03:57Z</time>
      </trkpt>
      <trkpt lat="44.07477" lon="3.41413">
        <ele>1080.18</ele>
        <time>2022-08-07T13:04:01Z</time>
      </trkpt>
      <trkpt lat="44.07479" lon="3.41398">
        <ele>1079.7</ele>
        <time>2022-08-07T13:04:12Z</time>
      </trkpt>
      <trkpt lat="44.07482" lon="3.41384">
        <ele>1078.26</ele>
        <time>2022-08-07T13:04:24Z</time>
      </trkpt>
      <trkpt lat="44.07483" lon="3.4137">
        <ele>1077.29</ele>
        <time>2022-08-07T13:04:36Z</time>
      </trkpt>
      <trkpt lat="44.07483" lon="3.41358">
        <ele>1075.85</ele>
        <time>2022-08-07T13:04:44Z</time>
      </trkpt>
      <trkpt lat="44.07483" lon="3.41343">
        <ele>1073.93</ele>
        <time>2022-08-07T13:04:57Z</time>
      </trkpt>
      <trkpt lat="44.07483" lon="3.41324">
        <ele>1069.6</ele>
        <time>2022-08-07T13:05:10Z</time>
      </trkpt>
      <trkpt lat="44.07478" lon="3.413">
        <ele>1068.64</ele>
        <time>2022-08-07T13:05:24Z</time>
      </trkpt>
      <trkpt lat="44.07473" lon="3.41286">
        <ele>1067.68</ele>
        <time>2022-08-07T13:05:35Z</time>
      </trkpt>
      <trkpt lat="44.07465" lon="3.41273">
        <ele>1063.36</ele>
        <time>2022-08-07T13:05:47Z</time>
      </trkpt>
      <trkpt lat="44.07455" lon="3.41263">
        <ele>1060.95</ele>
        <time>2022-08-07T13:05:58Z</time>
      </trkpt>
      <trkpt lat="44.07445" lon="3.41252">
        <ele>1059.99</ele>
        <time>2022-08-07T13:06:10Z</time>
      </trkpt>
      <trkpt lat="44.07436" lon="3.41241">
        <ele>1056.15</ele>
        <time>2022-08-07T13:06:22Z</time>
      </trkpt>
      <trkpt lat="44.07434" lon="3.41239">
        <ele>1055.67</ele>
        <time>2022-08-07T13:06:24Z</time>
      </trkpt>
      <trkpt lat="44.07423" lon="3.41226">
        <ele>1051.34</ele>
        <time>2022-08-07T13:06:37Z</time>
      </trkpt>
      <trkpt lat="44.07413" lon="3.41214">
        <ele>1049.9</ele>
        <time>2022-08-07T13:06:49Z</time>
      </trkpt>
      <trkpt lat="44.07402" lon="3.41203">
        <ele>1050.38</ele>
        <time>2022-08-07T13:07:02Z</time>
      </trkpt>
      <trkpt lat="44.0739" lon="3.4119">
        <ele>1048.45</ele>
        <time>2022-08-07T13:07:14Z</time>
      </trkpt>
      <trkpt lat="44.07376" lon="3.41181">
        <ele>1047.97</ele>
        <time>2022-08-07T13:07:26Z</time>
      </trkpt>
      <trkpt lat="44.0736" lon="3.41173">
        <ele>1046.53</ele>
        <time>2022-08-07T13:07:41Z</time>
      </trkpt>
      <trkpt lat="44.07346" lon="3.41169">
        <ele>1043.65</ele>
        <time>2022-08-07T13:07:54Z</time>
      </trkpt>
      <trkpt lat="44.07343" lon="3.41169">
        <ele>1043.17</ele>
        <time>2022-08-07T13:07:57Z</time>
      </trkpt>
      <trkpt lat="44.07324" lon="3.41166">
        <ele>1040.28</ele>
        <time>2022-08-07T13:08:12Z</time>
      </trkpt>
      <trkpt lat="44.0731" lon="3.41154">
        <ele>1036.92</ele>
        <time>2022-08-07T13:08:26Z</time>
      </trkpt>
      <trkpt lat="44.07308" lon="3.41153">
        <ele>1036.92</ele>
        <time>2022-08-07T13:08:28Z</time>
      </trkpt>
      <trkpt lat="44.07302" lon="3.4115">
        <ele>1036.92</ele>
        <time>2022-08-07T13:08:34Z</time>
      </trkpt>
      <trkpt lat="44.07285" lon="3.41143">
        <ele>1035</ele>
        <time>2022-08-07T13:08:50Z</time>
      </trkpt>
      <trkpt lat="44.07274" lon="3.41138">
        <ele>1034.04</ele>
        <time>2022-08-07T13:09:02Z</time>
      </trkpt>
      <trkpt lat="44.07273" lon="3.41137">
        <ele>1034.04</ele>
        <time>2022-08-07T13:09:03Z</time>
      </trkpt>
      <trkpt lat="44.0726" lon="3.41131">
        <ele>1032.59</ele>
        <time>2022-08-07T13:09:17Z</time>
      </trkpt>
      <trkpt lat="44.07245" lon="3.41125">
        <ele>1030.19</ele>
        <time>2022-08-07T13:09:33Z</time>
      </trkpt>
      <trkpt lat="44.07236" lon="3.41122">
        <ele>1026.83</ele>
        <time>2022-08-07T13:09:45Z</time>
      </trkpt>
      <trkpt lat="44.07226" lon="3.41117">
        <ele>1022.02</ele>
        <time>2022-08-07T13:09:55Z</time>
      </trkpt>
      <trkpt lat="44.07214" lon="3.41108">
        <ele>1017.69</ele>
        <time>2022-08-07T13:10:09Z</time>
      </trkpt>
      <trkpt lat="44.07207" lon="3.41103">
        <ele>1017.21</ele>
        <time>2022-08-07T13:10:16Z</time>
      </trkpt>
      <trkpt lat="44.07202" lon="3.41101">
        <ele>1017.69</ele>
        <time>2022-08-07T13:10:20Z</time>
      </trkpt>
      <trkpt lat="44.072" lon="3.41101">
        <ele>1017.69</ele>
        <time>2022-08-07T13:10:22Z</time>
      </trkpt>
      <trkpt lat="44.07195" lon="3.41096">
        <ele>1018.17</ele>
        <time>2022-08-07T13:10:28Z</time>
      </trkpt>
      <trkpt lat="44.0719" lon="3.4109">
        <ele>1018.65</ele>
        <time>2022-08-07T13:10:41Z</time>
      </trkpt>
      <trkpt lat="44.07189" lon="3.41089">
        <ele>1019.62</ele>
        <time>2022-08-07T13:10:55Z</time>
      </trkpt>
      <trkpt lat="44.07185" lon="3.41096">
        <ele>1016.73</ele>
        <time>2022-08-07T13:11:09Z</time>
      </trkpt>
      <trkpt lat="44.07183" lon="3.41097">
        <ele>1018.17</ele>
        <time>2022-08-07T13:11:27Z</time>
      </trkpt>
      <trkpt lat="44.07182" lon="3.41099">
        <ele>1022.02</ele>
        <time>2022-08-07T13:12:01Z</time>
      </trkpt>
      <trkpt lat="44.07181" lon="3.411">
        <ele>1023.46</ele>
        <time>2022-08-07T13:12:31Z</time>
      </trkpt>
      <trkpt lat="44.07187" lon="3.4109">
        <ele>1023.46</ele>
        <time>2022-08-07T13:12:43Z</time>
      </trkpt>
      <trkpt lat="44.07191" lon="3.41087">
        <ele>1023.46</ele>
        <time>2022-08-07T13:12:58Z</time>
      </trkpt>
      <trkpt lat="44.07193" lon="3.41087">
        <ele>1022.98</ele>
        <time>2022-08-07T13:13:13Z</time>
      </trkpt>
      <trkpt lat="44.07192" lon="3.41088">
        <ele>1023.94</ele>
        <time>2022-08-07T13:13:37Z</time>
      </trkpt>
      <trkpt lat="44.07196" lon="3.41086">
        <ele>1022.98</ele>
        <time>2022-08-07T13:13:52Z</time>
      </trkpt>
      <trkpt lat="44.07201" lon="3.41086">
        <ele>1022.5</ele>
        <time>2022-08-07T13:14:00Z</time>
      </trkpt>
      <trkpt lat="44.07206" lon="3.4109">
        <ele>1020.1</ele>
        <time>2022-08-07T13:14:13Z</time>
      </trkpt>
      <trkpt lat="44.07223" lon="3.41094">
        <ele>1015.29</ele>
        <time>2022-08-07T13:14:40Z</time>
      </trkpt>
      <trkpt lat="44.0721" lon="3.4109">
        <ele>1019.13</ele>
        <time>2022-08-07T13:15:00Z</time>
      </trkpt>
      <trkpt lat="44.07211" lon="3.41089">
        <ele>1018.65</ele>
        <time>2022-08-07T13:15:20Z</time>
      </trkpt>
      <trkpt lat="44.07209" lon="3.41088">
        <ele>1018.17</ele>
        <time>2022-08-07T13:15:51Z</time>
      </trkpt>
      <trkpt lat="44.07208" lon="3.41089">
        <ele>1017.69</ele>
        <time>2022-08-07T13:16:24Z</time>
      </trkpt>
      <trkpt lat="44.07208" lon="3.41089">
        <ele>1015.77</ele>
        <time>2022-08-07T13:16:55Z</time>
      </trkpt>
      <trkpt lat="44.07206" lon="3.41088">
        <ele>1015.77</ele>
        <time>2022-08-07T13:17:16Z</time>
      </trkpt>
      <trkpt lat="44.0721" lon="3.41089">
        <ele>1016.73</ele>
        <time>2022-08-07T13:17:41Z</time>
      </trkpt>
      <trkpt lat="44.07211" lon="3.41089">
        <ele>1018.17</ele>
        <time>2022-08-07T13:18:06Z</time>
      </trkpt>
      <trkpt lat="44.07216" lon="3.4109">
        <ele>1017.69</ele>
        <time>2022-08-07T13:18:18Z</time>
      </trkpt>
      <trkpt lat="44.07226" lon="3.41088">
        <ele>1014.33</ele>
        <time>2022-08-07T13:18:30Z</time>
      </trkpt>
      <trkpt lat="44.07229" lon="3.41087">
        <ele>1012.41</ele>
        <time>2022-08-07T13:18:36Z</time>
      </trkpt>
      <trkpt lat="44.07236" lon="3.41082">
        <ele>1010.96</ele>
        <time>2022-08-07T13:18:48Z</time>
      </trkpt>
      <trkpt lat="44.07243" lon="3.41079">
        <ele>1009.52</ele>
        <time>2022-08-07T13:19:00Z</time>
      </trkpt>
      <trkpt lat="44.07249" lon="3.41079">
        <ele>1007.12</ele>
        <time>2022-08-07T13:19:11Z</time>
      </trkpt>
      <trkpt lat="44.07255" lon="3.41065">
        <ele>1001.35</ele>
        <time>2022-08-07T13:19:26Z</time>
      </trkpt>
      <trkpt lat="44.07264" lon="3.41057">
        <ele>997.51</ele>
        <time>2022-08-07T13:19:40Z</time>
      </trkpt>
      <trkpt lat="44.07268" lon="3.41049">
        <ele>996.06</ele>
        <time>2022-08-07T13:19:46Z</time>
      </trkpt>
      <trkpt lat="44.0728" lon="3.4104">
        <ele>995.1</ele>
        <time>2022-08-07T13:20:00Z</time>
      </trkpt>
      <trkpt lat="44.07285" lon="3.41035">
        <ele>994.14</ele>
        <time>2022-08-07T13:20:13Z</time>
      </trkpt>
      <trkpt lat="44.07283" lon="3.41048">
        <ele>991.26</ele>
        <time>2022-08-07T13:20:42Z</time>
      </trkpt>
      <trkpt lat="44.07291" lon="3.41029">
        <ele>996.06</ele>
        <time>2022-08-07T13:21:07Z</time>
      </trkpt>
      <trkpt lat="44.073" lon="3.41026">
        <ele>996.54</ele>
        <time>2022-08-07T13:21:20Z</time>
      </trkpt>
      <trkpt lat="44.07311" lon="3.41018">
        <ele>992.22</ele>
        <time>2022-08-07T13:21:33Z</time>
      </trkpt>
      <trkpt lat="44.07317" lon="3.41002">
        <ele>987.89</ele>
        <time>2022-08-07T13:21:46Z</time>
      </trkpt>
      <trkpt lat="44.07325" lon="3.4099">
        <ele>983.57</ele>
        <time>2022-08-07T13:22:00Z</time>
      </trkpt>
      <trkpt lat="44.07327" lon="3.40984">
        <ele>983.57</ele>
        <time>2022-08-07T13:22:05Z</time>
      </trkpt>
      <trkpt lat="44.07332" lon="3.40959">
        <ele>977.8</ele>
        <time>2022-08-07T13:22:23Z</time>
      </trkpt>
      <trkpt lat="44.07337" lon="3.40945">
        <ele>974.91</ele>
        <time>2022-08-07T13:22:36Z</time>
      </trkpt>
      <trkpt lat="44.07344" lon="3.40932">
        <ele>970.59</ele>
        <time>2022-08-07T13:22:48Z</time>
      </trkpt>
      <trkpt lat="44.07347" lon="3.40921">
        <ele>967.22</ele>
        <time>2022-08-07T13:23:00Z</time>
      </trkpt>
      <trkpt lat="44.07349" lon="3.40907">
        <ele>967.22</ele>
        <time>2022-08-07T13:23:10Z</time>
      </trkpt>
      <trkpt lat="44.0735" lon="3.40891">
        <ele>968.18</ele>
        <time>2022-08-07T13:23:26Z</time>
      </trkpt>
      <trkpt lat="44.07353" lon="3.40891">
        <ele>970.11</ele>
        <time>2022-08-07T13:23:44Z</time>
      </trkpt>
      <trkpt lat="44.07361" lon="3.40888">
        <ele>972.99</ele>
        <time>2022-08-07T13:24:01Z</time>
      </trkpt>
      <trkpt lat="44.07371" lon="3.40887">
        <ele>971.55</ele>
        <time>2022-08-07T13:24:15Z</time>
      </trkpt>
      <trkpt lat="44.0738" lon="3.40881">
        <ele>968.18</ele>
        <time>2022-08-07T13:24:28Z</time>
      </trkpt>
      <trkpt lat="44.0739" lon="3.40877">
        <ele>963.86</ele>
        <time>2022-08-07T13:24:43Z</time>
      </trkpt>
      <trkpt lat="44.074" lon="3.40872">
        <ele>961.94</ele>
        <time>2022-08-07T13:24:56Z</time>
      </trkpt>
      <trkpt lat="44.07411" lon="3.40862">
        <ele>960.49</ele>
        <time>2022-08-07T13:25:12Z</time>
      </trkpt>
      <trkpt lat="44.07419" lon="3.40854">
        <ele>957.61</ele>
        <time>2022-08-07T13:25:25Z</time>
      </trkpt>
      <trkpt lat="44.07425" lon="3.40846">
        <ele>952.32</ele>
        <time>2022-08-07T13:25:42Z</time>
      </trkpt>
      <trkpt lat="44.07434" lon="3.4084">
        <ele>948</ele>
        <time>2022-08-07T13:25:57Z</time>
      </trkpt>
      <trkpt lat="44.07441" lon="3.40834">
        <ele>944.63</ele>
        <time>2022-08-07T13:26:11Z</time>
      </trkpt>
      <trkpt lat="44.07446" lon="3.40825">
        <ele>940.79</ele>
        <time>2022-08-07T13:26:25Z</time>
      </trkpt>
      <trkpt lat="44.07453" lon="3.40821">
        <ele>940.79</ele>
        <time>2022-08-07T13:26:38Z</time>
      </trkpt>
      <trkpt lat="44.07464" lon="3.40815">
        <ele>940.79</ele>
        <time>2022-08-07T13:26:53Z</time>
      </trkpt>
      <trkpt lat="44.0747" lon="3.40806">
        <ele>939.35</ele>
        <time>2022-08-07T13:27:05Z</time>
      </trkpt>
      <trkpt lat="44.07478" lon="3.40792">
        <ele>937.42</ele>
        <time>2022-08-07T13:27:20Z</time>
      </trkpt>
      <trkpt lat="44.0748" lon="3.40787">
        <ele>937.42</ele>
        <time>2022-08-07T13:27:24Z</time>
      </trkpt>
      <trkpt lat="44.07484" lon="3.40775">
        <ele>935.5</ele>
        <time>2022-08-07T13:27:37Z</time>
      </trkpt>
      <trkpt lat="44.07489" lon="3.40763">
        <ele>935.5</ele>
        <time>2022-08-07T13:27:52Z</time>
      </trkpt>
      <trkpt lat="44.07493" lon="3.40752">
        <ele>934.54</ele>
        <time>2022-08-07T13:28:02Z</time>
      </trkpt>
      <trkpt lat="44.07498" lon="3.40743">
        <ele>929.73</ele>
        <time>2022-08-07T13:28:16Z</time>
      </trkpt>
      <trkpt lat="44.07505" lon="3.40738">
        <ele>927.81</ele>
        <time>2022-08-07T13:28:31Z</time>
      </trkpt>
      <trkpt lat="44.07514" lon="3.40732">
        <ele>926.37</ele>
        <time>2022-08-07T13:28:45Z</time>
      </trkpt>
      <trkpt lat="44.07518" lon="3.4073">
        <ele>922.52</ele>
        <time>2022-08-07T13:29:04Z</time>
      </trkpt>
      <trkpt lat="44.07525" lon="3.40722">
        <ele>917.72</ele>
        <time>2022-08-07T13:29:18Z</time>
      </trkpt>
      <trkpt lat="44.07529" lon="3.40721">
        <ele>919.64</ele>
        <time>2022-08-07T13:29:31Z</time>
      </trkpt>
      <trkpt lat="44.07532" lon="3.40708">
        <ele>918.68</ele>
        <time>2022-08-07T13:29:44Z</time>
      </trkpt>
      <trkpt lat="44.07535" lon="3.40699">
        <ele>916.27</ele>
        <time>2022-08-07T13:29:55Z</time>
      </trkpt>
      <trkpt lat="44.07536" lon="3.40691">
        <ele>910.99</ele>
        <time>2022-08-07T13:30:08Z</time>
      </trkpt>
      <trkpt lat="44.07536" lon="3.40683">
        <ele>904.26</ele>
        <time>2022-08-07T13:30:25Z</time>
      </trkpt>
      <trkpt lat="44.07535" lon="3.40671">
        <ele>900.41</ele>
        <time>2022-08-07T13:30:38Z</time>
      </trkpt>
      <trkpt lat="44.07535" lon="3.4067">
        <ele>900.41</ele>
        <time>2022-08-07T13:30:39Z</time>
      </trkpt>
      <trkpt lat="44.07538" lon="3.40651">
        <ele>903.3</ele>
        <time>2022-08-07T13:30:51Z</time>
      </trkpt>
      <trkpt lat="44.07544" lon="3.40638">
        <ele>907.62</ele>
        <time>2022-08-07T13:31:04Z</time>
      </trkpt>
      <trkpt lat="44.07547" lon="3.40628">
        <ele>908.1</ele>
        <time>2022-08-07T13:31:18Z</time>
      </trkpt>
      <trkpt lat="44.0755" lon="3.40625">
        <ele>905.7</ele>
        <time>2022-08-07T13:31:32Z</time>
      </trkpt>
      <trkpt lat="44.07552" lon="3.40618">
        <ele>901.85</ele>
        <time>2022-08-07T13:31:45Z</time>
      </trkpt>
      <trkpt lat="44.07549" lon="3.40606">
        <ele>907.14</ele>
        <time>2022-08-07T13:32:00Z</time>
      </trkpt>
      <trkpt lat="44.07549" lon="3.40608">
        <ele>906.18</ele>
        <time>2022-08-07T13:32:11Z</time>
      </trkpt>
      <trkpt lat="44.07553" lon="3.406">
        <ele>908.58</ele>
        <time>2022-08-07T13:32:34Z</time>
      </trkpt>
      <trkpt lat="44.07556" lon="3.40605">
        <ele>910.51</ele>
        <time>2022-08-07T13:32:58Z</time>
      </trkpt>
      <trkpt lat="44.07554" lon="3.40603">
        <ele>915.31</ele>
        <time>2022-08-07T13:33:23Z</time>
      </trkpt>
      <trkpt lat="44.07548" lon="3.40603">
        <ele>913.39</ele>
        <time>2022-08-07T13:33:42Z</time>
      </trkpt>
      <trkpt lat="44.07547" lon="3.406">
        <ele>915.31</ele>
        <time>2022-08-07T13:34:06Z</time>
      </trkpt>
      <trkpt lat="44.07548" lon="3.40594">
        <ele>918.2</ele>
        <time>2022-08-07T13:34:25Z</time>
      </trkpt>
      <trkpt lat="44.07547" lon="3.40596">
        <ele>921.08</ele>
        <time>2022-08-07T13:34:43Z</time>
      </trkpt>
      <trkpt lat="44.0755" lon="3.406">
        <ele>920.12</ele>
        <time>2022-08-07T13:34:49Z</time>
      </trkpt>
      <trkpt lat="44.07547" lon="3.40586">
        <ele>913.87</ele>
        <time>2022-08-07T13:35:06Z</time>
      </trkpt>
      <trkpt lat="44.07547" lon="3.40572">
        <ele>911.47</ele>
        <time>2022-08-07T13:35:19Z</time>
      </trkpt>
      <trkpt lat="44.07545" lon="3.40558">
        <ele>910.03</ele>
        <time>2022-08-07T13:35:30Z</time>
      </trkpt>
      <trkpt lat="44.07543" lon="3.40537">
        <ele>910.03</ele>
        <time>2022-08-07T13:35:41Z</time>
      </trkpt>
      <trkpt lat="44.07542" lon="3.40525">
        <ele>910.51</ele>
        <time>2022-08-07T13:35:49Z</time>
      </trkpt>
      <trkpt lat="44.07538" lon="3.40504">
        <ele>910.51</ele>
        <time>2022-08-07T13:36:01Z</time>
      </trkpt>
      <trkpt lat="44.07537" lon="3.40486">
        <ele>910.99</ele>
        <time>2022-08-07T13:36:14Z</time>
      </trkpt>
      <trkpt lat="44.07537" lon="3.40473">
        <ele>909.06</ele>
        <time>2022-08-07T13:36:23Z</time>
      </trkpt>
      <trkpt lat="44.07539" lon="3.40456">
        <ele>910.51</ele>
        <time>2022-08-07T13:36:35Z</time>
      </trkpt>
      <trkpt lat="44.07538" lon="3.4044">
        <ele>913.87</ele>
        <time>2022-08-07T13:36:47Z</time>
      </trkpt>
      <trkpt lat="44.07535" lon="3.40424">
        <ele>913.87</ele>
        <time>2022-08-07T13:36:57Z</time>
      </trkpt>
      <trkpt lat="44.07526" lon="3.40405">
        <ele>909.06</ele>
        <time>2022-08-07T13:37:11Z</time>
      </trkpt>
      <trkpt lat="44.07512" lon="3.40397">
        <ele>906.66</ele>
        <time>2022-08-07T13:37:28Z</time>
      </trkpt>
      <trkpt lat="44.07506" lon="3.40396">
        <ele>904.26</ele>
        <time>2022-08-07T13:37:40Z</time>
      </trkpt>
      <trkpt lat="44.07499" lon="3.40386">
        <ele>898.97</ele>
        <time>2022-08-07T13:37:56Z</time>
      </trkpt>
      <trkpt lat="44.07493" lon="3.40387">
        <ele>895.61</ele>
        <time>2022-08-07T13:38:11Z</time>
      </trkpt>
      <trkpt lat="44.07487" lon="3.40394">
        <ele>892.72</ele>
        <time>2022-08-07T13:38:24Z</time>
      </trkpt>
      <trkpt lat="44.07483" lon="3.40378">
        <ele>889.36</ele>
        <time>2022-08-07T13:38:37Z</time>
      </trkpt>
      <trkpt lat="44.07483" lon="3.40366">
        <ele>886.47</ele>
        <time>2022-08-07T13:38:49Z</time>
      </trkpt>
      <trkpt lat="44.07483" lon="3.40352">
        <ele>885.03</ele>
        <time>2022-08-07T13:39:04Z</time>
      </trkpt>
      <trkpt lat="44.0748" lon="3.40343">
        <ele>883.59</ele>
        <time>2022-08-07T13:39:16Z</time>
      </trkpt>
      <trkpt lat="44.0747" lon="3.40325">
        <ele>884.07</ele>
        <time>2022-08-07T13:39:30Z</time>
      </trkpt>
      <trkpt lat="44.07464" lon="3.40306">
        <ele>880.71</ele>
        <time>2022-08-07T13:39:44Z</time>
      </trkpt>
      <trkpt lat="44.0746" lon="3.40295">
        <ele>879.26</ele>
        <time>2022-08-07T13:39:55Z</time>
      </trkpt>
      <trkpt lat="44.07456" lon="3.40286">
        <ele>874.94</ele>
        <time>2022-08-07T13:40:06Z</time>
      </trkpt>
      <trkpt lat="44.0745" lon="3.40279">
        <ele>872.05</ele>
        <time>2022-08-07T13:40:19Z</time>
      </trkpt>
      <trkpt lat="44.07446" lon="3.40271">
        <ele>872.53</ele>
        <time>2022-08-07T13:40:29Z</time>
      </trkpt>
      <trkpt lat="44.07441" lon="3.40264">
        <ele>871.09</ele>
        <time>2022-08-07T13:40:40Z</time>
      </trkpt>
      <trkpt lat="44.07434" lon="3.40257">
        <ele>869.65</ele>
        <time>2022-08-07T13:40:52Z</time>
      </trkpt>
      <trkpt lat="44.07429" lon="3.40247">
        <ele>868.69</ele>
        <time>2022-08-07T13:41:05Z</time>
      </trkpt>
      <trkpt lat="44.07423" lon="3.4024">
        <ele>865.32</ele>
        <time>2022-08-07T13:41:16Z</time>
      </trkpt>
      <trkpt lat="44.07417" lon="3.40229">
        <ele>861.48</ele>
        <time>2022-08-07T13:41:30Z</time>
      </trkpt>
      <trkpt lat="44.07409" lon="3.40222">
        <ele>860.52</ele>
        <time>2022-08-07T13:41:42Z</time>
      </trkpt>
      <trkpt lat="44.07404" lon="3.40216">
        <ele>858.59</ele>
        <time>2022-08-07T13:41:54Z</time>
      </trkpt>
      <trkpt lat="44.07395" lon="3.40209">
        <ele>852.35</ele>
        <time>2022-08-07T13:42:11Z</time>
      </trkpt>
      <trkpt lat="44.0739" lon="3.40206">
        <ele>848.98</ele>
        <time>2022-08-07T13:42:26Z</time>
      </trkpt>
      <trkpt lat="44.07389" lon="3.402">
        <ele>845.62</ele>
        <time>2022-08-07T13:42:54Z</time>
      </trkpt>
      <trkpt lat="44.0738" lon="3.40192">
        <ele>849.46</ele>
        <time>2022-08-07T13:43:07Z</time>
      </trkpt>
      <trkpt lat="44.07373" lon="3.40185">
        <ele>850.42</ele>
        <time>2022-08-07T13:43:20Z</time>
      </trkpt>
      <trkpt lat="44.07366" lon="3.40171">
        <ele>844.66</ele>
        <time>2022-08-07T13:43:34Z</time>
      </trkpt>
      <trkpt lat="44.07362" lon="3.40161">
        <ele>842.25</ele>
        <time>2022-08-07T13:43:46Z</time>
      </trkpt>
      <trkpt lat="44.07354" lon="3.40152">
        <ele>839.37</ele>
        <time>2022-08-07T13:43:59Z</time>
      </trkpt>
      <trkpt lat="44.07347" lon="3.40139">
        <ele>836</ele>
        <time>2022-08-07T13:44:14Z</time>
      </trkpt>
      <trkpt lat="44.07343" lon="3.40129">
        <ele>835.52</ele>
        <time>2022-08-07T13:44:26Z</time>
      </trkpt>
      <trkpt lat="44.07338" lon="3.40117">
        <ele>833.6</ele>
        <time>2022-08-07T13:44:38Z</time>
      </trkpt>
      <trkpt lat="44.07337" lon="3.40098">
        <ele>832.16</ele>
        <time>2022-08-07T13:44:53Z</time>
      </trkpt>
      <trkpt lat="44.07339" lon="3.40081">
        <ele>829.76</ele>
        <time>2022-08-07T13:45:07Z</time>
      </trkpt>
      <trkpt lat="44.07341" lon="3.4007">
        <ele>827.35</ele>
        <time>2022-08-07T13:45:17Z</time>
      </trkpt>
      <trkpt lat="44.07344" lon="3.40051">
        <ele>827.35</ele>
        <time>2022-08-07T13:45:31Z</time>
      </trkpt>
      <trkpt lat="44.07345" lon="3.40038">
        <ele>825.43</ele>
        <time>2022-08-07T13:45:43Z</time>
      </trkpt>
      <trkpt lat="44.07338" lon="3.40039">
        <ele>821.58</ele>
        <time>2022-08-07T13:45:56Z</time>
      </trkpt>
      <trkpt lat="44.0733" lon="3.40051">
        <ele>818.22</ele>
        <time>2022-08-07T13:46:10Z</time>
      </trkpt>
      <trkpt lat="44.07324" lon="3.40049">
        <ele>814.37</ele>
        <time>2022-08-07T13:46:23Z</time>
      </trkpt>
      <trkpt lat="44.07325" lon="3.40037">
        <ele>811.49</ele>
        <time>2022-08-07T13:46:35Z</time>
      </trkpt>
      <trkpt lat="44.07327" lon="3.4002">
        <ele>811.49</ele>
        <time>2022-08-07T13:46:47Z</time>
      </trkpt>
      <trkpt lat="44.07328" lon="3.40018">
        <ele>811.49</ele>
        <time>2022-08-07T13:46:49Z</time>
      </trkpt>
      <trkpt lat="44.07331" lon="3.40005">
        <ele>808.13</ele>
        <time>2022-08-07T13:47:01Z</time>
      </trkpt>
      <trkpt lat="44.07335" lon="3.39992">
        <ele>803.8</ele>
        <time>2022-08-07T13:47:16Z</time>
      </trkpt>
      <trkpt lat="44.07338" lon="3.39982">
        <ele>802.36</ele>
        <time>2022-08-07T13:47:27Z</time>
      </trkpt>
      <trkpt lat="44.07331" lon="3.39979">
        <ele>800.44</ele>
        <time>2022-08-07T13:47:38Z</time>
      </trkpt>
      <trkpt lat="44.07322" lon="3.39984">
        <ele>799.95</ele>
        <time>2022-08-07T13:47:52Z</time>
      </trkpt>
      <trkpt lat="44.07317" lon="3.39981">
        <ele>796.11</ele>
        <time>2022-08-07T13:48:02Z</time>
      </trkpt>
      <trkpt lat="44.07324" lon="3.39967">
        <ele>791.78</ele>
        <time>2022-08-07T13:48:16Z</time>
      </trkpt>
      <trkpt lat="44.0733" lon="3.39954">
        <ele>788.42</ele>
        <time>2022-08-07T13:48:29Z</time>
      </trkpt>
      <trkpt lat="44.07335" lon="3.39942">
        <ele>786.98</ele>
        <time>2022-08-07T13:48:42Z</time>
      </trkpt>
      <trkpt lat="44.07339" lon="3.39928">
        <ele>784.57</ele>
        <time>2022-08-07T13:48:54Z</time>
      </trkpt>
      <trkpt lat="44.07343" lon="3.39916">
        <ele>781.69</ele>
        <time>2022-08-07T13:49:06Z</time>
      </trkpt>
      <trkpt lat="44.07346" lon="3.39905">
        <ele>775.44</ele>
        <time>2022-08-07T13:49:18Z</time>
      </trkpt>
      <trkpt lat="44.07353" lon="3.39894">
        <ele>771.11</ele>
        <time>2022-08-07T13:49:32Z</time>
      </trkpt>
      <trkpt lat="44.07359" lon="3.39884">
        <ele>768.23</ele>
        <time>2022-08-07T13:49:43Z</time>
      </trkpt>
      <trkpt lat="44.07365" lon="3.3987">
        <ele>767.75</ele>
        <time>2022-08-07T13:49:56Z</time>
      </trkpt>
      <trkpt lat="44.0737" lon="3.39852">
        <ele>767.27</ele>
        <time>2022-08-07T13:50:10Z</time>
      </trkpt>
      <trkpt lat="44.07372" lon="3.39842">
        <ele>765.83</ele>
        <time>2022-08-07T13:50:21Z</time>
      </trkpt>
      <trkpt lat="44.07376" lon="3.39824">
        <ele>766.79</ele>
        <time>2022-08-07T13:50:35Z</time>
      </trkpt>
      <trkpt lat="44.07379" lon="3.39807">
        <ele>770.15</ele>
        <time>2022-08-07T13:50:49Z</time>
      </trkpt>
      <trkpt lat="44.07381" lon="3.39795">
        <ele>768.71</ele>
        <time>2022-08-07T13:51:03Z</time>
      </trkpt>
      <trkpt lat="44.07385" lon="3.39786">
        <ele>767.27</ele>
        <time>2022-08-07T13:51:17Z</time>
      </trkpt>
      <trkpt lat="44.07389" lon="3.39776">
        <ele>763.42</ele>
        <time>2022-08-07T13:51:30Z</time>
      </trkpt>
      <trkpt lat="44.07392" lon="3.39776">
        <ele>761.02</ele>
        <time>2022-08-07T13:51:43Z</time>
      </trkpt>
      <trkpt lat="44.07392" lon="3.39776">
        <ele>759.58</ele>
        <time>2022-08-07T13:52:14Z</time>
      </trkpt>
      <trkpt lat="44.07394" lon="3.39767">
        <ele>758.62</ele>
        <time>2022-08-07T13:52:33Z</time>
      </trkpt>
      <trkpt lat="44.07398" lon="3.39744">
        <ele>754.77</ele>
        <time>2022-08-07T13:52:51Z</time>
      </trkpt>
      <trkpt lat="44.07398" lon="3.39742">
        <ele>755.25</ele>
        <time>2022-08-07T13:52:52Z</time>
      </trkpt>
      <trkpt lat="44.07401" lon="3.39732">
        <ele>755.73</ele>
        <time>2022-08-07T13:53:04Z</time>
      </trkpt>
      <trkpt lat="44.07407" lon="3.39717">
        <ele>755.25</ele>
        <time>2022-08-07T13:53:18Z</time>
      </trkpt>
      <trkpt lat="44.07412" lon="3.39703">
        <ele>754.77</ele>
        <time>2022-08-07T13:53:32Z</time>
      </trkpt>
      <trkpt lat="44.07417" lon="3.39692">
        <ele>751.89</ele>
        <time>2022-08-07T13:53:45Z</time>
      </trkpt>
      <trkpt lat="44.0742" lon="3.3968">
        <ele>749.49</ele>
        <time>2022-08-07T13:53:57Z</time>
      </trkpt>
      <trkpt lat="44.07424" lon="3.3967">
        <ele>746.6</ele>
        <time>2022-08-07T13:54:09Z</time>
      </trkpt>
      <trkpt lat="44.07429" lon="3.39657">
        <ele>743.24</ele>
        <time>2022-08-07T13:54:23Z</time>
      </trkpt>
      <trkpt lat="44.0743" lon="3.39645">
        <ele>739.39</ele>
        <time>2022-08-07T13:54:36Z</time>
      </trkpt>
      <trkpt lat="44.07432" lon="3.39637">
        <ele>736.99</ele>
        <time>2022-08-07T13:54:46Z</time>
      </trkpt>
      <trkpt lat="44.07435" lon="3.39626">
        <ele>733.62</ele>
        <time>2022-08-07T13:54:59Z</time>
      </trkpt>
      <trkpt lat="44.07437" lon="3.39621">
        <ele>731.22</ele>
        <time>2022-08-07T13:55:06Z</time>
      </trkpt>
      <trkpt lat="44.07438" lon="3.3961">
        <ele>730.26</ele>
        <time>2022-08-07T13:55:17Z</time>
      </trkpt>
      <trkpt lat="44.07442" lon="3.39603">
        <ele>726.89</ele>
        <time>2022-08-07T13:55:29Z</time>
      </trkpt>
      <trkpt lat="44.07446" lon="3.39595">
        <ele>724.01</ele>
        <time>2022-08-07T13:55:42Z</time>
      </trkpt>
      <trkpt lat="44.07441" lon="3.3959">
        <ele>721.61</ele>
        <time>2022-08-07T13:55:53Z</time>
      </trkpt>
      <trkpt lat="44.07436" lon="3.39587">
        <ele>720.16</ele>
        <time>2022-08-07T13:56:03Z</time>
      </trkpt>
      <trkpt lat="44.07426" lon="3.39591">
        <ele>716.32</ele>
        <time>2022-08-07T13:56:15Z</time>
      </trkpt>
      <trkpt lat="44.07419" lon="3.39594">
        <ele>712.47</ele>
        <time>2022-08-07T13:56:29Z</time>
      </trkpt>
      <trkpt lat="44.07411" lon="3.39593">
        <ele>711.51</ele>
        <time>2022-08-07T13:56:40Z</time>
      </trkpt>
      <trkpt lat="44.07399" lon="3.39593">
        <ele>711.03</ele>
        <time>2022-08-07T13:56:55Z</time>
      </trkpt>
      <trkpt lat="44.07395" lon="3.39587">
        <ele>708.63</ele>
        <time>2022-08-07T13:57:07Z</time>
      </trkpt>
      <trkpt lat="44.07395" lon="3.39583">
        <ele>707.67</ele>
        <time>2022-08-07T13:57:11Z</time>
      </trkpt>
      <trkpt lat="44.07398" lon="3.39563">
        <ele>710.07</ele>
        <time>2022-08-07T13:57:24Z</time>
      </trkpt>
      <trkpt lat="44.07401" lon="3.39547">
        <ele>709.59</ele>
        <time>2022-08-07T13:57:36Z</time>
      </trkpt>
      <trkpt lat="44.074" lon="3.39546">
        <ele>709.59</ele>
        <time>2022-08-07T13:57:37Z</time>
      </trkpt>
      <trkpt lat="44.07396" lon="3.3953">
        <ele>706.23</ele>
        <time>2022-08-07T13:57:50Z</time>
      </trkpt>
      <trkpt lat="44.07398" lon="3.39528">
        <ele>705.75</ele>
        <time>2022-08-07T13:57:53Z</time>
      </trkpt>
      <trkpt lat="44.07399" lon="3.3952">
        <ele>704.3</ele>
        <time>2022-08-07T13:57:58Z</time>
      </trkpt>
      <trkpt lat="44.07409" lon="3.39499">
        <ele>704.3</ele>
        <time>2022-08-07T13:58:13Z</time>
      </trkpt>
      <trkpt lat="44.07415" lon="3.3949">
        <ele>702.86</ele>
        <time>2022-08-07T13:58:25Z</time>
      </trkpt>
      <trkpt lat="44.07417" lon="3.39486">
        <ele>702.86</ele>
        <time>2022-08-07T13:58:29Z</time>
      </trkpt>
      <trkpt lat="44.07419" lon="3.39479">
        <ele>698.53</ele>
        <time>2022-08-07T13:58:37Z</time>
      </trkpt>
      <trkpt lat="44.0742" lon="3.39476">
        <ele>697.09</ele>
        <time>2022-08-07T13:58:40Z</time>
      </trkpt>
      <trkpt lat="44.07433" lon="3.39467">
        <ele>695.17</ele>
        <time>2022-08-07T13:58:54Z</time>
      </trkpt>
      <trkpt lat="44.07434" lon="3.39466">
        <ele>695.17</ele>
        <time>2022-08-07T13:58:56Z</time>
      </trkpt>
      <trkpt lat="44.0744" lon="3.39455">
        <ele>693.73</ele>
        <time>2022-08-07T13:59:08Z</time>
      </trkpt>
      <trkpt lat="44.07443" lon="3.39447">
        <ele>692.77</ele>
        <time>2022-08-07T13:59:15Z</time>
      </trkpt>
      <trkpt lat="44.07446" lon="3.39438">
        <ele>691.33</ele>
        <time>2022-08-07T13:59:27Z</time>
      </trkpt>
      <trkpt lat="44.07445" lon="3.39433">
        <ele>690.36</ele>
        <time>2022-08-07T13:59:38Z</time>
      </trkpt>
      <trkpt lat="44.07445" lon="3.39433">
        <ele>692.29</ele>
        <time>2022-08-07T14:00:05Z</time>
      </trkpt>
      <trkpt lat="44.07446" lon="3.39431">
        <ele>692.29</ele>
        <time>2022-08-07T14:00:25Z</time>
      </trkpt>
      <trkpt lat="44.07447" lon="3.39422">
        <ele>691.81</ele>
        <time>2022-08-07T14:00:35Z</time>
      </trkpt>
      <trkpt lat="44.0745" lon="3.39413">
        <ele>688.92</ele>
        <time>2022-08-07T14:00:45Z</time>
      </trkpt>
      <trkpt lat="44.07451" lon="3.39403">
        <ele>687</ele>
        <time>2022-08-07T14:00:55Z</time>
      </trkpt>
      <trkpt lat="44.07455" lon="3.39387">
        <ele>682.19</ele>
        <time>2022-08-07T14:01:08Z</time>
      </trkpt>
      <trkpt lat="44.07457" lon="3.3938">
        <ele>681.23</ele>
        <time>2022-08-07T14:01:14Z</time>
      </trkpt>
      <trkpt lat="44.07461" lon="3.39372">
        <ele>680.75</ele>
        <time>2022-08-07T14:01:21Z</time>
      </trkpt>
      <trkpt lat="44.07466" lon="3.39351">
        <ele>675.94</ele>
        <time>2022-08-07T14:01:37Z</time>
      </trkpt>
      <trkpt lat="44.0747" lon="3.39329">
        <ele>675.46</ele>
        <time>2022-08-07T14:01:52Z</time>
      </trkpt>
      <trkpt lat="44.07471" lon="3.39312">
        <ele>674.5</ele>
        <time>2022-08-07T14:02:06Z</time>
      </trkpt>
      <trkpt lat="44.07474" lon="3.39298">
        <ele>672.58</ele>
        <time>2022-08-07T14:02:18Z</time>
      </trkpt>
      <trkpt lat="44.07479" lon="3.39291">
        <ele>671.14</ele>
        <time>2022-08-07T14:02:25Z</time>
      </trkpt>
      <trkpt lat="44.07489" lon="3.39284">
        <ele>668.25</ele>
        <time>2022-08-07T14:02:38Z</time>
      </trkpt>
      <trkpt lat="44.075" lon="3.39275">
        <ele>666.81</ele>
        <time>2022-08-07T14:02:52Z</time>
      </trkpt>
      <trkpt lat="44.0751" lon="3.39267">
        <ele>665.37</ele>
        <time>2022-08-07T14:03:04Z</time>
      </trkpt>
      <trkpt lat="44.07522" lon="3.39255">
        <ele>663.45</ele>
        <time>2022-08-07T14:03:21Z</time>
      </trkpt>
      <trkpt lat="44.07534" lon="3.39248">
        <ele>662.01</ele>
        <time>2022-08-07T14:03:36Z</time>
      </trkpt>
      <trkpt lat="44.07542" lon="3.39245">
        <ele>659.12</ele>
        <time>2022-08-07T14:03:48Z</time>
      </trkpt>
      <trkpt lat="44.07549" lon="3.3924">
        <ele>653.83</ele>
        <time>2022-08-07T14:04:00Z</time>
      </trkpt>
      <trkpt lat="44.07555" lon="3.39231">
        <ele>646.62</ele>
        <time>2022-08-07T14:04:15Z</time>
      </trkpt>
      <trkpt lat="44.07561" lon="3.39223">
        <ele>642.78</ele>
        <time>2022-08-07T14:04:28Z</time>
      </trkpt>
      <trkpt lat="44.07569" lon="3.39216">
        <ele>638.93</ele>
        <time>2022-08-07T14:04:42Z</time>
      </trkpt>
      <trkpt lat="44.07572" lon="3.3921">
        <ele>634.61</ele>
        <time>2022-08-07T14:04:54Z</time>
      </trkpt>
      <trkpt lat="44.07573" lon="3.39208">
        <ele>630.28</ele>
        <time>2022-08-07T14:05:05Z</time>
      </trkpt>
      <trkpt lat="44.07572" lon="3.39206">
        <ele>637.01</ele>
        <time>2022-08-07T14:05:25Z</time>
      </trkpt>
      <trkpt lat="44.07583" lon="3.392">
        <ele>638.93</ele>
        <time>2022-08-07T14:05:41Z</time>
      </trkpt>
      <trkpt lat="44.07583" lon="3.39189">
        <ele>632.2</ele>
        <time>2022-08-07T14:05:53Z</time>
      </trkpt>
      <trkpt lat="44.07583" lon="3.39188">
        <ele>632.2</ele>
        <time>2022-08-07T14:05:54Z</time>
      </trkpt>
      <trkpt lat="44.07582" lon="3.39177">
        <ele>629.32</ele>
        <time>2022-08-07T14:06:06Z</time>
      </trkpt>
      <trkpt lat="44.07583" lon="3.39166">
        <ele>626.92</ele>
        <time>2022-08-07T14:06:21Z</time>
      </trkpt>
      <trkpt lat="44.07583" lon="3.39156">
        <ele>627.88</ele>
        <time>2022-08-07T14:06:33Z</time>
      </trkpt>
      <trkpt lat="44.07582" lon="3.39151">
        <ele>628.84</ele>
        <time>2022-08-07T14:06:46Z</time>
      </trkpt>
      <trkpt lat="44.0759" lon="3.39147">
        <ele>624.03</ele>
        <time>2022-08-07T14:07:00Z</time>
      </trkpt>
      <trkpt lat="44.07598" lon="3.3915">
        <ele>616.82</ele>
        <time>2022-08-07T14:07:14Z</time>
      </trkpt>
      <trkpt lat="44.07601" lon="3.39145">
        <ele>609.61</ele>
        <time>2022-08-07T14:07:28Z</time>
      </trkpt>
      <trkpt lat="44.07606" lon="3.39141">
        <ele>605.77</ele>
        <time>2022-08-07T14:07:40Z</time>
      </trkpt>
      <trkpt lat="44.07609" lon="3.39132">
        <ele>604.33</ele>
        <time>2022-08-07T14:07:53Z</time>
      </trkpt>
      <trkpt lat="44.07612" lon="3.39129">
        <ele>608.17</ele>
        <time>2022-08-07T14:08:03Z</time>
      </trkpt>
      <trkpt lat="44.07621" lon="3.39121">
        <ele>610.57</ele>
        <time>2022-08-07T14:08:18Z</time>
      </trkpt>
      <trkpt lat="44.07623" lon="3.39115">
        <ele>608.17</ele>
        <time>2022-08-07T14:08:29Z</time>
      </trkpt>
      <trkpt lat="44.07628" lon="3.39108">
        <ele>608.17</ele>
        <time>2022-08-07T14:08:41Z</time>
      </trkpt>
      <trkpt lat="44.07635" lon="3.39104">
        <ele>608.17</ele>
        <time>2022-08-07T14:08:54Z</time>
      </trkpt>
      <trkpt lat="44.07641" lon="3.39101">
        <ele>608.17</ele>
        <time>2022-08-07T14:09:05Z</time>
      </trkpt>
      <trkpt lat="44.07645" lon="3.39098">
        <ele>603.36</ele>
        <time>2022-08-07T14:09:18Z</time>
      </trkpt>
      <trkpt lat="44.07647" lon="3.39099">
        <ele>602.88</ele>
        <time>2022-08-07T14:09:31Z</time>
      </trkpt>
      <trkpt lat="44.0765" lon="3.39098">
        <ele>600.96</ele>
        <time>2022-08-07T14:10:01Z</time>
      </trkpt>
      <trkpt lat="44.07655" lon="3.39099">
        <ele>598.56</ele>
        <time>2022-08-07T14:10:13Z</time>
      </trkpt>
      <trkpt lat="44.07664" lon="3.39099">
        <ele>596.64</ele>
        <time>2022-08-07T14:10:25Z</time>
      </trkpt>
      <trkpt lat="44.07668" lon="3.39093">
        <ele>592.31</ele>
        <time>2022-08-07T14:10:40Z</time>
      </trkpt>
      <trkpt lat="44.07666" lon="3.39084">
        <ele>591.35</ele>
        <time>2022-08-07T14:10:56Z</time>
      </trkpt>
      <trkpt lat="44.07662" lon="3.39076">
        <ele>588.46</ele>
        <time>2022-08-07T14:11:07Z</time>
      </trkpt>
      <trkpt lat="44.07662" lon="3.39075">
        <ele>587.98</ele>
        <time>2022-08-07T14:11:09Z</time>
      </trkpt>
      <trkpt lat="44.07658" lon="3.3907">
        <ele>586.06</ele>
        <time>2022-08-07T14:11:22Z</time>
      </trkpt>
      <trkpt lat="44.07658" lon="3.39073">
        <ele>586.54</ele>
        <time>2022-08-07T14:11:45Z</time>
      </trkpt>
      <trkpt lat="44.07657" lon="3.39071">
        <ele>587.5</ele>
        <time>2022-08-07T14:12:03Z</time>
      </trkpt>
      <trkpt lat="44.07658" lon="3.39066">
        <ele>586.54</ele>
        <time>2022-08-07T14:12:19Z</time>
      </trkpt>
      <trkpt lat="44.07671" lon="3.39075">
        <ele>584.62</ele>
        <time>2022-08-07T14:12:32Z</time>
      </trkpt>
      <trkpt lat="44.0768" lon="3.39085">
        <ele>584.14</ele>
        <time>2022-08-07T14:12:44Z</time>
      </trkpt>
      <trkpt lat="44.07683" lon="3.3909">
        <ele>582.7</ele>
        <time>2022-08-07T14:12:51Z</time>
      </trkpt>
      <trkpt lat="44.07688" lon="3.39093">
        <ele>581.73</ele>
        <time>2022-08-07T14:12:55Z</time>
      </trkpt>
      <trkpt lat="44.07692" lon="3.39111">
        <ele>582.22</ele>
        <time>2022-08-07T14:13:09Z</time>
      </trkpt>
      <trkpt lat="44.07694" lon="3.39126">
        <ele>581.73</ele>
        <time>2022-08-07T14:13:23Z</time>
      </trkpt>
      <trkpt lat="44.07693" lon="3.39142">
        <ele>581.25</ele>
        <time>2022-08-07T14:13:34Z</time>
      </trkpt>
      <trkpt lat="44.07701" lon="3.39158">
        <ele>577.89</ele>
        <time>2022-08-07T14:13:47Z</time>
      </trkpt>
      <trkpt lat="44.07713" lon="3.39156">
        <ele>580.77</ele>
        <time>2022-08-07T14:13:59Z</time>
      </trkpt>
      <trkpt lat="44.0772" lon="3.39159">
        <ele>581.25</ele>
        <time>2022-08-07T14:14:07Z</time>
      </trkpt>
      <trkpt lat="44.07732" lon="3.39165">
        <ele>582.22</ele>
        <time>2022-08-07T14:14:20Z</time>
      </trkpt>
      <trkpt lat="44.07743" lon="3.39171">
        <ele>582.7</ele>
        <time>2022-08-07T14:14:32Z</time>
      </trkpt>
      <trkpt lat="44.07744" lon="3.39172">
        <ele>582.7</ele>
        <time>2022-08-07T14:14:33Z</time>
      </trkpt>
      <trkpt lat="44.07752" lon="3.39177">
        <ele>582.22</ele>
        <time>2022-08-07T14:14:43Z</time>
      </trkpt>
      <trkpt lat="44.07763" lon="3.39181">
        <ele>582.7</ele>
        <time>2022-08-07T14:14:57Z</time>
      </trkpt>
      <trkpt lat="44.07764" lon="3.39181">
        <ele>582.7</ele>
        <time>2022-08-07T14:14:58Z</time>
      </trkpt>
      <trkpt lat="44.07766" lon="3.39185">
        <ele>582.7</ele>
        <time>2022-08-07T14:15:02Z</time>
      </trkpt>
      <trkpt lat="44.0777" lon="3.39189">
        <ele>583.18</ele>
        <time>2022-08-07T14:15:06Z</time>
      </trkpt>
      <trkpt lat="44.07777" lon="3.39205">
        <ele>583.18</ele>
        <time>2022-08-07T14:15:20Z</time>
      </trkpt>
      <trkpt lat="44.07784" lon="3.39217">
        <ele>585.58</ele>
        <time>2022-08-07T14:15:31Z</time>
      </trkpt>
      <trkpt lat="44.07791" lon="3.39233">
        <ele>587.5</ele>
        <time>2022-08-07T14:15:44Z</time>
      </trkpt>
      <trkpt lat="44.07798" lon="3.39244">
        <ele>585.58</ele>
        <time>2022-08-07T14:15:57Z</time>
      </trkpt>
      <trkpt lat="44.07808" lon="3.39242">
        <ele>585.1</ele>
        <time>2022-08-07T14:16:08Z</time>
      </trkpt>
      <trkpt lat="44.07825" lon="3.39237">
        <ele>588.46</ele>
        <time>2022-08-07T14:16:26Z</time>
      </trkpt>
      <trkpt lat="44.07835" lon="3.39241">
        <ele>590.39</ele>
        <time>2022-08-07T14:16:40Z</time>
      </trkpt>
      <trkpt lat="44.07844" lon="3.39252">
        <ele>590.87</ele>
        <time>2022-08-07T14:16:56Z</time>
      </trkpt>
      <trkpt lat="44.07847" lon="3.39259">
        <ele>591.35</ele>
        <time>2022-08-07T14:17:02Z</time>
      </trkpt>
      <trkpt lat="44.07856" lon="3.39268">
        <ele>597.12</ele>
        <time>2022-08-07T14:17:13Z</time>
      </trkpt>
      <trkpt lat="44.07865" lon="3.39283">
        <ele>602.4</ele>
        <time>2022-08-07T14:17:27Z</time>
      </trkpt>
      <trkpt lat="44.07872" lon="3.39294">
        <ele>606.73</ele>
        <time>2022-08-07T14:17:39Z</time>
      </trkpt>
      <trkpt lat="44.07872" lon="3.39301">
        <ele>608.17</ele>
        <time>2022-08-07T14:17:47Z</time>
      </trkpt>
      <trkpt lat="44.07865" lon="3.39313">
        <ele>609.13</ele>
        <time>2022-08-07T14:17:58Z</time>
      </trkpt>
      <trkpt lat="44.07862" lon="3.39316">
        <ele>609.13</ele>
        <time>2022-08-07T14:18:01Z</time>
      </trkpt>
      <trkpt lat="44.07856" lon="3.39323">
        <ele>611.06</ele>
        <time>2022-08-07T14:18:10Z</time>
      </trkpt>
      <trkpt lat="44.07848" lon="3.39334">
        <ele>611.54</ele>
        <time>2022-08-07T14:18:23Z</time>
      </trkpt>
      <trkpt lat="44.07844" lon="3.39339">
        <ele>612.02</ele>
        <time>2022-08-07T14:18:28Z</time>
      </trkpt>
      <trkpt lat="44.07842" lon="3.39338">
        <ele>612.02</ele>
        <time>2022-08-07T14:18:30Z</time>
      </trkpt>
      <trkpt lat="44.07839" lon="3.39341">
        <ele>612.5</ele>
        <time>2022-08-07T14:18:34Z</time>
      </trkpt>
      <trkpt lat="44.07834" lon="3.39334">
        <ele>614.42</ele>
        <time>2022-08-07T14:18:42Z</time>
      </trkpt>
      <trkpt lat="44.07831" lon="3.39328">
        <ele>615.38</ele>
        <time>2022-08-07T14:18:47Z</time>
      </trkpt>
      <trkpt lat="44.07829" lon="3.39326">
        <ele>616.34</ele>
        <time>2022-08-07T14:18:50Z</time>
      </trkpt>
      <trkpt lat="44.07817" lon="3.39326">
        <ele>619.71</ele>
        <time>2022-08-07T14:19:06Z</time>
      </trkpt>
      <trkpt lat="44.07811" lon="3.39326">
        <ele>621.63</ele>
        <time>2022-08-07T14:19:13Z</time>
      </trkpt>
      <trkpt lat="44.07808" lon="3.39323">
        <ele>624.03</ele>
        <time>2022-08-07T14:19:17Z</time>
      </trkpt>
      <trkpt lat="44.07796" lon="3.39327">
        <ele>626.92</ele>
        <time>2022-08-07T14:19:30Z</time>
      </trkpt>
      <trkpt lat="44.07799" lon="3.39336">
        <ele>627.88</ele>
        <time>2022-08-07T14:19:41Z</time>
      </trkpt>
      <trkpt lat="44.07801" lon="3.39335">
        <ele>626.92</ele>
        <time>2022-08-07T14:19:52Z</time>
      </trkpt>
      <trkpt lat="44.078" lon="3.39335">
        <ele>629.8</ele>
        <time>2022-08-07T14:20:18Z</time>
      </trkpt>
      <trkpt lat="44.07799" lon="3.39335">
        <ele>632.68</ele>
        <time>2022-08-07T14:20:46Z</time>
      </trkpt>
      <trkpt lat="44.078" lon="3.39335">
        <ele>632.2</ele>
        <time>2022-08-07T14:21:04Z</time>
      </trkpt>
      <trkpt lat="44.078" lon="3.39337">
        <ele>632.68</ele>
        <time>2022-08-07T14:21:23Z</time>
      </trkpt>
      <trkpt lat="44.07799" lon="3.39336">
        <ele>636.05</ele>
        <time>2022-08-07T14:21:47Z</time>
      </trkpt>
      <trkpt lat="44.07799" lon="3.39335">
        <ele>634.13</ele>
        <time>2022-08-07T14:22:13Z</time>
      </trkpt>
    </trkseg>
  </trk>
</gpx>